     2.11           OBSERVATION DATA    G (GPS)             RINEX VERSION / TYPE
teqc 2010Oct21 OPUS Account 20111026 21:40:00UTC            PGM / RUN BY / DATE
K 1524                                                      MARKER NAME
1214                                                        MARKER NUMBER
CSMIDDLETON NGS                                             OBSERVER / AGENCY
0220390632 TRIMBLE R7 2.28                                  REC # / TYPE / VERS
11909788 TRM41249.00 NONE                                   ANT # / TYPE
  -758409.1263 -5529378.4999  3077114.6886                  APPROX POSITION XYZ
        1.9990        0.0000        0.0000                  ANTENNA: DELTA H/E/N
     1     1                                                WAVELENGTH FACT L1/2
     5    L1    L2    C1    P1    P2                        # / TYPES OF OBSERV
    15                                                      LEAP SECONDS
  2011     8    12    18    16   30.0000000     GPS         TIME OF FIRST OBS
                                                            END OF HEADER
 11  8 12 18 16 30.0000000  0  9G03G07G08G11G13G19G23G24G28
    683805.81655    495334.76652  23938596.6804                   23938596.7934
    -29555.72757    -26585.94556  20356068.0704                   20356065.4924
   -246130.61357   -188542.39155  21415783.3594                   21415781.3524
   -192465.65657   -148807.73854  22103001.2734                   22103000.0354
    604747.69157    448369.67255  21632512.6484                   21632510.3164
    500411.89557    370747.56355  21805589.0164                   21805585.0314
    708860.22056    512297.23853  23601985.0394                   23601983.9614
   -218156.02056   -169692.69953  23532584.2034                   23532585.4654
    -81468.26257    -65467.33254  22604435.7894                   22604433.5554
 11  8 12 18 17  0.0000000  0  9G03G07G08G11G13G19G23G24G28
    815601.09045    598032.32842  23963675.4454                   23963676.8284
    -33969.63747    -30025.36746  20355228.4614                   20355225.4734
   -292039.18747   -224315.30945  21407047.1414                   21407045.3634
   -227546.10247   -176143.15244  22096325.7664                   22096324.0634
    720177.63347    538314.98445  21654478.1254                   21654476.3404
    596537.21547    445650.37145  21823880.6094                   21823877.1334
    844983.46946    618367.09443  23627889.1254                   23627887.8444
   -269297.87146   -209543.43443  23522851.8444                   23522853.7114
    -96182.86347    -76933.24644  22601635.5234                   22601633.4184
 11  8 12 18 17 30.0000000  0  9G03G07G08G11G13G19G23G24G28
    947594.46146    700884.25842  23988793.1954                   23988793.5314
    -37972.94147    -33144.84846  20354467.1724                   20354463.8714
   -337727.96947   -259916.96145  21398352.9384                   21398351.3284
   -262168.58247   -203121.69544  22089737.2194                   22089736.0354
    836033.80947    628592.41845  21676524.4534                   21676523.0944
    693177.07847    520954.11745  21842270.5474                   21842266.8484
    981261.60946    724557.61743  23653821.3284                   23653820.9384
   -320264.00046   -249257.23843  23513153.0004                   23513155.3794
   -110651.90247    -88207.81244  22598882.0394                   22598880.1054
 11  8 12 18 18  0.0000000  0  9G03G07G08G11G13G19G23G24G28
   1079783.04346    803888.31642  24013948.2274                   24013948.8984
    -41564.49647    -35943.48046  20353783.6024                   20353780.4414
   -383194.71147   -295345.58245  21389700.2584                   21389698.8674
   -296330.39547   -229741.27044  22083236.3914                   22083234.8954
    952313.13347    719199.57845  21698652.0004                   21698650.4104
    790328.43447    596656.44145  21860757.7894                   21860753.9344
   1117691.86346    830866.68043  23679783.1644                   23679782.7974
   -371051.64846   -288831.97743  23503488.8444                   23503489.8634
   -124876.09047    -99291.58644  22596175.1174                   22596172.8984
 11  8 12 18 18 30.0000000  0  9G03G07G08G11G13G19G23G24G28
   1212151.83246    907032.81642  24039137.3524                   24039138.1994
    -44754.42647    -38429.14846  20353176.1724                   20353173.5554
   -428450.18047   -330609.58645  21381088.9064                   21381087.0634
   -330041.52047   -256009.67644  22076820.8594                   22076819.5984
   1069000.12947    810124.41045  21720856.5084                   21720855.8364
    887976.25047    672745.61745  21879339.3834                   21879336.4104
   1254258.41846    937281.94143  23705771.7894                   23705770.3524
   -421670.18446   -328274.88343  23493855.7974                   23493857.4454
   -138868.93447   -110195.10944  22593512.5394                   22593510.2384
 11  8 12 18 19  0.0000000  0  8G07G08G11G13G19G23G24G28
    -47539.70747    -40599.51246  20352645.9454                   20352643.5044
   -473491.23847   -365706.50445  21372517.8524                   21372515.9884
   -363297.75847   -281923.61744  22070492.6484                   22070490.6564
   1186093.21947    901365.67245  21743138.9694                   21743137.9104
    986119.05947    749220.50045  21898015.2894                   21898012.1764
   1390959.87946   1043802.28943  23731784.4534                   23731784.6994
   -472115.34446   -367582.72343  23484256.2504                   23484258.3284
   -152629.91447   -120917.93044  22590893.8674                   22590891.7274
 11  8 12 18 19 30.0000000  0  8G07G08G11G13G19G23G24G28
    -49933.87947    -42465.12146  20352190.7974                   20352188.3984
   -518331.18047   -400646.72345  21363985.0234                   21363983.4844
   -396111.59847   -307492.82844  22064248.9384                   22064247.0664
   1303573.96547    992909.02044  21765494.6724                   21765493.3674
   1084738.81647    826067.03945  21916782.3754                   21916778.5204
   1527778.26246   1150413.77343  23757820.6484                   23757820.4104
   -522399.34046   -406764.96143  23474687.6884                   23474689.8674
   -166175.34847   -131472.80944  22588316.4614                   22588314.2384
 11  8 12 18 20  0.0000000  0  8G07G08G11G13G19G23G24G28
    -51941.55947    -44029.56646  20351808.9224                   20351806.5514
   -562973.77747   -435433.15245  21355490.1254                   21355487.9454
   -428486.89847   -332720.32444  22058087.6954                   22058086.0234
   1421433.11347   1084747.21145  21787922.3754                   21787921.3874
   1183826.37947    903278.09445  21935638.0314                   21935634.0784
   1664704.22746   1257109.03943  23783877.9774                   23783877.2624
   -572525.56646   -445824.24643  23465148.8594                   23465150.5514
   -179512.56247   -141865.43744  22585777.8284                   22585775.9414
 11  8 12 18 20 30.0000000  0  8G07G08G11G13G19G23G24G28
    -53565.28147    -45294.81246  20351499.7114                   20351497.1954
   -607422.26247   -470068.32845  21347031.3364                   21347029.6094
   -460425.71547   -357607.69144  22052010.4304                   22052008.0824
   1539663.12547   1176874.39545  21810421.1954                   21810419.4924
   1283374.45347    980847.99245  21954581.8444                   21954577.7114
   1801730.48046   1363882.49643  23809953.1564                   23809952.8094
   -622495.43046   -484761.73443  23455639.0634                   23455641.9804
   -192647.07447   -152100.11745  22583279.3444                   22583276.7974
 11  8 12 18 21  0.0000000  0  8G07G08G11G13G19G23G24G28
    -54814.41047    -46268.17646  20351261.9844                   20351259.1174
   -651685.68747   -504559.30145  21338608.4384                   21338606.5944
   -491936.21147   -382161.30945  22046013.7974                   22046012.3164
   1658249.87147   1269279.53944  21832987.9694                   21832985.8324
   1383369.37547   1058766.08645  21973609.7664                   21973606.0744
   1938842.66846   1470722.93043  23836044.9534                   23836043.7464
   -672317.04346   -523583.69543  23446159.5634                   23446160.7704
   -205590.67647   -162186.03144  22580815.8284                   22580813.6764
 11  8 12 18 21 30.0000000  0  8G07G08G11G13G19G23G24G28
    -55707.72347    -46964.28146  20351092.0704                   20351089.1054
   -695781.82847   -538919.92645  21330217.0704                   21330215.4774
   -523036.28547   -406395.11744  22040095.0084                   22040093.4804
   1777169.99647   1361944.47744  21855617.1024                   21855616.5124
   1483787.93447   1137014.28945  21992719.0634                   21992715.4654
   2076017.91846   1577612.45743  23862148.4614                   23862147.9414
   -722007.64546   -562303.53943  23436703.3984                   23436705.3164
   -218364.75447   -172139.84444  22578384.9304                   22578382.6804
 11  8 12 18 22  0.0000000  0  8G07G08G11G13G19G23G24G28
    -56237.29347    -47376.94146  20350991.0704                   20350988.5314
   -739702.94947   -573144.17245  21321859.4064                   21321857.7584
   -553716.90247   -430302.07045  22034257.2894                   22034255.2734
   1896426.41047   1454871.44544  21878311.2664                   21878309.7894
   1584633.12147   1215594.92645  22011909.2424                   22011905.3914
   2213259.53946   1684553.75043  23888264.4304                   23888264.2854
   -771558.61746   -600914.64143  23427274.6024                   23427275.6374
   -230964.30947   -181957.67644  22575987.0704                   22575985.3164
 11  8 12 18 22 30.0000000  0  8G07G08G11G13G19G23G24G28
    -56415.37147    -47515.72346  20350956.8914                   20350954.9454
   -783460.97347   -607241.32445  21313532.8134                   21313530.5594
   -583989.80147   -453891.32844  22028496.8054                   22028495.6644
   2016001.72747   1548046.91444  21901066.4304                   21901064.7584
   1685888.05147   1294494.82845  22031177.5704                   22031173.6254
   2350550.24246   1791533.24242  23914389.8524                   23914390.2034
   -820980.87146   -639425.40243  23417868.9614                   23417871.1414
   -243404.46947   -191651.29344  22573620.1094                   22573618.1914
 11  8 12 18 23  0.0000000  0  8G07G08G11G13G19G23G24G28
    -56243.01247    -47381.42246  20350990.1644                   20350987.3754
   -827056.62147   -641211.95745  21305236.8674                   21305234.7854
   -613854.91447   -477162.83244  22022812.3674                   22022811.3594
   2135890.52047   1641466.64844  21923880.1334                   21923878.8014
   1787547.50447   1373709.95745  22050522.3754                   22050518.8094
   2487884.59446   1898546.78942  23940524.9694                   23940524.2934
   -870273.78146   -677835.41443  23408489.5944                   23408490.4734
   -255688.89147   -201223.55144  22571282.4454                   22571280.6134
 11  8 12 18 23 30.0000000  0  8G07G08G11G13G19G23G24G28
    -55719.07047    -46973.17246  20351089.9924                   20351087.1454
   -870488.51247   -675054.98445  21296971.7424                   21296970.0044
   -643310.47347   -500115.19945  22017208.6334                   22017206.4024
   2256088.82847   1735127.56644  21946752.8134                   21946751.6994
   1889607.75447   1453237.37945  22069944.2344                   22069940.1134
   2625259.27346   2005591.69942  23966665.7814                   23966666.3134
   -919435.47346   -716143.17243  23399134.7194                   23399135.9654
   -267819.20747   -210675.74644  22568973.6724                   22568971.8134
 11  8 12 18 24  0.0000000  0  8G07G08G11G13G19G23G24G28
    -54851.81247    -46297.38746  20351254.9534                   20351252.5514
   -913764.69147   -708776.67645  21288736.5474                   21288735.0434
   -672363.73447   -522754.08244  22011679.1954                   22011678.0234
   2376583.77747   1829019.61744  21969682.4924                   21969681.1884
   1992056.34047   1533067.41045  22089439.2814                   22089435.7114
   2762660.92646   2112657.63343  23992813.0634                   23992812.8164
   -968472.67646   -754353.94543  23389803.1024                   23389803.6054
   -279806.07847   -220016.13744  22566692.5164                   22566690.7074
 11  8 12 18 24 30.0000000  0  8G07G08G11G13G19G23G24G28
    -53639.02347    -45352.37946  20351485.8524                   20351482.8404
   -956882.41447   -742374.90645  21280532.0634                   21280530.3484
   -701011.71947   -545077.18444  22006227.6954                   22006226.2894
   2497372.48447   1923140.59444  21992668.3054                   21992666.9264
   2094890.67647   1613198.02045  22109008.1174                   22109004.6884
   2900087.14846   2219742.73043  24018964.7734                   24018964.8054
  -1017381.98046   -792465.05943  23380495.8364                   23380496.6294
   -291650.22747   -229245.33244  22564438.5474                   22564436.3834
 11  8 12 18 25  0.0000000  0  8G07G08G11G13G19G23G24G28
    -52084.68747    -44141.21546  20351781.4304                   20351778.9024
   -999845.42647   -775852.56645  21272355.8914                   21272354.1254
   -729257.53547   -567086.89144  22000853.2664                   22000851.4184
   2618446.55547   2017483.90244  22015708.0084                   22015706.6804
   2198102.12947   1693622.48845  22128648.6174                   22128645.0234
   3037529.69546   2326840.53143  24045119.6644                   24045119.3324
  -1066166.16046   -830478.67643  23371211.7664                   23371212.7974
   -303358.40647   -238368.57844  22562210.9304                   22562209.3404
 11  8 12 18 25 30.0000000  0  8G07G08G11G13G19G23G24G28
    -50188.84847    -42663.94946  20352142.4224                   20352139.3594
  -1042653.32047   -809209.35245  21264209.7974                   21264208.1994
   -757100.50447   -588782.70744  21995554.7504                   21995552.8834
   2739800.83247   2112045.56644  22038800.2274                   22038799.8244
   2301685.98447   1774337.14545  22148359.9304                   22148356.1644
   3174983.87146   2433947.37143  24071276.3754                   24071276.6484
  -1114823.86746   -868393.75043  23361952.9384                   23361954.3834
   -314933.08647   -247387.81244  22560008.7814                   22560006.1374
 11  8 12 18 26  0.0000000  0  8G07G08G11G13G19G23G24G28
    -47955.82047    -40923.93746  20352567.0234                   20352564.8674
  -1085310.08647   -842448.38745  21256092.3054                   21256091.0594
   -784544.03147   -610167.25845  21990332.4144                   21990330.2114
   2861426.18047   2206818.46144  22061945.0784                   22061944.2544
   2405633.59847   1855335.23845  22168140.5554                   22168137.0704
   3312440.72346   2541056.33243  24097433.8284                   24097433.8204
  -1163358.05146   -906212.54343  23352716.1884                   23352718.3014
   -326381.73447   -256308.82844  22557829.5004                   22557827.5044
 11  8 12 18 26 30.0000000  0  8G07G08G11G13G19G23G24G28
    -45386.51647    -38921.89846  20353056.3754                   20353054.0944
  -1127816.85247   -875570.53145  21248003.6644                   21248001.8984
   -811588.39547   -631240.78145  21985186.2734                   21985183.8834
   2983316.75847   2301798.02744  22085140.0944                   22085139.4694
   2509939.16847   1936612.26645  22187989.3204                   22187986.1414
   3449894.57846   2648162.91443  24123590.7114                   24123590.8484
  -1211768.53946   -943934.96543  23343505.0554                   23343506.2894
   -337707.91047   -265134.41044  22555674.6484                   22555671.9224
 11  8 12 18 27  0.0000000  0  8G07G08G11G13G19G23G24G28
    -42484.23447    -36660.39146  20353608.1334                   20353605.6214
  -1170176.09047   -908577.72745  21239943.2194                   21239940.7504
   -838236.17247   -652005.26644  21980114.9224                   21980113.2814
   3105464.61347   2396978.07044  22108384.3054                   22108382.7344
   2614595.22747   2018162.39545  22207904.6884                   22207901.1914
   3587337.98046   2755261.37543  24149745.2424                   24149745.2664
  -1260057.12946   -981562.37543  23334315.3054                   23334317.0234
   -348917.41447   -273869.07844  22553541.9144                   22553539.2544
 11  8 12 18 27 30.0000000  0  8G07G08G11G13G19G23G24G28
    -39247.29747    -34138.11346  20354224.1174                   20354221.7584
  -1212385.88347   -941468.48045  21231910.4924                   21231909.1214
   -864485.02047   -672458.90644  21975119.7974                   21975118.0274
   3227866.68847   2492356.20344  22131676.1024                   22131675.6564
   2719598.60547   2099983.18045  22227886.6174                   22227882.6914
   3724768.07045   2862349.43043  24175897.7664                   24175897.8794
  -1308220.95346  -1019092.58243  23325150.1724                   23325152.5664
   -360011.40647   -282513.75444  22551430.5394                   22551427.9654
 11  8 12 18 28  0.0000000  0  9G17G07G08G11G13G19G23G24G28
   -110435.68756    -68160.86753  24477598.3984                   24477600.3634
    -35672.04347    -31352.21146  20354904.6414                   20354902.2774
  -1254441.89547   -974239.38345  21223907.7194                   21223906.0984
   -890329.93047   -692597.78145  21970201.8754                   21970199.8204
   3350521.68847   2587931.41044  22155016.9224                   22155016.1914
   2824948.46547   2182073.94945  22247933.7424                   22247930.6054
   3862183.56645   2969426.08642  24202047.0554                   24202047.7854
  -1356255.00046  -1056521.67243  23316010.2504                   23316010.7664
   -370988.71147   -291067.48844  22549341.3284                   22549338.7704
 11  8 12 18 28 30.0000000  0  9G17G07G08G11G13G19G23G24G28
   -191952.71946   -131680.48443  24462085.5784                   24462088.4454
    -31756.23847    -28300.94546  20355649.9534                   20355647.0084
  -1296341.53547  -1006888.44545  21215934.4774                   21215932.7074
   -915768.26247   -712419.84444  21965361.3674                   21965359.4494
   3473427.02347   2683701.69944  22178405.7664                   22178404.3164
   2930642.15247   2264432.62945  22268046.5634                   22268042.9884
   3999582.82045   3076490.11742  24228193.3754                   24228193.5314
  -1404155.74646  -1093846.84843  23306894.3914                   23306895.7854
   -381849.69147   -299530.59044  22547274.6804                   22547272.1054
 11  8 12 18 29  0.0000000  0  9G17G07G08G11G13G19G23G24G28
   -273370.03946   -195122.39843  24446593.7034                   24446595.0664
    -27498.30147    -24983.08646  20356459.7664                   20356457.1334
  -1338082.70747  -1039414.02045  21207991.5394                   21207989.8634
   -940797.39147   -731923.04745  21960598.2894                   21960596.4414
   3596579.62947   2779664.62944  22201841.0084                   22201839.8634
   3036677.24647   2347057.35545  22288224.6484                   22288220.5204
   4136962.211 5                  24254335.391
  -1451920.10546  -1131065.80543  23297805.3984                   23297806.3674
   -392595.51647   -307903.94944  22545230.0314                   22545227.5354
 11  8 12 18 29 30.0000000  0  9G17G07G08G11G13G19G23G24G28
   -354681.30146   -258481.67243  24431120.1724                   24431122.1804
    -22891.93747    -21393.71546  20357336.5234                   20357334.1724
  -1379658.73847  -1071810.91845  21200079.6414                   21200078.0314
   -965410.61747   -751102.16444  21955913.9774                   21955912.5824
   3719980.74247   2875821.23444  22225322.9454                   22225322.4344
   3143054.98847   2429949.07445  22308467.8054                   22308463.5864
   4274323.816 5                  24280474.813
  -1499540.72346  -1168172.69543  23288742.7584                   23288743.8364
   -403222.86747   -316184.98045  22543207.1024                   22543204.9064
 11  8 12 18 30  0.0000000  0  9G17G07G08G11G13G19G23G24G28
   -435889.78146   -321760.85243  24415667.2034                   24415668.7814
    -17940.49647    -17535.46946  20358278.9534                   20358276.3794
  -1421072.54747  -1104081.41045  21192198.9454                   21192197.1524
   -989610.59047   -769959.27745  21951309.3984                   21951307.5704
   3843622.19947   2972165.12144  22248851.8364                   22248850.4924
   3249767.66447   2513101.78545  22328774.0864                   22328770.3554
   4411659.707 5                  24306609.930
  -1547019.85546  -1205169.37543  23279708.5554                   23279709.2154
   -413737.73047   -324378.37545  22541206.1884                   22541204.1334
 11  8 12 18 30 30.0000000  0  9G17G07G08G11G13G19G23G24G28
   -516996.78546   -384960.98043  24400232.8914                   24400234.2664
    -12645.93047    -13409.84846  20359286.7584                   20359283.6254
  -1462325.59047  -1136226.64145  21184348.6724                   21184347.1844
  -1013398.35247   -788495.16844  21946782.8054                   21946781.0784
   3967497.51247   3068691.23044  22272424.0864                   22272423.1604
   3356809.02047   2596510.60545  22349143.8284                   22349139.1454
   4548963.40246   3504577.64553  24332738.1334                   24332736.8674
  -1594357.73846  -1242055.98443  23270700.0554                   23270701.3444
   -424144.23447   -332487.31645  22539226.1644                   22539224.2774
 11  8 12 18 31  0.0000000  0  9G17G07G08G11G13G19G23G24G28
   -597996.98446   -448077.91843  24384818.5474                   24384820.0004
     -7003.28147     -9012.99646  20360360.1564                   20360357.4804
  -1503412.45347  -1168242.37545  21176530.2894                   21176528.4734
  -1036768.31247   -806705.50845  21942335.1564                   21942334.0044
   4091606.70747   3165399.58244  22296041.2974                   22296041.0704
   3464179.03947   2680175.52745  22369575.2814                   22369571.3634
   4686235.79346   3611542.84843  24358861.1414                   24358860.1334
  -1641547.79346  -1278827.41843  23261720.8204                   23261721.6054
   -434440.18447   -340510.11345  22537266.8754                   22537264.6414
 11  8 12 18 31 30.0000000  0  9G17G07G08G11G13G19G23G24G28
   -678888.06246   -511109.82043  24369425.5864                   24369427.2894
     -1010.41047     -4343.23846  20361500.5314                   20361497.7034
  -1544330.53147  -1200126.59845  21168743.4534                   21168742.2854
  -1059717.47347   -824587.94945  21937968.6254                   21937966.4654
   4215946.94947   3262287.97344  22319702.7034                   22319701.7274
   3571875.52747   2764094.83245  22390069.0474                   22390065.2344
   4823474.02046   3718481.43843  24384976.7194                   24384976.3204
  -1688586.82046  -1315481.14143  23252768.8754                   23252770.4224
   -444626.25447   -348447.30144  22535328.8834                   22535325.8794
 11  8 12 18 32  0.0000000  0  9G17G07G08G11G13G19G23G24G28
   -759672.74246   -574058.82843  24354052.1334                   24354053.4534
      5329.59047       597.00846  20362707.0864                   20362704.8524
  -1585082.37147  -1231881.27045  21160988.6334                   21160987.4884
  -1082248.29347   -842144.40245  21933680.7664                   21933678.7894
   4340510.72747   3359350.53544  22343406.9844                   22343405.6334
   3679890.94947   2848262.65245  22410623.8134                   22410620.5234
   4960671.03546   3825387.91043  24411084.3284                   24411085.5084
  -1735476.52346  -1352018.53543  23243846.2114                   23243847.2074
   -454708.05147   -356303.22744  22533410.3054                   22533407.7194
 11  8 12 18 32 30.0000000  0  9G17G07G08G11G13G19G23G24G28
   -840341.69146   -636917.66443  24338701.3204                   24338703.4144
     12025.78947      5814.80546  20363981.2814                   20363978.6334
  -1625658.43047  -1263498.97745  21153267.8134                   21153265.4654
  -1104351.04347   -859367.32445  21929475.1024                   21929472.6644
   4465301.60547   3456590.07044  22367153.3284                   22367152.7034
   3788229.51246   2932682.26645  22431240.1564                   22431236.6724
   5097831.10546   3932265.56643  24437185.7424                   24437187.2234
  -1782206.44947  -1388431.43043  23234953.5084                   23234955.1844
   -464679.50847   -364073.17245  22531512.3984                   22531510.1094
 11  8 12 18 33  0.0000000  0  8G17G07G08G11G13G19G24G28
   -920896.26246   -699687.38343  24323372.1094                   24323373.8634
     19076.35247     11308.73846  20365323.0394                   20365320.7894
  -1666059.80147  -1294980.55545  21145579.4844                   21145577.4884
  -1126026.64547   -876257.37144  21925350.2734                   21925348.1454
   4590313.55947   3554001.85544  22390942.7194                   22390941.7704
   3896884.97347   3017348.81645  22451916.6564                   22451913.2234
  -1828777.02046  -1424720.15643  23226091.7034                   23226092.7544
   -474544.42247   -371760.10244  22529635.3834                   22529633.2114
 11  8 12 18 33 30.0000000  0  8G17G07G08G11G13G19G24G28
  -1001339.81646   -762370.53943  24308064.4144                   24308065.4224
     26477.77047     17076.05946  20366731.2344                   20366729.1954
  -1706289.39547  -1326328.29745  21137924.0164                   21137922.0984
  -1147278.33247   -892817.09444  21921306.2424                   21921304.4304
   4715538.45347   3651579.57844  22414771.8914                   22414771.6214
   4005848.89846   3102255.73445  22472651.8364                   22472648.3634
  -1875190.49246  -1460886.44543  23217259.4534                   23217259.4414
   -484309.36347   -379369.14545  22527777.1644                   22527774.5704
 11  8 12 18 34  0.0000000  0  8G17G07G08G11G13G19G24G28
  -1081671.42646   -824966.56643  24292778.1094                   24292778.8674
     34230.61347     23117.22346  20368206.8134                   20368204.3204
  -1746346.13747  -1357541.32845  21130301.9064                   21130300.3914
  -1168104.60247   -909045.34445  21917343.0944                   21917340.8674
   4840971.45347   3749319.46144  22438641.1254                   22438640.9144
   4115117.71147   3187400.21945  22493445.0314                   22493442.1094
  -1921444.85246  -1496928.77743  23208457.2584                   23208458.7114
   -493976.68047   -386902.10245  22525937.1724                   22525935.4184
 11  8 12 18 34 30.0000000  0  8G17G07G08G11G13G19G24G28
  -1161887.90646   -887472.84043  24277513.1954                   24277514.5594
     42337.66047     29434.38746  20369749.2034                   20369746.7234
  -1786226.78947  -1388617.15645  21122712.5864                   21122710.7154
  -1188502.09847   -924939.46945  21913461.3204                   21913459.1684
   4966610.91847   3847220.20744  22462550.2034                   22462549.6454
   4224689.97747   3272781.16045  22514296.0164                   22514292.9384
  -1967535.96546  -1532843.89543  23199686.8134                   23199687.6994
   -503545.75447   -394358.50844  22524116.5084                   22524114.4104
 11  8 12 18 35  0.0000000  0  8G17G07G08G11G13G19G24G28
  -1241982.97746   -949884.48843  24262271.5004                   24262272.8634
     50804.71547     36032.07046  20371360.7274                   20371358.2624
  -1825924.58247  -1419550.50045  21115158.2504                   21115156.1334
  -1208464.12547   -940494.27345  21909662.5394                   21909660.6334
   5092457.98847   3945282.72744  22486498.2664                   22486497.2584
   4334566.85547   3358399.45345  22535204.8674                   22535201.5864
  -2013456.34047  -1568625.98043  23190948.7894                   23190949.0864
   -513013.17647   -401735.72744  22522314.7274                   22522312.5234
 11  8 12 18 35 30.0000000  0  8G17G07G08G11G13G19G24G28
  -1321964.73446  -1012207.85243  24247050.7194                   24247052.2584
     59623.16447     42903.58646  20373038.9304                   20373036.1724
  -1865447.98447  -1450347.94145  21107637.0944                   21107635.2584
  -1227998.91847   -955716.17245  21905945.4614                   21905943.2274
   5218498.80947   4043496.23844  22510482.9454                   22510482.6294
   4444734.88747   3444244.62145  22556169.3674                   22556166.2504
  -2059213.57446  -1604280.91443  23182240.4694                   23182242.1684
   -522390.49647   -409042.71545  22520530.0784                   22520528.1214
 11  8 12 18 36  0.0000000  0  8G17G07G08G11G13G19G24G28
  -1401830.86746  -1074441.13343  24231852.9614                   24231854.5984
     68795.65247     50050.96146  20374784.3914                   20374781.9144
  -1904793.66847  -1481006.91446  21100150.1094                   21100147.9844
  -1247103.31247   -970602.69545  21902310.2734                   21902308.1294
   5344731.75047   4141859.43844  22534504.1094                   22534504.0474
   4555192.08247   3530315.10545  22577188.8054                   22577185.7114
  -2104803.49246  -1639805.47743  23173564.3834                   23173566.1174
   -531677.36747   -416279.22745  22518762.4064                   22518761.1414
 11  8 12 18 36 30.0000000  0  9G17G07G08G11G13G19G26G24G28
  -1481582.94946  -1136585.48843  24216676.3524                   24216677.8164
     78319.88347     57472.42646  20376596.9844                   20376594.2704
  -1943962.99647  -1511528.46545  21092696.1564                   21092694.5314
  -1265778.70747   -985154.91845  21898755.8914                   21898753.9104
   5471149.82847   4240366.89144  22558560.7664                   22558560.4454
   4665931.98447   3616605.90245  22598261.6484                   22598258.5594
    -69581.64516                  24268102.680
  -2150226.71546  -1675200.14543  23164921.2734                   23164922.4304
   -540879.00847   -423449.31245  22517012.3984                   22517009.2074
 11  8 12 18 37  0.0000000  0  9G17G07G08G11G13G19G26G24G28
  -1561222.83646  -1198642.46543  24201521.3204                   24201523.0784
     88193.35548     65166.03146  20378475.7034                   20378473.2774
  -1982957.89147  -1541914.08245  21085275.7194                   21085273.2034
  -1284026.87147   -999374.23845  21895283.6174                   21895281.5354
   5597745.43847   4339012.69144  22582650.8914                   22582651.2934
   4776947.67246   3703111.58244  22619387.5784                   22619383.7974
   -135735.01246    -98474.16052  24255514.3444                   24255514.3164
  -2195484.41446  -1710465.85543  23156309.1644                   23156310.6174
   -550000.33247   -430556.82845  22515276.8364                   22515273.9064
 11  8 12 18 37 30.0000000  0  9G17G07G08G11G13G19G26G24G28
  -1640766.37146  -1260624.34843  24186384.8754                   24186386.4654
     98399.98447     73119.23046  20380417.7584                   20380415.5744
  -2021793.69147  -1572175.75446  21077885.3754                   21077883.5824
  -1301863.45747  -1013272.85245  21891888.9774                   21891887.3594
   5724498.01247   4437780.79744  22606771.3284                   22606771.7734
   4888218.35946   3789815.96544  22640561.5314                   22640558.0904
   -201561.39846   -149767.34842  24242988.3984                   24242988.0164
  -2240591.12546  -1745613.86743  23147725.3524                   23147726.4494
   -559059.89547   -437616.22744  22513552.2274                   22513550.0864
 11  8 12 18 38  0.0000000  0  9G17G07G08G11G13G19G26G24G28
  -1720213.37146  -1322530.98043  24171266.0084                   24171268.3874
    108939.77747     81332.04346  20382423.8984                   20382420.8794
  -2060469.87547  -1602313.03146  21070525.6414                   21070523.8554
  -1319287.70347  -1026850.15645  21888573.2194                   21888571.3834
   5851402.66847   4536667.39844  22630921.3754                   22630920.6374
   4999739.62947   3876715.60945  22661783.5704                   22661779.8134
   -267059.83246   -200805.03142  24230524.6414                   24230523.8094
  -2285545.40646  -1780643.13343  23139170.8284                   23139172.1914
   -568060.09847   -444629.36345  22511839.9614                   22511837.4884
 11  8 12 18 38 30.0000000  0  9G17G07G08G11G13G19G26G24G28
  -1799563.22746  -1384361.91043  24156166.1414                   24156168.7034
    119812.89847     89804.59046  20384492.6334                   20384489.9734
  -2098985.66447  -1632325.33645  21063195.9534                   21063194.6374
  -1336299.11347  -1040105.78145  21885336.6254                   21885334.7304
   5978455.35247   4635669.35244  22655097.9144                   22655098.1804
   5111507.01247   3963807.05144  22683051.5004                   22683048.4804
   -332228.78946   -251586.00442  24218122.9064                   24218123.2504
  -2330345.69946  -1815552.37543  23130645.3754                   23130646.7734
   -577003.36347   -451598.12945  22510138.2894                   22510135.8444
 11  8 12 18 39  0.0000000  0  9G17G07G08G11G13G19G26G24G28
  -1878814.85245  -1446116.29743  24141084.9304                   24141087.2664
    131020.03947     98537.41046  20386625.4694                   20386622.5784
  -2137339.08647  -1662211.12546  21055897.9534                   21055895.8754
  -1352896.27747  -1053038.59445  21882178.1414                   21882176.2034
   6105651.36347   4734783.00444  22679303.0704                   22679302.9064
   5223516.88747   4051087.43045  22704366.6174                   22704363.6334
   -397066.30945   -302108.66042  24205784.5634                   24205784.1994
  -2374990.11346  -1850340.15644  23122149.9774                   23122150.3164
   -585891.72747   -458524.12145  22508446.6884                   22508444.3674
 11  8 12 18 39 30.0000000  0  9G17G07G08G11G13G19G26G24G28
  -1957961.54346  -1507788.89143  24126023.8754                   24126025.9304
    142567.62547    107535.51646  20388822.8364                   20388820.1174
  -2175523.43447  -1691965.15245  21048631.8754                   21048629.9574
  -1369072.20747  -1065643.21145  21879099.5704                   21879097.7774
   6232992.64547   4834009.84044  22703535.5084                   22703534.6604
   5335771.34446   4138558.40245  22725728.5704                   22725724.8984
   -461565.39146   -352367.61342  24193510.1024                   24193510.9694
  -2419470.50446  -1885000.16443  23113686.4454                   23113686.2624
   -594721.18047   -465404.19945  22506766.7814                   22506764.1844
 11  8 12 18 40  0.0000000  0  9G17G07G08G11G13G19G26G24G28
  -2037010.43446  -1569385.28543  24110982.1484                   24110982.9384
    154447.80147    116792.78146  20391083.5474                   20391080.6414
  -2213545.82447  -1721592.98845  21041396.4454                   21041394.5044
  -1384833.82447  -1077924.96145  21876100.0234                   21876098.3954
   6360467.04347   4933340.39844  22727792.7894                   22727792.7274
   5448258.06647   4226210.35245  22747133.5554                   22747130.0204
   -525732.16046   -402367.61742  24181299.5704                   24181300.6994
  -2463793.39846  -1919537.41443  23105251.5234                   23105252.5234
   -603501.68047   -472246.14544  22505095.3444                   22505092.9804
 11  8 12 18 40 30.0000000  0  9G17G07G08G11G13G19G26G24G28
  -2115959.57046  -1630903.97743  24095958.1804                   24095959.2974
    166662.32847    126310.57846  20393407.9144                   20393405.0204
  -2251403.52347  -1751092.49245  21034192.0234                   21034190.1334
  -1400179.30947  -1089882.46945  21873180.7194                   21873178.3954
   6488070.98847   5032771.91044  22752075.5314                   22752074.8404
   5560974.18046   4314041.07044  22768582.3834                   22768579.4574
   -589563.91846   -452106.59043  24169153.2424                   24169154.0554
  -2507955.50446  -1953949.39544  23096847.4064                   23096848.3404
   -612234.59047   -479051.00444  22503433.4844                   22503431.5124
 11  8 12 18 41  0.0000000  0  9G17G07G08G11G13G19G26G24G28
  -2194802.36746  -1692339.81243  24080954.7894                   24080955.8484
    179217.29747    136093.65246  20395796.9064                   20395794.4654
  -2289089.81247  -1780458.43445  21027020.9614                   21027018.9184
  -1415101.86747  -1101510.41845  21870340.3364                   21870338.3714
   6615806.22747   5132305.71143  22776382.9844                   22776381.9144
   5673921.77747   4402052.15244  22790076.4144                   22790072.2154
   -653053.24646   -501578.71143  24157072.0234                   24157071.5704
  -2551949.21546  -1988230.16443  23088475.3204                   23088476.8834
   -620915.86347   -485815.62545  22501781.6564                   22501779.3794
 11  8 12 18 41 30.0000000  0  9G17G07G08G11G13G19G26G24G28
  -2273536.28946  -1753690.80943  24065972.0634                   24065973.1564
    192115.25048    146143.98846  20398251.6954                   20398249.0904
  -2326601.43747  -1809688.26646  21019882.3054                   21019880.8754
  -1429598.29347  -1112806.31645  21867582.0314                   21867579.9344
   6743670.43847   5231940.00444  22800714.8674                   22800714.3484
   5787098.52747   4490241.80945  22811612.8054                   22811609.2734
   -716196.62146   -550781.30543  24145055.4614                   24145055.5944
  -2595770.40646  -2022376.49644  23080136.9924                   23080138.1604
   -629545.24647   -492539.80545  22500139.4534                   22500136.8204
 11  8 12 18 42  0.0000000  0  9G17G07G08G11G13G19G26G24G28
  -2352153.80146  -1814951.09843  24051011.8444                   24051012.2194
    205362.85547    156466.77746  20400772.3754                   20400769.9574
  -2363930.73047  -1838776.03946  21012779.0944                   21012777.0164
  -1443661.44947  -1123764.60245  21864905.9304                   21864904.3984
   6871666.15647   5331676.79344  22825072.2344                   22825071.2154
   5900506.75046   4578611.81645  22833194.2584                   22833190.6174
   -778986.18046   -599708.15643  24133106.2814                   24133106.4534
  -2639411.03746  -2056382.13044  23071832.2974                   23071833.3484
   -638118.86347   -499220.54345  22498507.4454                   22498505.5314
 11  8 12 18 42 30.0000000  0  9G17G07G08G11G13G19G26G24G28
  -2430658.04346  -1876123.14543  24036073.1954                   24036073.9184
    218956.74647    167059.40246  20403359.2034                   20403356.5784
  -2401080.09447  -1867723.59045  21005709.7814                   21005707.8164
  -1457293.98447  -1134387.34045  21862312.1024                   21862310.2584
   6999785.02747   5431509.52344  22849451.9384                   22849451.4614
   6014138.71546   4667156.18444  22854816.7894                   22854813.7664
   -841424.09046   -648360.98443  24121225.3204                   24121225.5274
  -2682872.93746  -2090248.52744  23063561.8134                   23063562.2584
   -646642.38747   -505862.23044  22496885.9774                   22496883.4924
 11  8 12 18 43  0.0000000  0  9G17G07G08G11G13G19G26G24G28
  -2509042.80146  -1937202.07043  24021156.5864                   24021156.6994
    232902.80147    177926.43446  20406013.1174                   20406010.8714
  -2438043.05147  -1896525.89545  20998676.0084                   20998673.6484
  -1470489.87147  -1144669.83645  21859800.4774                   21859798.7464
   7128028.04747   5531438.99644  22873855.5704                   22873855.7194
   6127995.87546   4755876.00844  22876483.7504                   22876480.0704
   -903503.13346   -696734.21543  24109412.0394                   24109412.5744
  -2726148.69146  -2123969.82843  23055326.5474                   23055327.2504
   -655112.47347   -512462.28945  22495273.6564                   22495271.6254
 11  8 12 18 43 30.0000000  0  9G17G07G08G11G13G19G26G24G28
  -2587310.28946  -1998189.60543  24006262.2734                   24006263.5634
    247198.39547    189065.84446  20408733.5314                   20408730.5124
  -2474821.45747  -1925184.39845  20991677.4454                   20991675.7234
  -1483251.22747  -1154613.72345  21857372.2034                   21857370.4844
   7256388.22747   5631459.73844  22898281.2974                   22898281.3834
   6242071.19547   4844765.83644  22898191.2584                   22898188.4774
   -965225.21546   -744829.27043  24097666.7274                   24097667.4104
  -2769239.49247  -2157547.03544  23047126.8054                   23047127.8054
   -663534.43447   -519024.84045  22493671.2344                   22493669.1914
 11  8 12 18 44  0.0000000  0  9G17G07G08G11G13G19G26G24G28
  -2665462.45746  -2059087.27043  23991390.6174                   23991391.6764
    261840.84447    200475.52746  20411520.2504                   20411517.5314
  -2511417.16847  -1953700.53146  20984712.9694                   20984711.5824
  -1495579.91447  -1164220.46945  21855026.1564                   21855024.3484
   7384858.36347   5731566.18444  22922729.1414                   22922729.0044
   6356357.62147   4933820.15244  22919939.3284                   22919935.8834
  -1026591.44946   -792647.05543  24085989.0554                   24085989.9964
  -2812146.13746  -2190980.74243  23038961.4454                   23038962.6844
   -671912.78547   -525553.41045  22492076.9774                   22492074.8324
 11  8 12 18 44 30.0000000  0  9G17G07G08G11G13G19G26G24G28
  -2743485.14546  -2119884.06644  23976542.7974                   23976544.5864
    276844.22747    212166.45746  20414375.0394                   20414372.5514
  -2547815.02047  -1982062.50045  20977787.3134                   20977785.6334
  -1507461.47347  -1173478.80545  21852765.3594                   21852763.2504
   7513447.62146   5831765.44544  22947199.1804                   22947199.5944
   6470865.16847   5023046.77744  22941729.2194                   22941725.9494
  -1087587.10946   -840176.06643  24074382.3984                   24074382.5634
  -2854853.46546  -2224259.11743  23030834.8914                   23030835.7074
   -680235.91047   -532038.94945  22490493.4224                   22490491.0234
 11  8 12 18 45  0.0000000  0  9G17G07G08G11G13G19G26G24G28
  -2821380.70346  -2180581.77343  23961719.9924                   23961721.2344
    292205.76247    224136.46546  20417298.0004                   20417295.6724
  -2584017.02047  -2010271.85545  20970897.7194                   20970896.2584
  -1518898.41447  -1182390.68045  21850588.8204                   21850586.4104
   7642148.77047   5932051.85943  22971689.4924                   22971689.7774
   6585586.35547   5112439.87144  22963560.2194                   22963556.5514
  -1148213.55946   -887417.37943  24062844.6804                   24062845.5274
  -2897362.67246  -2257383.14143  23022745.3364                   23022745.5904
   -688509.35247   -538485.78545  22488918.7584                   22488916.9384
 11  8 12 18 45 30.0000000  0  9G17G07G08G11G13G19G26G24G28
  -2899144.92646  -2241177.18043  23946921.6334                   23946922.4884
    307928.73847    236388.12546  20420289.7034                   20420287.1884
  -2620018.85247  -2038325.22745  20964046.7584                   20964045.1134
  -1529886.74647  -1190952.99245  21848497.1564                   21848495.4694
   7770960.70747   6032424.63743  22996202.5234                   22996202.4734
   6700520.53146   5201998.92644  22985431.7974                   22985428.2704
  -1208466.21946   -934367.44943  24051379.1724                   24051379.4844
  -2939668.70346  -2290348.82443  23014694.6174                   23014695.2894
   -696731.97747   -544893.02345  22487354.4774                   22487351.5744
 11  8 12 18 46  0.0000000  0  9G17G07G08G11G13G19G26G24G28
  -2976779.70746  -2301671.69543  23932148.7814                   23932148.8204
    324011.45347    248920.08646  20423350.4924                   20423347.9804
  -2655821.20747  -2066223.16846  20957234.2504                   20957232.1024
  -1540427.68047  -1199166.68445  21846492.1174                   21846489.4224
   7899876.93447   6132878.65244  23020734.5784                   23020734.2304
   6815661.37546   5291719.02044  23007342.2814                   23007338.5204
  -1268345.76646   -981026.74242  24039983.2504                   24039984.3164
  -2981771.71946  -2323156.29343  23006682.8524                   23006683.2894
   -704907.81647   -551263.80545  22485798.7974                   22485796.0394
 11  8 12 18 46 30.0000000  0  9G17G07G08G11G13G19G26G24G28
  -3054281.07846  -2362062.23443  23917400.1884                   23917401.1254
    340457.06647    261734.84046  20426480.1024                   20426477.4144
  -2691419.88747  -2093962.40246  20950459.5234                   20950458.0234
  -1550517.68447  -1207029.00445  21844571.6024                   21844569.7074
   8028896.23047   6233413.00444  23045286.6644                   23045286.0394
   6931007.57446   5381599.11344  23029291.7344                   23029288.8484
  -1327847.94146  -1027392.02343  24028660.4694                   24028661.9694
  -3023667.09246  -2355801.98743  22998710.5314                   22998710.7304
   -713036.07047   -557597.50045  22484251.4924                   22484249.1174
 11  8 12 18 47  0.0000000  0  9G17G07G08G11G13G19G26G24G28
  -3131645.93446  -2422346.43743  23902677.9614                   23902679.1914
    357268.22347    274834.42246  20429678.9384                   20429676.8404
  -2726811.53147  -2121540.30546  20943725.2114                   20943723.5164
  -1560153.53947  -1214537.43445  21842738.1414                   21842736.1724
   8158016.71947   6334026.19543  23069857.0234                   23069856.9694
   7046558.12146   5471638.44544  23051280.7034                   23051277.4144
  -1386968.60246  -1073460.00842  24017411.4844                   24017411.4924
  -3065350.49246  -2388282.48443  22990777.2814                   22990779.1294
   -721116.10547   -563893.62945  22482714.3834                   22482711.2814
 11  8 12 18 54 30.0000000  0  9G17G07G08G11G19G13G24G26G28
  -1638582.41456  -1270184.80154  23385611.6024                   23385612.3524
  -1551340.62557   -935893.37556  20186599.7194                   20186597.5164
  -1610322.52357  -3373840.79356  20548151.8674                   20548149.8524
  -1578481.57057  -2444756.41055  21526241.2194                   21526239.3674
  -1476066.46556  -1160554.13354  23085807.9224                   23085805.0354
  -1447112.35956  -1155439.42653  23140738.9774                   23140739.5864
  -1607603.79356  -1249454.32054  22577429.7664                   22577429.7664
  -1619996.85556  -1257570.69153  23558099.1724                   23558098.4024
  -1583835.64857  -1797410.67255  22161040.5704                   22161038.2344
 11  8 12 18 55  0.0000000  0  9G17G07G08G11G19G13G24G26G28
  -1713712.53146  -1328727.65244  23371314.9454                   23371315.4144
  -1528695.75847   -918248.05146  20190909.1254                   20190907.0704
  -1642273.55547  -3398737.69546  20542071.6724                   20542069.3874
  -1580814.18047  -2446574.01245  21525797.3594                   21525795.3364
  -1357838.90246  -1068428.82844  23108306.7194                   23108302.1764
  -1316995.73046  -1054050.05143  23165499.2114                   23165499.8444
  -1645692.89846  -1279134.08644  22570181.4064                   22570182.6524
  -1672875.72346  -1298775.00443  23548036.3984                   23548037.0314
  -1591467.14847  -1803357.29345  22159588.0634                   22159586.0554
 11  8 12 18 55 30.0000000  0  9G17G07G08G11G19G13G24G26G28
  -1788794.97746  -1387233.35544  23357027.0394                   23357027.9064
  -1505782.84447   -900393.86346  20195269.9064                   20195267.0984
  -1674096.17647  -3423534.54346  20536016.2424                   20536014.0554
  -1582783.51247  -2448108.53945  21525422.3364                   21525420.1134
  -1239575.32846   -976275.44544  23130811.0394                   23130807.3284
  -1186950.52046   -952716.32043  23190246.0004                   23190247.1604
  -1683639.73046  -1308702.97744  22562960.4064                   22562960.2424
  -1725451.07046  -1339742.75443  23538031.5084                   23538031.3204
  -1599185.12147  -1809371.28545  22158119.5944                   22158116.9734
 11  8 12 18 56  0.0000000  0  9G17G07G08G11G19G13G24G26G28
  -1863799.88346  -1445678.66444  23342754.1254                   23342754.8794
  -1482572.75847   -882308.11746  20199686.3054                   20199683.7274
  -1705760.38348  -3448207.94946  20529990.3284                   20529988.7814
  -1584360.64547  -2449337.46145  21525122.9144                   21525120.3164
  -1121250.56646   -884074.38744  23153327.7894                   23153323.9144
  -1056952.07046   -851419.05143  23214984.3134                   23214984.8324
  -1721413.67646  -1338137.16444  22555771.6884                   22555772.0274
  -1777693.07446  -1380450.76243  23528090.1564                   23528090.0784
  -1606962.57447  -1815431.62945  22156639.4304                   22156637.0164
 11  8 12 18 56 30.0000000  0  9G17G07G08G11G19G13G24G26G28
  -1938708.66047  -1504049.04344  23328499.3444                   23328499.8554
  -1459047.28947   -863976.60546  20204162.9454                   20204160.6484
  -1737246.65647  -3472742.71146  20523998.6884                   20523996.6374
  -1585527.05147  -2450246.32845  21524900.4534                   21524898.0554
  -1002850.56246   -791814.71144  23175858.1884                   23175854.8244
   -926985.83646   -750146.86743  23239716.1954                   23239717.1484
  -1758994.86746  -1367421.14843  22548620.7034                   22548621.5704
  -1829581.93746  -1420883.56643  23518215.7584                   23518215.8284
  -1614783.03547  -1821525.48845  22155150.6564                   22155148.9064
 11  8 12 18 57  0.0000000  0  9G17G07G08G11G19G13G24G26G28
  -2013512.25447  -1562337.46544  23314264.8054                   23314264.8324
  -1435197.75047   -845392.57046  20208701.5234                   20208698.8874
  -1768545.09047  -3497131.09846  20518042.5234                   20518040.7814
  -1586273.66447  -2450828.08645  21524758.8204                   21524756.0904
   -884370.62546   -699492.74244  23198404.4844                   23198400.8164
   -797047.55546   -648896.45743  23264443.2034                   23264444.3244
  -1796372.73846  -1396546.71544  22541507.2814                   22541508.3714
  -1881107.89846  -1461033.62143  23508411.2274                   23508410.3094
  -1622640.31647  -1827648.04345  22153656.3444                   22153653.6374
 11  8 12 18 57 30.0000000  0  9G17G07G08G11G19G13G24G26G28
  -2088206.28547  -1620540.54744  23300050.2974                   23300051.5704
  -1411020.35547   -826553.06646  20213302.4534                   20213299.5784
  -1799650.63747  -3521369.18046  20512123.6414                   20512121.6134
  -1586596.96147  -2451079.98845  21524696.5864                   21524694.8794
   -765811.40246   -607108.99644  23220964.7344                   23220961.4264
   -667138.15246   -547668.53543  23289164.1804                   23289164.4224
  -1833542.14846  -1425509.84044  22534434.4694                   22534434.8244
  -1932266.42646  -1500897.33643  23498675.6884                   23498675.5744
  -1630532.74647  -1833797.98045  22152154.1094                   22152151.5274
 11  8 12 18 58  0.0000000  0  9G17G07G08G11G19G13G24G26G28
  -2162792.70747  -1678659.76644  23285857.7114                   23285857.9454
  -1386517.76247   -807460.16446  20217964.8524                   20217962.5204
  -1830564.63347  -3545458.00846  20506240.4384                   20506239.0164
  -1586498.81247  -2451003.48845  21524715.8594                   21524713.4844
   -647178.57046   -514667.89544  23243540.0474                   23243537.4384
   -537264.24246   -446468.29743  23313878.9924                   23313879.1054
  -1870503.78146  -1454311.05144  22527400.4614                   22527401.5164
  -1983058.81646  -1540475.78943  23489009.7814                   23489010.2304
  -1638464.55947  -1839978.60245  22150644.8284                   22150642.2624
 11  8 12 18 58 30.0000000  0  9G17G07G08G11G19G13G24G26G28
  -2237268.21946  -1736692.55544  23271684.8444                   23271685.9774
  -1361687.39147   -788111.84846  20222690.1334                   20222687.1764
  -1861283.09047  -3569394.46946  20500394.7114                   20500393.5984
  -1585976.61347  -2450596.56245  21524814.9454                   21524813.0784
   -528473.91046   -422170.77044  23266129.0474                   23266125.8754
   -407427.19546   -345296.78543  23338584.7974                   23338586.8444
  -1907253.39546  -1482947.05544  22520407.3364                   22520408.1254
  -2033481.15246  -1579765.89843  23479414.5474                   23479415.1724
  -1646435.32447  -1846189.57445  22149128.1174                   22149125.5044
 11  8 12 18 59  0.0000000  0  9G17G07G08G11G19G13G24G26G28
  -2311628.47746  -1794635.54744  23257534.8914                   23257534.6684
  -1336525.34047   -768505.09046  20227477.6954                   20227475.6804
  -1891800.69147  -3593174.42646  20494588.2584                   20494586.1644
  -1585026.07047  -2449855.87145  21524995.4844                   21524993.4304
   -409697.26246   -329617.59444  23288730.8914                   23288728.8714
   -277627.77046   -244154.60543  23363286.5554                   23363286.4654
  -1943785.48446  -1511413.54744  22513455.3914                   22513456.3524
  -2083528.72346  -1618763.97743  23469890.6414                   23469891.2074
  -1654443.02747  -1852429.34045  22147604.0004                   22147601.8244
 11  8 12 18 59 30.0000000  0  9G17G07G08G11G19G13G24G26G28
  -2385873.10246  -1852488.43444  23243406.2274                   23243406.5204
  -1311032.02747   -748640.19946  20232329.5314                   20232326.8484
  -1922116.60947  -3616797.21946  20488818.9064                   20488816.8984
  -1583647.36747  -2448781.55145  21525257.9534                   21525256.2304
   -290853.18746   -237011.85544  23311346.4614                   23311344.0354
   -147870.12146   -143044.93443  23387978.9534                   23387979.2384
  -1980098.60246  -1539709.43444  22506545.2894                   22506545.9804
  -2133200.62146  -1657469.34043  23460438.9224                   23460438.7624
  -1662489.88347  -1858699.61345  22146073.0084                   22146070.8284
 11  8 12 19  0  0.0000000  0  9G17G07G08G11G19G13G24G26G28
  -2460007.62946  -1910255.52344  23229298.6094                   23229299.3244
  -1285213.57447   -728521.94946  20237242.3524                   20237239.9964
  -1952235.84447  -3640266.75846  20483087.4454                   20483086.2234
  -1581846.33647  -2447378.12945  21525600.9454                   21525599.0124
   -171951.36746   -144361.13743  23333972.8984                   23333969.6644
    -18164.37946    -41975.76243  23412660.1804                   23412662.0664
  -2016197.11347  -1567838.09443  22499675.8914                   22499676.1294
  -2182501.91846  -1695885.89843  23451056.7894                   23451056.3594
  -1670583.89847  -1865006.62945  22144532.7424                   22144530.4344
 11  8 12 19  0 30.0000000  0  9G17G07G08G11G19G13G24G26G28
  -2534027.11747  -1967932.99644  23215213.6334                   23215214.3484
  -1259065.54347   -708146.88346  20242218.3134                   20242216.0004
  -1982152.35947  -3663578.33246  20477393.7114                   20477392.6214
  -1579618.65247  -2445642.27045  21526024.7664                   21526022.8324
    -52991.36746    -51665.08244  23356609.8444                   23356607.7344
    111489.57046     59053.08643  23437332.9534                   23437334.6134
  -2052074.79747  -1595794.68044  22492848.3914                   22492849.0634
  -2231427.01646  -1734009.33243  23441747.0164                   23441747.0394
  -1678722.49247  -1871348.38745  22142984.3444                   22142981.3164
 11  8 12 19  1  0.0000000  0  9G17G07G08G11G19G13G24G26G28
  -2607927.12146  -2025517.34044  23201151.0634                   23201150.8054
  -1232583.93047   -687511.88346  20247257.7504                   20247255.4964
  -2011860.59847  -3686727.60946  20471741.0634                   20471739.5354
  -1576959.86747  -2443570.47745  21526531.0164                   21526529.0204
     66027.32046     41076.71143  23379259.2814                   23379256.0594
    241091.37146    160041.24643  23461995.1884                   23461997.4964
  -2087726.17647  -1623574.93744  22486064.8134                   22486064.7344
  -2279970.90646  -1771835.69943  23432509.1334                   23432509.1844
  -1686903.52347  -1877723.21145  22141427.1724                   22141424.9224
 11  8 12 19  1 30.0000000  0  9G17G07G08G11G19G13G24G26G28
  -2681708.12946  -2083008.96544  23187109.8984                   23187111.0944
  -1205769.91847   -666617.88346  20252359.9694                   20252357.7304
  -2041360.66448  -3709714.67646  20466127.6954                   20466126.0004
  -1573871.23847  -2441163.74645  21527118.4304                   21527116.4654
    185098.67646    133859.52044  23401916.8984                   23401913.6994
    370635.97346    260984.87943  23486647.0944                   23486649.2304
  -2123150.65647  -1651178.38344  22479324.1174                   22479324.0204
  -2328133.68046  -1809365.10543  23423344.7344                   23423344.8324
  -1695130.36347  -1884133.74245  22139861.9064                   22139859.2304
 11  8 12 19  2  0.0000000  0  9G17G07G08G11G19G13G24G26G28
  -2755368.23446  -2140406.39144  23173093.5704                   23173094.0784
  -1178622.64847   -645464.18746  20257526.0164                   20257523.7034
  -2070650.39847  -3732537.84846  20460553.7734                   20460551.9064
  -1570351.67247  -2438421.21145  21527787.8984                   21527786.3874
    304221.04346    226682.10943  23424586.0554                   23424582.6294
    500120.21946    361881.44142  23511286.5004                   23511288.9654
  -2158345.56647  -1678602.92244  22472626.0004                   22472626.5274
  -2375913.25046  -1846595.91043  23414252.1564                   23414252.1604
  -1703403.66047  -1890580.46945  22138287.3204                   22138284.9964
 11  8 12 19  2 30.0000000  0  9G17G07G08G11G19G13G24G26G28
  -2828910.25046  -2197711.79344  23159098.3914                   23159099.0164
  -1151145.35247   -624053.33646  20262755.3914                   20262752.9964
  -2099731.75448  -3755198.64146  20455020.2734                   20455017.9064
  -1566404.08247  -2435345.16045  21528539.2734                   21528537.2854
    423386.98046    319538.64844  23447263.5164                   23447259.7854
    629536.66046    462725.19942  23535914.8054                   23535915.7344
  -2193312.47747  -1705849.79744  22465972.0864                   22465972.6884
  -2423311.81246  -1883529.82843  23405232.2424                   23405232.8244
  -1711728.60547  -1897067.43445  22136703.4144                   22136701.3244
 11  8 12 19  3  0.0000000  0  9G17G07G08G11G19G13G24G26G28
  -2902331.43746  -2254923.01644  23145127.1094                   23145128.2344
  -1123335.83247   -602383.60246  20268046.7974                   20268044.6134
  -2128601.04348  -3777694.18446  20449526.2974                   20449524.6884
  -1562026.10547  -2431933.74245  21529373.0084                   21529370.2384
    542595.15246    412428.09044  23469946.0634                   23469943.8244
    758883.74246    563514.92642  23560528.9774                   23560529.5434
  -2228047.30147  -1732915.83644  22459361.9224                   22459362.8484
  -2470325.96946  -1920164.21943  23396285.9224                   23396285.9384
  -1720104.51247  -1903594.11345  22135109.3674                   22135106.8594
 11  8 12 19  3 30.0000000  0  9G17G07G08G11G19G13G24G26G28
  -2975624.04746  -2312034.06644  23131179.8524                   23131180.2034
  -1095187.11347   -580449.56646  20273403.6484                   20273401.4064
  -2157249.53948  -3800017.69146  20444074.9534                   20444072.8284
  -1557210.46147  -2428181.27745  21530288.8204                   21530286.7304
    661848.57446    505352.77344  23492639.2114                   23492636.5554
    888164.53146    664252.94143  23585130.1804                   23585131.0704
  -2262541.11347  -1759794.06644  22452798.0474                   22452798.4964
  -2516947.77346  -1956492.84843  23387413.9534                   23387413.3794
  -1728525.97347  -1910156.28545  22133506.6094                   22133504.4494
 11  8 12 19  4  0.0000000  0  9G17G07G08G11G19G13G24G26G28
  -3048792.75446  -2369048.55144  23117256.5004                   23117256.6844
  -1066704.41047   -558255.27346  20278823.1724                   20278820.6054
  -2185680.95347  -3822172.03946  20438664.0944                   20438662.3834
  -1551962.66847  -2424092.07845  21531287.0314                   21531285.3674
    781138.45346    598305.89544  23515341.1024                   23515336.7194
   1017369.73446    764932.10243  23609716.8204                   23609718.4384
  -2296797.44947  -1786487.26244  22446279.0394                   22446279.8984
  -2563181.06646  -1992518.77343  23378616.0394                   23378615.7774
  -1737000.29347  -1916759.64845  22131894.1884                   22131891.5664
 11  8 12 19  4 30.0000000  0  9G17G07G08G11G19G13G24G26G28
  -3121829.99646  -2425960.61744  23103358.2034                   23103358.3484
  -1037880.73847   -535795.29346  20284308.4534                   20284305.7154
  -2213886.98447  -3844150.76246  20433297.2894                   20433295.0084
  -1546275.22747  -2419660.30945  21532369.5554                   21532367.5984
    900467.75046    691289.70344  23538048.7194                   23538045.5704
   1146502.30146    865554.73043  23634290.7734                   23634292.0944
  -2330807.80147  -1812988.77344  22439806.9224                   22439807.7814
  -2609017.96146  -2028235.80143  23369893.3754                   23369893.7074
  -1745522.05147  -1923399.97345  22130272.5634                   22130270.0634
 11  8 12 19  5  0.0000000  0  9G17G07G08G11G19G13G24G26G28
  -3194735.36347  -2482769.90644  23089484.3914                   23089484.3834
  -1008716.89847   -513070.25046  20289858.1334                   20289855.7424
  -2241867.04348  -3865953.40646  20427972.2504                   20427970.7034
  -1540148.57447  -2414886.28545  21533535.8674                   21533533.7814
   1019832.81646    784301.40244  23560762.3914                   23560760.0164
   1275557.57446    966117.05543  23658848.6564                   23658850.4574
  -2364570.93447  -1839297.64144  22433382.2894                   22433382.6644
  -2654458.06246  -2063643.65243  23361246.5634                   23361247.1604
  -1754093.80547  -1930079.25445  22128641.2034                   22128638.8134
 11  8 12 19  5 30.0000000  0  9G17G07G08G11G19G13G24G26G28
  -3267502.16446  -2539471.22744  23075637.3984                   23075637.4454
   -979206.99247   -490075.53946  20295474.1024                   20295471.1764
  -2269613.54348  -3887574.06246  20422692.3834                   20422690.7154
  -1533577.09047  -2409765.64145  21534786.0784                   21534784.3054
   1139235.50446    877342.41444  23583483.5234                   23583480.3054
   1404537.45346   1066620.61743  23683393.0634                   23683394.8014
  -2398079.07447  -1865407.81244  22427005.0634                   22427006.9384
  -2699494.46546  -2098736.89843  23352676.5704                   23352677.0554
  -1762711.14847  -1936794.06645  22127001.6484                   22126998.8874
 11  8 12 19  6  0.0000000  0  9G17G07G08G11G19G13G24G26G28
  -3340128.59846  -2596063.18044  23061816.9224                   23061817.0944
   -949349.36747   -466809.87546  20301155.7194                   20301153.1484
  -2297123.22348  -3909010.17646  20417457.7194                   20417455.5704
  -1526558.96947  -2404296.96945  21536121.5784                   21536119.9924
   1258673.84446    970411.17644  23606212.2894                   23606210.3834
   1533439.77746   1167063.72743  23707922.6884                   23707924.6374
  -2431328.91847  -1891316.73044  22420678.5004                   22420679.0044
  -2744124.41846  -2133513.47743  23344183.6254                   23344183.8914
  -1771374.53547  -1943544.75045  22125353.3054                   22125350.1684
 11  8 12 19  6 30.0000000  0  9G17G07G08G11G19G13G24G26G28
  -3412610.14846  -2652542.20744  23048023.5004                   23048024.4224
   -919140.28947   -443270.35246  20306904.2194                   20306901.7934
  -2324391.11748  -3930257.89146  20412268.3444                   20412266.7774
  -1519090.57847  -2398477.44145  21537542.9384                   21537541.1054
   1378148.00846   1063507.89144  23628948.1094                   23628945.5984
   1662264.49246   1267446.37943  23732437.6644                   23732439.7774
  -2464315.04347  -1917020.13344  22414401.4384                   22414402.0314
  -2788343.25846  -2167969.66443  23335769.0944                   23335769.3404
  -1780081.25447  -1950329.20345  22123695.8054                   22123693.7384
 11  8 12 19  7  0.0000000  0  9G17G07G08G11G19G13G24G26G28
  -3484940.41046  -2708903.35944  23034259.7034                   23034260.2734
   -888573.87947   -419452.39146  20312720.8284                   20312718.3714
  -2351410.03948  -3951311.59446  20407127.1414                   20407125.5084
  -1511165.79347  -2392302.27045  21539050.8284                   21539048.8324
   1497660.24346   1156634.24144  23651690.0704                   23651687.4804
   1791013.22346   1367769.78943  23756937.5864                   23756940.2034
  -2497030.10247  -1942512.31644  22408176.0474                   22408176.6644
  -2832143.94946  -2202100.05543  23327434.5784                   23327433.9144
  -1788827.70347  -1957144.61745  22122031.9384                   22122029.5084
 11  8 12 19  7 30.0000000  0  9G17G07G08G11G19G13G24G26G28
  -3557108.25046  -2765137.95744  23020526.8134                   23020527.6454
   -857640.02347   -395348.10246  20318607.5004                   20318604.7854
  -2378167.74248  -3972161.75446  20402035.3754                   20402033.0274
  -1502774.38747  -2385763.50445  21540648.0234                   21540645.9804
   1617217.10546   1249795.36743  23674440.8364                   23674438.3954
   1919692.82446   1468039.34843  23781424.3754                   23781427.1024
  -2529461.57847  -1967783.52744  22402004.7424                   22402004.9104
  -2875515.12146  -2235895.74243  23319181.1334                   23319180.4414
  -1797604.74647  -1963983.86345  22120361.5554                   22120359.0664
 11  8 12 19  8  0.0000000  0  9G17G07G08G11G19G13G24G26G28
  -3629111.44546  -2821244.24244  23006825.5704                   23006825.4804
   -826337.27047   -370956.36746  20324564.0864                   20324561.6334
  -2404661.64848  -3992806.35946  20396993.8134                   20396991.6094
  -1493914.75047  -2378859.89845  21542333.7974                   21542331.1764
   1736816.64146   1342989.75443  23697199.1174                   23697196.9224
   2048300.60946   1568252.91843  23805898.3444                   23805900.8984
  -2561606.43047  -1992831.39844  22395887.8984                   22395887.6254
  -2918454.40246  -2269354.91843  23311010.4774                   23311009.6414
  -1806412.67647  -1970847.18445  22118685.0084                   22118682.8404
 11  8 12 19  8 30.0000000  0  9G17G07G08G11G19G13G24G26G28
  -3700940.02746  -2877214.48844  22993156.1414                   22993156.3594
   -794656.25447   -346269.88346  20330593.0314                   20330590.3984
  -2430880.66847  -4013236.77046  20392004.6884                   20392002.7114
  -1484577.55947  -2371584.14545  21544110.4694                   21544108.0274
   1856464.80946   1436222.02343  23719968.3984                   23719965.4104
   2176841.77046   1668414.60543  23830359.5634                   23830360.9844
  -2593453.52747  -2017647.24644  22389826.9224                   22389827.1844
  -2960951.50846  -2302469.51643  23302922.9614                   23302922.9844
  -1815243.94947  -1977728.69145  22117004.7194                   22117002.7664
 11  8 12 19  9  0.0000000  0  9G17G07G08G11G19G13G24G26G28
  -3772582.32446  -2933039.55944  22979523.0004                   22979522.4654
   -762585.92247   -321280.03546  20336695.6724                   20336693.4184
  -2456812.18748  -4033443.15246  20387069.8444                   20387067.7734
  -1474751.78147  -2363927.68745  21545980.5394                   21545978.1024
   1976169.40246   1529498.30143  23742748.7504                   23742744.8134
   2305324.38346   1768530.65643  23854809.0314                   23854811.5474
  -2624990.01247  -2042221.06644  22383825.6334                   22383825.9104
  -3002994.01246  -2335229.86743  23294923.0164                   23294921.9614
  -1824088.82847  -1984620.81245  22115321.9064                   22115319.3404
 11  8 12 19  9 30.0000000  0  9G17G07G08G11G19G13G24G26G28
  -3844032.27046  -2988714.75444  22965926.1334                   22965926.0434
   -730121.20347   -295982.87546  20342873.2814                   20342871.0744
  -2482449.44947  -4053420.24646  20382191.3984                   20382189.1954
  -1464432.07047  -2355886.35245  21547944.1954                   21547941.6724
   2095931.80946   1622819.62143  23765538.0864                   23765534.1484
   2433749.60946   1868602.00043  23879247.4224                   23879249.6294
  -2656208.59447  -2066547.16844  22377884.6644                   22377885.6024
  -3044575.83646  -2367631.28543  23287008.8444                   23287009.4304
  -1832943.61347  -1991520.64545  22113636.6094                   22113634.8594
 11  8 12 19 10  0.0000000  0  9G17G07G08G11G19G13G24G26G28
  -3915280.69147  -3044232.91044  22952368.2664                   22952367.9924
   -697253.63747   -270371.81246  20349127.8524                   20349125.8164
  -2507782.12147  -4073160.00046  20377370.7974                   20377368.7304
  -1453609.88347  -2347453.47345  21550003.5474                   21550001.1414
   2215757.22246   1716190.04843  23788340.0944                   23788336.4224
   2562122.11746   1968632.22742  23903675.8754                   23903678.3444
  -2687099.14847  -2090617.68044  22372006.0784                   22372007.0474
  -3085687.16446  -2399666.04343  23279186.2424                   23279186.7854
  -1841801.14147  -1998422.61745  22111951.3984                   22111949.2464
 11  8 12 19 10 30.0000000  0  9G17G07G08G11G19G13G24G26G28
  -3986320.44946  -3099588.49644  22938850.0394                   22938849.5044
   -663977.05947   -244442.03546  20355460.0554                   20355458.0634
  -2532802.84847  -4092656.67246  20372609.0634                   20372607.1884
  -1442279.24647  -2338624.40245  21552159.3914                   21552157.1374
   2335648.19546   1809611.55143  23811154.4534                   23811150.8754
   2690444.33646   2068623.35543  23928095.7344                   23928097.4264
  -2717653.91047  -2114426.54344  22366192.5394                   22366192.4454
  -3126321.18746  -2431328.89843  23271454.0704                   23271453.4104
  -1850657.09847  -2005323.35245  22110266.0004                   22110263.5204
 11  8 12 19 11  0.0000000  0  9G17G07G08G11G19G13G24G26G28
  -4057150.81646  -3154780.91044  22925371.5864                   22925371.5634
   -630291.12147   -218193.28546  20361870.3834                   20361868.1564
  -2557509.54347  -4111908.64846  20367907.8134                   20367905.8754
  -1430439.93447  -2329398.94545  21554412.6884                   21554410.4924
   2455601.74846   1903081.83043  23833981.0864                   23833977.2934
   2818712.84046   2168572.56642  23952503.9384                   23952507.0634
  -2747870.63747  -2137971.98844  22360441.6804                   22360442.6454
  -3166476.47346  -2462618.69943  23263812.9224                   23263812.4384
  -1859512.54747  -2012223.70745  22108580.7504                   22108578.3954
 11  8 12 19 11 30.0000000  0  9G17G07G08G11G19G13G24G26G28
  -4127756.95346  -3209798.59444  22911935.2734                   22911935.4344
   -596182.15247   -191614.88746  20368361.1804                   20368358.4924
  -2581886.54347  -4130903.71146  20363268.9304                   20363267.0354
  -1418077.75047  -2319766.06645  21556764.9774                   21556762.8094
   2575628.66046   1996609.25443  23856820.6414                   23856817.4774
   2946937.89246   2268487.90242  23976904.2194                   23976907.5664
  -2777733.59447  -2161241.77744  22354758.8594                   22354759.8444
  -3206138.09446  -2493523.81643  23256264.8134                   23256265.2114
  -1868355.00047  -2019113.93045  22106898.1564                   22106895.7154
 11  8 12 19 12  0.0000000  0  9G17G07G08G11G19G13G24G26G28
  -4198135.87546  -3264639.21144  22898542.8754                   22898542.4224
   -561647.60547   -164704.87946  20374932.8284                   20374930.5084
  -2605930.10247  -4149638.95346  20358693.7734                   20358691.7304
  -1405190.64547  -2309724.15645  21559217.6094                   21559215.0204
   2695727.74246   2090192.89144  23879675.0084                   23879672.0314
   3075118.50446   2368368.62142  24001296.6094                   24001299.1294
  -2807238.72747  -2184232.73444  22349144.9924                   22349145.1054
  -3245302.53546  -2524041.54343  23248812.8204                   23248812.7814
  -1877183.41047  -2025993.21145  22105218.3674                   22105216.1454
 11  8 12 19 12 30.0000000  0  9G17G07G08G11G19G13G24G26G28
  -4268268.02746  -3319287.56244  22885197.2664                   22885196.7274
   -526668.94147   -137448.79746  20381589.0554                   20381586.5514
  -2629619.87147  -4168098.52346  20354185.4384                   20354183.9144
  -1391759.80547  -2299258.54745  21561773.1564                   21561771.2114
   2815914.24246   2183844.68443  23902546.0394                   23902542.7234
   3203269.20346   2468226.02342  24025683.8754                   24025686.2464
  -2836365.90247  -2206929.19144  22343602.1334                   22343601.7424
  -3283950.48046  -2554156.76643  23241458.0004                   23241457.6684
  -1885980.64547  -2032848.20345  22103543.5944                   22103541.4344
 11  8 12 19 13  0.0000000  0  9G17G07G08G11G19G13G24G26G28
  -4338150.53147  -3373741.36344  22871898.9064                   22871898.6954
   -491243.80947   -109844.83246  20388330.2814                   20388327.8134
  -2652951.58647  -4186279.08246  20349745.5554                   20349743.6254
  -1377783.14547  -2288367.62945  21564432.5944                   21564430.6564
   2936187.14446   2277563.77543  23925433.3984                   23925430.5004
   3331388.63745   2568059.02042  24050063.6254                   24050066.4924
  -2865110.58247  -2229327.58644  22338131.9384                   22338131.6844
  -3322078.41546  -2583866.83443  23234201.7974                   23234202.0634
  -1894745.50047  -2039677.97345  22101875.8984                   22101874.0474
 11  8 12 19 13 30.0000000  0  9G17G07G08G11G19G13G24G26G28
  -4407776.80147  -3427995.52044  22858648.9924                   22858649.2074
   -455366.63747    -81888.61746  20395157.4534                   20395154.9304
  -2675918.01647  -4204175.00046  20345375.3444                   20345373.1294
  -1363254.96547  -2277046.95345  21567197.2034                   21567195.0784
   3056549.21946   2371352.32044  23948337.4454                   23948334.4344
   3459479.44145   2667869.72742  24074439.5944                   24074441.6884
  -2893465.21947  -2251422.07444  22332736.0394                   22332736.2894
  -3359679.45746  -2613166.32843  23227046.6334                   23227046.9964
  -1903473.69947  -2046479.16445  22100215.4224                   22100212.8714
 11  8 12 19 14  0.0000000  0  9G17G07G08G11G19G13G24G26G28
  -4477132.60247  -3482038.92244  22845451.0634                   22845451.0314
   -419023.97347    -53569.68746  20402073.4534                   20402071.0044
  -2698504.29747  -4221774.70746  20341077.3754                   20341075.2074
  -1348161.57847  -2265285.85245  21570069.4304                   21570067.2974
   3177010.50046   2465218.19543  23971260.1644                   23971258.2774
   3587551.03546   2767665.42643  24098810.2974                   24098813.6884
  -2921414.70747  -2273200.86344  22327417.6804                   22327417.4384
  -3396739.37546  -2642044.16043  23219994.5634                   23219994.7384
  -1912153.34447  -2053242.52345  22098563.5784                   22098560.8554
 11  8 12 19 14 30.0000000  0  9G17G07G08G11G19G13G24G26G28
  -4546213.79347  -3535868.34444  22832305.1174                   22832305.5394
   -382212.67647    -24885.59446  20409078.4384                   20409075.8524
  -2720705.25047  -4239074.14546  20336852.8524                   20336850.6454
  -1332500.21147  -2253082.17645  21573049.9924                   21573047.2384
   3297571.01246   2559161.39143  23994201.6884                   23994200.3794
   3715603.43446   2867446.23842  24123177.8524                   24123181.3754
  -2948953.78947  -2294659.86744  22322177.3054                   22322177.0984
  -3433253.96146  -2670497.05143  23213047.0084                   23213046.1024
  -1920782.38347  -2059966.46145  22096921.3524                   22096919.0514
 11  8 12 19 15  0.0000000  0  9G17G07G08G11G19G13G24G26G28
  -4615014.14847  -3589478.91444  22819213.1954                   22819212.6524
   -344927.22347      4167.97746  20416173.6254                   20416170.6214
  -2742513.41047  -4256067.53146  20332702.9144                   20332700.7734
  -1316265.19947  -2240431.50445  21576138.8834                   21576136.5474
   3418233.39846   2653183.96143  24017163.4844                   24017161.6134
   3843638.80146   2967213.71943  24147543.6174                   24147546.2074
  -2976075.05147  -2315793.28944  22317016.0634                   22317016.2464
  -3469216.36346  -2698519.69143  23206202.9694                   23206202.9224
  -1929356.29347  -2066647.43445  22095289.9774                   22095287.8204
 11  8 12 19 15 30.0000000  0  9G17G07G08G11G19G13G24G26G28
  -4683530.43447  -3642868.14544  22806174.4454                   22806174.5004
   -307165.41047     33592.73046  20423359.4534                   20423357.0984
  -2763925.48047  -4272752.25846  20328627.9384                   20328625.9144
  -1299454.41447  -2227332.19945  21579338.3204                   21579335.6524
   3538996.71946   2747285.16443  24040144.3754                   24040141.3364
   3971655.50846   3066966.72743  24171903.3134                   24171906.8754
  -3002774.70347  -2336598.18044  22311935.3284                   22311935.4494
  -3504623.76246  -2726109.84443  23199464.9774                   23199465.1334
  -1937874.26647  -2073284.82845  22093669.6174                   22093666.5594
 11  8 12 19 16  0.0000000  0  9G17G07G08G11G19G13G24G26G28
  -4751752.88347  -3696028.39144  22793192.0084                   22793192.2464
   -268917.93047     63395.93046  20430638.1954                   20430635.5824
  -2784929.98447  -4289119.40646  20324631.0314                   20324629.0514
  -1282058.75447  -2213777.12145  21582648.2814                   21582645.8444
   3659866.48446   2841469.35543  24063145.1954                   24063142.5434
   4099659.55946   3166709.84843  24196262.3594                   24196266.0044
  -3029041.59447  -2357065.86744  22306936.8524                   22306936.9344
  -3539465.68746  -2753259.37543  23192835.3284                   23192834.4534
  -1946328.27347  -2079872.35545  22092060.0234                   22092058.0704
 11  8 12 19 16 30.0000000  0  9G17G07G08G11G19G13G24G26G28
  -4819680.86347  -3748959.21144  22780265.8524                   22780265.6374
   -230185.18747     93577.25846  20438008.7114                   20438005.8754
  -2805525.58247  -4305167.93046  20320711.8524                   20320710.0634
  -1264078.73847  -2199766.70745  21586070.1724                   21586067.2424
   3780839.56346   2935734.03543  24086165.6644                   24086161.9454
   4227647.12146   3266440.13343  24220618.8134                   24220621.2624
  -3054874.12947  -2377195.09844  22302020.7974                   22302021.5084
  -3573741.66446  -2779967.90643  23186312.7734                   23186311.4884
  -1954719.71147  -2086411.15645  22090463.5004                   22090461.1094
 11  8 12 19 17  0.0000000  0  9G17G07G08G11G19G13G24G26G28
  -4887313.44547  -3801659.84044  22767396.1254                   22767395.9494
   -190967.17647    124136.71946  20445471.6484                   20445469.0664
  -2825710.54347  -4320896.46546  20316871.1484                   20316869.0124
  -1245514.34447  -2185300.94945  21589602.6024                   21589599.8634
   3901913.14846   3030077.06643  24109204.9144                   24109201.8014
   4355614.64846   3366154.73442  24244970.1644                   24244972.5864
  -3080270.54747  -2396984.49244  22297188.3984                   22297188.4804
  -3607450.62146  -2806234.60943  23179898.3364                   23179898.1334
  -1963050.05947  -2092902.33245  22088878.0394                   22088876.1094
 11  8 12 19 17 30.0000000  0  9G17G07G08G11G19G13G24G26G28
  -4954640.54747  -3854122.43744  22754583.8674                   22754583.5904
   -151254.43747    155081.68046  20453028.1804                   20453026.4574
  -2845473.34847  -4336296.06246  20313110.1804                   20313108.1454
  -1226356.29347  -2170372.60245  21593248.2504                   21593245.4344
   4023093.27746   3124503.10543  24132265.4844                   24132261.7274
   4483568.62146   3465858.87942  24269318.5944                   24269321.5234
  -3105219.46947  -2416425.19144  22292440.0314                   22292440.7114
  -3640582.20746  -2832051.41843  23173593.2974                   23173592.4104
  -1971310.75047  -2099339.23845  22087306.5314                   22087304.0944
 11  8 12 19 18  0.0000000  0  9G17G07G08G11G19G13G24G26G28
  -5021662.68747  -3906347.41044  22741829.9844                   22741829.6334
   -111048.61347    186410.86746  20460679.2274                   20460677.1214
  -2864814.13347  -4351366.79346  20309429.1724                   20309427.3714
  -1206606.16447  -2154982.88745  21597006.4534                   21597004.0514
   4144375.62146   3219008.82443  24155344.0004                   24155341.1024
   4611504.40246   3565548.85242  24293664.4144                   24293667.5004
  -3129720.48447  -2435516.86744  22287778.6804                   22287778.1564
  -3673136.86746  -2857418.68043  23167398.2814                   23167398.2504
  -1979504.58647  -2105724.04345  22085747.0944                   22085744.1254
 11  8 12 19 18 30.0000000  0  9G17G07G08G11G19G13G24G26G28
  -5088384.07847  -3958338.02344  22729133.5234                   22729132.3094
    -70354.85547    218120.26246  20468423.3134                   20468420.9064
  -2883736.10247  -4366111.18746  20305828.8134                   20305827.0664
  -1186269.04347  -2139135.77345  21600876.8054                   21600874.4574
   4265752.12146   3313587.85243  24178441.8444                   24178438.6414
   4739412.59445   3665217.32842  24318004.2034                   24318007.9304
  -3153777.03147  -2454262.19944  22283200.2974                   22283200.3554
  -3705118.61346  -2882339.50043  23161312.3594                   23161311.7664
  -1987637.76247  -2112061.57845  22084199.2734                   22084196.8014
 11  8 12 19 19  0.0000000  0  9G17G07G08G11G19G13G24G26G28
  -5154796.41047  -4010087.82844  22716495.1414                   22716494.2734
    -29165.68447    250215.68846  20476260.9064                   20476259.3404
  -2902229.96147  -4380521.98846  20302309.6094                   20302307.4694
  -1165337.82447  -2122825.71545  21604859.7114                   21604856.8874
   4387227.25046   3408243.73143  24201557.1724                   24201554.2814
   4867297.746 5                  24342340.695
  -3177379.57447  -2472653.76644  22278709.1644                   22278709.2274
  -3736519.31246  -2906807.54343  23155336.8594                   23155336.2934
  -1995703.65647  -2118346.69545  22082664.1094                   22082661.6294
 11  8 12 19 19 30.0000000  0  9G17G07G08G11G19G13G24G26G28
  -5220899.84847  -4061596.93044  22703915.9924                   22703915.8364
     12518.00047    282696.45346  20484193.4694                   20484191.4964
  -2920295.12947  -4394598.75046  20298871.9224                   20298870.1024
  -1143813.69547  -2106053.65645  21608955.6724                   21608953.1764
   4508796.66846   3502973.09843  24224690.8524                   24224687.9964
   4995155.512 5                  24366671.648
  -3200527.53547  -2490691.11344  22274304.2274                   22274303.6804
  -3767338.92646  -2930822.81243  23149471.1954                   23149471.3554
  -2003704.55147  -2124581.16045  22081141.5164                   22081139.1374
 11  8 12 19 20  0.0000000  0  9G17G07G08G11G19G13G24G26G28
  -5286688.97347  -4112861.12544  22691396.8444                   22691396.6414
     54700.15247    315565.63746  20492220.4694                   20492218.0434
  -2937924.75447  -4408336.13346  20295517.1564                   20295515.0704
  -1121692.21147  -2088816.11745  21613165.1334                   21613162.8954
   4630461.78546   3597777.05143  24247843.6174                   24247840.1254
   5122987.449 6                  24390996.766
  -3223214.44947  -2508369.18444  22269986.7664                   22269986.5274
  -3797571.95346  -2954380.99643  23143719.4064                   23143718.7704
  -2011636.79347  -2130762.11345  22079632.4844                   22079629.9804
 11  8 12 19 20 30.0000000  0  9G17G07G08G11G19G13G24G26G28
  -5352168.46947  -4163884.03545  22678936.2504                   22678936.4774
     97375.79747    348819.35246  20500341.2034                   20500338.9804
  -2955122.75847  -4421737.18046  20292244.4534                   20292242.7234
  -1098978.89847  -2071117.41445  21617487.5314                   21617484.8554
   4752215.52746   3692650.02343  24271012.9384                   24271008.5864
   5250784.762 6                  24415317.039
  -3245443.72347  -2525690.66844  22265756.5784                   22265757.4494
  -3827222.95746  -2977485.64543  23138076.2114                   23138076.1174
  -2019507.02347  -2136894.77745  22078135.1414                   22078132.6564
 11  8 12 19 21  0.0000000  0  9G17G07G08G11G19G13G24G26G28
  -5417330.34447  -4214659.46144  22666536.1804                   22666536.1174
    140551.89847    382463.03546  20508557.5004                   20508555.4654
  -2971880.00447  -4434794.78546  20289055.6804                   20289053.6604
  -1075667.13747  -2052952.37945  21621923.4694                   21621921.2304
   4874061.40246   3787594.80943  24294198.4844                   24294195.8014
   5378551.26646   4163246.76253  24439631.2344                   24439633.1294
  -3267206.59047  -2542648.70744  22261615.3834                   22261615.8834
  -3856284.02046  -3000130.61743  23132545.5704                   23132546.3834
  -2027309.01247  -2142974.24245  22076650.1484                   22076647.8284
 11  8 12 19 21 30.0000000  0  9G17G07G08G11G19G13G24G26G28
  -5482186.21147  -4265196.43044  22654194.8984                   22654194.4494
    184215.79347    416486.82046  20516866.7814                   20516864.1884
  -2988207.48848  -4447517.50046  20285948.5084                   20285946.6564
  -1051769.59447  -2034330.89545  21626470.7584                   21626468.3134
   4995983.75446   3882599.16443  24317400.6254                   24317396.8594
   5506271.33246   4262768.53943  24463934.3834                   24463938.3594
  -3288513.82447  -2559251.71944  22257560.2034                   22257560.2584
  -3884766.66446  -3022324.85243  23127126.3594                   23127125.8164
  -2035056.08247  -2149010.92245  22075176.1724                   22075173.8834
 11  8 12 19 22  0.0000000  0  9G17G07G08G11G19G13G24G26G28
  -5546727.52347  -4315488.30145  22641912.7584                   22641912.6294
    228374.64147    450896.29346  20525269.4694                   20525267.3554
  -3004096.19548  -4459898.31246  20282925.3204                   20282923.4344
  -1027279.06647  -2015247.36345  21631131.4614                   21631128.9924
   5117987.17646   3977666.68843  24340617.0474                   24340613.7664
   5633948.66046   4362257.01643  24488230.9454                   24488234.9414
  -3309356.45347  -2575492.68744  22253594.6954                   22253594.1994
  -3912662.73446  -3044062.02343  23121818.0314                   23121817.3634
  -2042742.27047  -2155000.15645  22073713.1174                   22073710.9024
 11  8 12 19 22 30.0000000  0  9G17G07G08G11G19G13G24G26G28
  -5610957.33247  -4365537.43744  22629690.5084                   22629690.1524
    273024.96547    485688.72746  20533766.5554                   20533763.5004
  -3019547.50447  -4471938.29746  20279984.7974                   20279983.0514
  -1002199.10247  -1995704.52045  21635904.1334                   21635901.6174
   5240065.53146   4072792.60243  24363848.1174                   24363844.2074
   5761577.09846   4461707.44543  24512518.1174                   24512521.9304
  -3329736.02347  -2591372.82844  22249716.1644                   22249716.3714
  -3939974.84046  -3065344.16443  23116620.3674                   23116619.9224
  -2050371.88347  -2160945.30545  22072261.7194                   22072259.0274
 11  8 12 19 23  0.0000000  0  9G17G07G08G11G19G13G24G26G28
  -5674876.80947  -4415344.75045  22617527.0634                   22617526.3634
    318164.77347    520862.57446  20542356.5314                   20542353.6994
  -3034561.69547  -4483637.67246  20277127.8134                   20277126.1094
   -976532.35547  -1975704.44545  21640788.1564                   21640785.4654
   5362213.80146   4167973.02343  24387091.8054                   24387088.1644
   5889151.15246   4561115.46542  24536795.0314                   24536798.7704
  -3349652.68747  -2606892.25044  22245925.8754                   22245926.0274
  -3966704.32446  -3086172.32043  23111534.5634                   23111533.8714
  -2057947.62947  -2166848.48445  22070819.6644                   22070817.2074
 11  8 12 19 23 30.0000000  0  9G17G07G08G11G19G13G24G26G28
  -5738484.04347  -4464908.76645  22605423.1094                   22605422.7154
    363794.74247    556418.36746  20551039.0084                   20551037.0314
  -3049135.98047  -4494994.25846  20274354.2584                   20274352.5394
   -950277.77347  -1955246.32045  21645783.7424                   21645781.4964
   5484430.33246   4263206.65643  24410348.8754                   24410345.7074
   6016668.84046   4660479.53142  24561061.5314                   24561064.9454
  -3369103.40247  -2622048.60244  22242225.4304                   22242224.5784
  -3992849.13746  -3106544.88344  23106558.9454                   23106559.0124
  -2065469.72347  -2172709.84845  22069388.2274                   22069385.6254
 11  8 12 19 24  0.0000000  0  9G17G07G08G11G19G13G24G26G28
  -5801779.59047  -4514229.89845  22593378.4694                   22593377.8324
    409913.15247    592354.76246  20559815.5634                   20559813.0124
  -3063270.00447  -4506007.78546  20271664.7814                   20271663.3134
   -923437.56647  -1934331.87145  21650891.8364                   21650889.4774
   5606710.82446   4358490.10943  24433617.7034                   24433615.0474
   6144125.14146   4759795.71542  24585314.7974                   24585319.9964
  -3388088.16847  -2636841.87944  22238611.9144                   22238612.0824
  -4018410.19147  -3126462.53944  23101695.2194                   23101694.7074
  -2072940.49647  -2178531.22345  22067966.9224                   22067964.4734
 11  8 12 19 24 30.0000000  0  9G17G07G08G11G19G13G24G26G28
  -5864758.94947  -4563304.66045  22581393.8204                   22581392.8324
    456524.06347    628674.92246  20568685.5004                   20568682.5944
  -3076958.19947  -4516673.91846  20269060.0474                   20269058.1454
   -896008.02347  -1912958.18745  21656111.4304                   21656109.0004
   5729056.35246   4453824.22343  24456899.4774                   24456896.5634
   6271521.24245   4859065.04342  24609558.2194                   24609563.2774
  -3406601.30547  -2651267.66444  22235088.7894                   22235089.1564
  -4043382.67646  -3145921.61744  23096942.5394                   23096942.0944
  -2080356.89147  -2184310.22745  22066555.6334                   22066553.1174
 11  8 12 19 25  0.0000000  0  9G17G07G08G11G19G13G24G26G28
  -5927420.95347  -4612132.12945  22569469.2734                   22569468.5944
    503627.15247    665378.59846  20577648.4694                   20577646.4414
  -3090198.68447  -4526991.17646  20266540.3364                   20266538.6684
   -867989.15247  -1891125.30545  21661443.2734                   21661440.6214
   5851463.90246   4549206.70343  24480192.9924                   24480191.0824
   6398854.07045   4958285.12142  24633789.4534                   24633793.6724
  -3424641.03147  -2665324.52744  22231656.5394                   22231656.5784
  -4067765.81246  -3164921.45743  23092302.1564                   23092302.4494
  -2087719.84047  -2190047.58645  22065154.5004                   22065151.6454
 11  8 12 19 25 30.0000000  0  9G17G07G08G11G19G13G24G26G28
  -5989768.95747  -4660714.90645  22557604.2664                   22557604.2074
    551218.31347    702462.58246  20586704.9774                   20586702.7704
  -3102993.66447  -4536961.30546  20264105.6804                   20264103.4304
   -839385.69147  -1868836.89545  21666886.2664                   21666883.7074
   5973927.25446   4644632.62543  24503496.3834                   24503494.7774
   6526116.34045   5057450.15242  24658005.9454                   24658011.0864
  -3442209.74647  -2679014.38344  22228312.8204                   22228312.5864
  -4091562.84447  -3183464.57844  23087774.4064                   23087774.0824
  -2095034.00847  -2195746.94145  22063762.1644                   22063759.9454
 11  8 12 19 26  0.0000000  0  9G17G07G08G11G19G13G24G26G28
  -6051793.34047  -4709045.52344  22545801.2504                   22545801.0594
    599306.29347    739933.70346  20595855.5234                   20595853.7194
  -3115332.05947  -4546575.64846  20261757.5474                   20261755.4924
   -810189.07847  -1846086.27745  21672442.4064                   21672439.3324
   6096452.52346   4740106.84042  24526813.0314                   24526810.0314
   6653313.73845   5156564.68841  24682211.3524                   24682216.1334
  -3459296.79747  -2692328.91444  22225061.2504                   22225061.3094
  -4114764.15646  -3201543.50444  23083359.7034                   23083358.8204
  -2102291.46947  -2201402.10945  22062381.5004                   22062378.7154
 11  8 12 19 26 30.0000000  0  9G17G07G08G11G19G13G24G26G28
  -6113503.48047  -4757131.28544  22534058.9694                   22534057.5004
    647880.46947    777783.67646  20605099.3444                   20605096.9494
  -3127222.90647  -4555841.25046  20259495.2814                   20259493.1804
   -780410.31247  -1822882.04745  21678108.5164                   21678106.4104
   6219026.15646   4835618.69543  24550137.8134                   24550135.6214
   6780432.62146   5255617.94542  24706402.2274                   24706407.4924
  -3475910.96547  -2705274.96944  22221899.7344                   22221899.5944
  -4137379.62147  -3219165.93444  23079056.1174                   23079055.2584
  -2109503.82847  -2207022.13345  22061009.0004                   22061006.7274
 11  8 12 19 27  0.0000000  0  9G17G07G08G11G19G13G24G26G28
  -6174890.05547  -4804964.91445  22522377.4614                   22522376.1484
    696949.12547    816018.95746  20614436.8364                   20614434.3954
  -3138656.08247  -4564750.23446  20257319.4304                   20257317.4384
   -750040.90647  -1799217.57045  21683888.2664                   21683886.1524
   6341654.23846   4931172.97742  24573472.6334                   24573470.1644
   6907478.89546   5354614.74642  24730578.2664                   24730583.9184
  -3492041.73447  -2717844.34044  22218830.0004                   22218830.0704
  -4159399.96947  -3236324.64543  23074865.4774                   23074865.2624
  -2116663.05547  -2212600.74645  22059646.6644                   22059643.9964
 11  8 12 19 27 30.0000000  0  9G17G07G08G11G19G13G24G26G28
  -6235952.97747  -4852546.35545  22510757.3674                   22510755.6884
    746511.10947    854638.65646  20623867.9774                   20623865.8444
  -3149630.28547  -4573301.56246  20255230.9304                   20255228.8634
   -719082.12147  -1775093.84445  21689778.6954                   21689777.2194
   6464333.35246   5026767.06642  24596818.7194                   24596814.9734
   7034448.86746   5453551.96542  24754740.7504                   24754745.9804
  -3507688.16447  -2730036.31644  22215852.7584                   22215852.3014
  -4180825.08646  -3253019.55144  23070788.2194                   23070787.6134
  -2123770.35947  -2218138.91045  22058293.8444                   22058291.9614
 11  8 12 19 28  0.0000000  0  9G17G07G08G11G19G13G24G26G28
  -6296691.39547  -4899874.94545  22499198.9224                   22499198.3984
    796566.64547    893642.94146  20633392.6024                   20633390.9304
  -3160143.53147  -4581493.71146  20253230.5944                   20253228.8594
   -687534.56647  -1750511.32845  21695782.3674                   21695779.8204
   6587060.88346   5122398.84442  24620172.1564                   24620169.9574
   7161339.36346   5552427.27743  24778886.5084                   24778892.5824
  -3522848.79747  -2741849.75844  22212968.0004                   22212967.6254
  -4201654.35947  -3269250.15644  23066825.1564                   23066824.0474
  -2130826.94147  -2223637.54345  22056951.1564                   22056949.2974
 11  8 12 19 28 30.0000000  0  8G17G07G08G11G19G24G26G28
  -6357100.10547  -4946946.60545  22487703.3754                   22487702.9224
    847119.78947    933034.96146  20643013.3524                   20643011.5314
  -3170189.63747  -4589321.85546  20251318.5944                   20251316.7344
   -655394.28947  -1725466.95345  21701898.3674                   21701896.3054
   6709838.71946   5218069.82842  24643536.3444                   24643533.6954
  -3537517.21947  -2753279.64844  22210176.2344                   22210176.3524
  -4221882.75847  -3285012.54344  23062975.1334                   23062974.6644
  -2137829.09447  -2229093.77345  22055619.0394                   22055616.7304
 11  8 12 19 29  0.0000000  0  8G17G07G08G11G19G24G26G28
  -6417177.23047  -4993759.89845  22476271.2734                   22476270.9064
    898171.28947    972815.31646  20652728.1724                   20652726.1564
  -3179765.94947  -4596783.92646  20249496.7114                   20249494.5634
   -622660.66447  -1699960.22745  21708127.8524                   21708125.4184
   6832664.97346   5313778.53143  24666910.1484                   24666906.6094
  -3551690.79347  -2764323.95744  22207479.4304                   22207478.5394
  -4241508.68747  -3300305.48844  23059240.4924                   23059240.3524
  -2144776.37147  -2234507.23045  22054296.8834                   22054294.7114
 11  8 12 19 29 30.0000000  0  8G17G07G08G11G19G24G26G28
  -6476919.62147  -5040312.35245  22464901.9694                   22464902.0784
    949723.01247   1012985.44546  20662537.6954                   20662536.1844
  -3188868.28547  -4603876.66846  20247764.3834                   20247762.2934
   -589331.79747  -1673989.68745  21714470.0944                   21714467.2704
   6955539.67246   5409524.98843  24690292.0704                   24690288.9184
  -3565365.46147  -2774979.51644  22204877.0164                   22204876.8204
  -4260528.96947  -3315126.49243  23055621.6024                   23055620.2814
  -2151667.45347  -2239876.90245  22052985.1804                   22052983.0084
 11  8 12 19 30  0.0000000  0  8G17G07G08G11G19G24G26G28
  -6536325.75847  -5086602.78545  22453597.7894                   22453597.1174
   1001776.06647   1053546.23446  20672443.4924                   20672441.4654
  -3197494.07847  -4610598.08646  20246122.5864                   20246120.7504
   -555407.11747  -1647554.86345  21720925.6884                   21720922.9344
   7078461.40246   5505308.10543  24713683.3984                   24713681.0044
  -3578538.75447  -2785244.38344  22202370.2584                   22202370.1564
  -4278942.31246  -3329474.54343  23052116.7194                   23052116.3954
  -2158501.93447  -2245202.45745  22051684.7274                   22051682.1954
 11  8 12 19 30 30.0000000  0  8G17G07G08G11G19G24G26G28
  -6595384.48047  -5132622.50845  22442359.4224                   22442359.1994
   1054340.04747   1094505.14546  20682445.7974                   20682444.0904
  -3205631.34047  -4616938.82046  20244574.4224                   20244572.5044
   -520877.48047  -1620648.64545  21727496.2894                   21727493.9024
   7201436.93846   5601133.13743  24737084.5394                   24737081.8364
  -3591199.11347  -2795109.58644  22199961.1804                   22199961.1724
  -4296738.07446  -3343341.37143  23048730.9694                   23048730.9884
  -2165270.46947  -2250476.64845  22050396.6024                   22050394.2384
 11  8 12 19 31  0.0000000  0  8G17G07G08G11G19G24G26G28
  -6654103.31247  -5178377.37545  22431185.5164                   22431185.0984
   1107406.61747   1135855.68446  20692543.9774                   20692542.5864
  -3213286.61347  -4622903.98046  20243117.5554                   20243115.7734
   -485751.52047  -1593277.76245  21734181.0394                   21734177.7384
   7324456.23046   5696992.28143  24760494.5234                   24760491.6174
  -3603353.16847  -2804580.25044  22197648.3914                   22197647.6804
  -4313923.75846  -3356732.81644  23045460.1254                   23045459.8754
  -2171981.94547  -2255706.35545  22049119.6644                   22049117.3594
 11  8 12 19 31 30.0000000  0  8G17G07G08G11G19G24G26G28
  -6712476.42647  -5223862.86345  22420076.9384                   22420077.0274
   1160980.16447   1177601.27046  20702739.7344                   20702737.1454
  -3220453.07847  -4628488.26246  20241754.0554                   20241752.2854
   -450024.82847  -1565438.78145  21740979.2894                   21740976.5354
   7447521.42246   5792887.14843  24783913.1724                   24783910.3524
  -3614994.26247  -2813651.20344  22195432.5554                   22195431.9964
  -4330493.98846  -3369644.68043  23042307.0394                   23042306.4304
  -2178631.98047  -2260888.20745  22047854.2424                   22047852.0594
 11  8 12 19 32  0.0000000  0  8G17G07G08G11G19G24G26G28
  -6770505.82447  -5269080.51245  22409034.8674                   22409034.3134
   1215057.78547   1219739.64546  20713029.6884                   20713027.8674
  -3227131.60247  -4633692.31646  20240483.0474                   20240481.3164
   -413700.68447  -1537134.25845  21747891.0004                   21747888.9104
   7570627.38345   5888813.80143  24807339.9924                   24807336.8204
  -3626123.49247  -2822323.30544  22193314.9144                   22193314.7894
  -4346450.96146  -3382078.66843  23039270.3594                   23039270.3164
  -2185224.03147  -2266024.87145  22046599.8674                   22046597.7854
 11  8 12 19 32 30.0000000  0  8G17G07G08G11G19G24G26G28
  -6828190.95347  -5314029.90645  22398057.8444                   22398057.2734
   1269638.85947   1262270.31346  20723416.1884                   20723414.1214
  -3233320.70747  -4638515.01646  20239305.3134                   20239303.3094
   -376780.07447  -1508364.95345  21754917.0554                   21754914.4454
   7693771.28145   5984770.05542  24830773.0944                   24830770.3444
  -3636739.46547  -2830595.45344  22191294.9614                   22191294.2854
  -4361794.48446  -3394034.65643  23036350.2274                   23036349.4304
  -2191759.18447  -2271117.18745  22045355.8594                   22045354.1134
 11  8 12 19 33  0.0000000  0  8G17G07G08G11G19G24G26G28
  -6885531.63347  -5358710.90245  22387146.0004                   22387145.4344
   1324722.54747   1305192.62946  20733898.1644                   20733896.4614
  -3239019.43447  -4642955.59446  20238220.9454                   20238219.0124
   -339264.23047  -1479131.84445  21762056.0314                   21762053.5944
   7816950.19545   6080753.50442  24854213.4064                   24854210.9184
  -3646841.23047  -2838466.94144  22189372.8674                   22189372.3674
  -4376524.77746  -3405512.82043  23033547.2504                   23033547.1254
  -2198238.58647  -2276166.06645  22044123.3754                   22044120.2934
 11  8 12 19 33 30.0000000  0  8G17G07G08G11G19G24G26G28
  -6942524.69147  -5403121.01645  22376300.3054                   22376299.8524
   1380310.97747   1348508.25446  20744476.5944                   20744474.6724
  -3244223.23047  -4647010.51646  20237230.6724                   20237229.2664
   -301151.28147  -1449433.45345  21769308.7274                   21769306.3204
   7940164.14545   6176764.32842  24877658.8524                   24877657.8364
  -3656424.77047  -2845934.60244  22187548.9304                   22187548.9694
  -4390638.42246  -3416510.45743  23030861.7814                   23030861.7504
  -2204660.14547  -2281169.87545  22042901.4454                   22042899.2624
 11  8 12 19 34  0.0000000  0  8G17G07G08G11G19G24G26G28
  -6999175.89147  -5447264.75045  22365520.0864                   22365519.2974
   1436397.23447   1392211.79346  20755149.2664                   20755147.2304
  -3248937.14547  -4650683.70746  20236333.8134                   20236331.5984
   -262448.39147  -1419275.37145  21776673.8284                   21776671.4414
   8063403.96945   6272795.36342  24901111.3364                   24901108.9454
  -3665495.35247  -2853002.55544  22185822.6954                   22185822.8054
  -4404142.09046  -3427032.77744  23028292.5234                   23028291.5664
  -2211031.20747  -2286134.33645  22041688.7034                   22041686.5634
 11  8 12 19 34 30.0000000  0  8G17G07G08G11G19G24G26G28
  -7055483.77347  -5491140.96545  22354804.9304                   22354804.5864
   1492981.60947   1436303.47746  20765916.7664                   20765914.8054
  -3253158.76247  -4653973.29346  20235530.4144                   20235528.3524
   -223155.47347  -1388657.52045  21784150.8834                   21784148.6484
   8186668.16846   6368845.35242  24924568.6174                   24924566.4534
  -3674050.36347  -2859668.78144  22184195.5474                   22184194.9884
  -4417034.52346  -3437078.82844  23025839.0084                   23025838.1414
  -2217351.75047  -2291059.43045  22040486.2974                   22040483.9494
 11  8 12 19 35  0.0000000  0  8G17G07G08G11G19G24G26G28
  -7111451.47347  -5534752.09845  22344154.5004                   22344154.3014
   1550059.91447   1480780.02746  20776778.4924                   20776776.6524
  -3256890.43747  -4656881.10546  20234820.2424                   20234818.4844
   -183277.46147  -1357583.74245  21791739.1484                   21791736.8874
   8309950.42646   6464909.40242  24948028.7424                   24948025.6054
  -3682092.24647  -2865935.15644  22182664.0944                   22182664.2464
  -4429319.02046  -3446651.15243  23023501.4454                   23023500.6724
  -2223626.02747  -2295948.46145  22039292.2274                   22039289.7344
 11  8 12 19 35 30.0000000  0  7G17G07G08G11G24G26G28
  -8742506.94947  -6805704.36745  22033774.8444                   22033774.7854
     32206.91047    298037.38746  20487940.6564                   20487938.5634
  -4835557.27048  -5887011.12146  19934410.0704                   19934407.7704
  -1718240.42247  -2553658.78945  21499645.9064                   21499643.3364
  -5265047.00847  -4099406.37144  21881437.8204                   21881437.7304
  -6016422.58246  -4683355.23443  22721485.6094                   22721485.0704
  -3805281.86347  -3528407.55545  21738313.0784                   21738310.3404
 11  8 12 19 36  0.0000000  0  7G17G07G08G11G24G26G28
  -8797806.50447  -6848794.88345  22023251.8914                   22023251.5004
     90257.06347    343271.22746  20498987.4304                   20498985.2974
  -4838318.00847  -5889162.35546  19933885.1174                   19933882.9224
  -1677208.39547  -2521685.78945  21507453.9304                   21507451.1024
  -5272073.05147  -4104881.18444  21880101.4454                   21880100.8324
  -6027504.87146  -4691990.76243  22719376.6094                   22719376.2624
  -3811479.91047  -3533237.19145  21737133.7424                   21737131.5474
 11  8 12 19 36 30.0000000  0  7G17G07G08G11G24G26G28
  -8852772.39147  -6891625.38745  22012792.5554                   22012791.7034
    148791.16447    388882.16846  20510126.0474                   20510124.0274
  -4840592.30147  -5890934.55546  19933452.0704                   19933450.0234
  -1635602.16447  -2489265.34045  21515371.2194                   21515369.4024
  -5278590.18447  -4109959.45344  21878860.7034                   21878860.6914
  -6037987.04347  -4700158.68744  22717381.8054                   22717381.1604
  -3817642.03947  -3538038.84445  21735960.9694                   21735958.6094
 11  8 12 19 37  0.0000000  0  7G17G07G08G11G24G26G28
  -8907398.61347  -6934191.23445  22002397.1334                   22002396.2194
    207814.02047    434873.96146  20521357.7114                   20521355.9064
  -4842373.21947  -5892322.30146  19933112.7584                   19933110.7774
  -1593417.13747  -2456393.88745  21523398.9454                   21523396.1454
  -5284592.01647  -4114636.16044  21877719.0784                   21877718.9024
  -6047863.58646  -4707854.69144  22715502.4384                   22715501.9414
  -3823763.47747  -3542808.78945  21734795.8524                   21734793.4494
 11  8 12 19 37 30.0000000  0  7G17G07G08G11G24G26G28
  -8961689.78547  -6976496.00445  21992066.3204                   21992064.9734
    267319.58647    481241.89546  20532681.2274                   20532679.6214
  -4843664.27347  -5893328.33246  19932867.3834                   19932865.4024
  -1550659.49247  -2423076.23445  21531535.3364                   21531533.2344
  -5290082.50847  -4118914.42645  21876673.8984                   21876673.5634
  -6057139.57846  -4715082.74644  22713737.4144                   22713737.3954
  -3829850.18447  -3547551.66845  21733638.0864                   21733635.6914
 11  8 12 19 38  0.0000000  0  7G17G07G08G11G24G26G28
  -9015642.52047  -7018537.05545  21981798.7664                   21981798.5514
    327310.37147    527987.91046  20544097.3674                   20544095.6644
  -4844461.15648  -5893949.28546  19932716.0474                   19932713.7664
  -1507327.61347  -2389311.13745  21539781.3054                   21539778.3984
  -5295057.37947  -4122790.93444  21875727.2424                   21875726.9694
  -6065812.10546  -4721840.55944  22712086.4844                   22712086.6604
  -3835900.36347  -3552266.09445  21732486.5474                   21732484.2774
 11  8 12 19 38 30.0000000  0  7G17G07G08G11G24G26G28
  -9069268.30147  -7060323.34045  21971594.1644                   21971593.5124
    387773.24247    575101.78946  20555603.1174                   20555601.1564
  -4844774.36347  -5894193.35546  19932655.9694                   19932654.2304
  -1463434.46547  -2355108.66445  21548133.6094                   21548131.3244
  -5299527.65647  -4126274.22744  21874876.8674                   21874876.4344
  -6073893.48046  -4728137.73844  22710549.0944                   22710549.2704
  -3841926.57847  -3556961.83245  21731339.2114                   21731337.3134
 11  8 12 19 39  0.0000000  0  7G17G07G08G11G24G26G28
  -9122571.30147  -7101858.10245  21961451.2424                   21961450.0434
    448703.19147    622579.62146  20567197.5084                   20567196.0004
  -4844607.23447  -5894063.13346  19932687.9454                   19932686.1844
  -1418985.50047  -2320473.12545  21556591.8204                   21556590.2464
  -5303496.50447  -4129366.80544  21874121.0704                   21874121.2384
  -6081387.64146  -4733977.32444  22709123.1414                   22709122.8284
  -3847933.36747  -3561642.45345  21730196.7664                   21730194.1564
 11  8 12 19 39 30.0000000  0  7G17G07G08G11G24G26G28
  -9175549.23047  -7143139.56645  21951369.5554                   21951368.7234
    510101.58247    670422.48446  20578881.2734                   20578879.5784
  -4843956.51647  -5893556.09046  19932811.6094                   19932809.8914
  -1373980.09447  -2285403.97745  21565156.2274                   21565153.7304
  -5306960.92247  -4132066.33644  21873462.3204                   21873461.7464
  -6088292.98446  -4739358.11744  22707808.7894                   22707808.3134
  -3853920.10247  -3566307.44145  21729057.4694                   21729055.1954
 11  8 12 19 40  0.0000000  0  7G17G07G08G11G24G26G28
  -9228206.70347  -7184171.32845  21941349.4144                   21941348.0704
    571962.25447    718625.55546  20590653.3524                   20590651.3284
  -4842826.23047  -5892675.34846  19933026.7734                   19933025.0554
  -1328424.70747  -2249906.27745  21573825.3594                   21573822.7664
  -5309925.09047  -4134376.03144  21872897.8594                   21872897.4534
  -6094614.99646  -4744284.38744  22706605.7274                   22706605.9184
  -3859892.75447  -3570961.44545  21727920.7734                   21727918.8594
 11  8 12 19 40 30.0000000  0  7G17G07G08G11G24G26G28
  -9280542.50047  -7224952.42645  21931389.9454                   21931388.7544
    634285.52747    767189.09046  20602512.3834                   20602511.3404
  -4841213.32847  -5891418.54746  19933333.6484                   19933332.0084
  -1282319.31647  -2213980.00045  21582598.1954                   21582596.2504
  -5312386.98847  -4136294.36344  21872429.1644                   21872429.2114
  -6100352.46146  -4748755.10944  22705514.4614                   22705513.7304
  -3865850.70347  -3575604.00445  21726787.3754                   21726784.9384
 11  8 12 19 41  0.0000000  0  7G17G07G08G11G24G26G28
  -9332557.58647  -7265483.62545  21921491.8284                   21921491.0084
    697068.79347    816111.07446  20614460.0704                   20614458.2424
  -4839118.13348  -5889785.93746  19933732.7424                   19933730.5634
  -1235666.88347  -2177627.46545  21591476.4454                   21591473.6484
  -5314347.16047  -4137821.74644  21872056.7344                   21872055.9734
  -6105507.25046  -4752771.85244  22704533.3204                   22704533.0784
  -3871796.17647  -3580236.84445  21725656.1644                   21725653.4534
 11  8 12 19 41 30.0000000  0  7G17G07G08G11G24G26G28
  -9384254.00447  -7305766.50845  21911654.4224                   21911653.2464
    760308.81647    865388.96146  20626494.7504                   20626492.7854
  -4836542.15647  -5887778.68446  19934222.7424                   19934220.9414
  -1188470.88347  -2140851.36345  21600457.6254                   21600455.4024
  -5315806.89547  -4138959.18044  21871778.5634                   21871777.9774
  -6110082.09046  -4756336.67644  22703662.1094                   22703662.3874
  -3877732.32847  -3584862.41045  21724525.9694                   21724523.8754
 11  8 12 19 42  0.0000000  0  7G17G07G08G11G24G26G28
  -9435632.31647  -7345801.50045  21901877.3284                   21901876.5554
    824004.07047    915021.59046  20638615.1804                   20638613.7034
  -4833485.18047  -5885396.63346  19934804.4614                   19934802.4734
  -1140733.29747  -2103653.26245  21609541.6024                   21609539.4264
  -5316765.77047  -4139706.34044  21871596.0864                   21871595.5004
  -6114077.92246  -4759450.31244  22702902.5004                   22702901.8164
  -3883660.63747  -3589481.87545  21723398.2034                   21723395.7464
 11  8 12 19 42 30.0000000  0  7G17G07G08G11G24G26G28
  -9486693.56247  -7385589.44545  21892160.6024                   21892159.4344
    888151.87947    965006.84446  20650822.3204                   20650820.0594
  -4829946.98847  -5882639.59846  19935477.3834                   19935475.7274
  -1092457.12147  -2066035.46945  21618727.8594                   21618725.4654
  -5317224.77047  -4140063.98044  21871509.2344                   21871508.6844
  -6117496.28146  -4762113.97344  22702251.4384                   22702251.7154
  -3889583.42647  -3594097.02345  21722270.6094                   21722268.6564
 11  8 12 19 43  0.0000000  0  7G17G07G08G11G24G26G28
  -9537442.95347  -7425134.37145  21882503.3364                   21882502.1994
    952746.18447   1015340.02346  20663114.0474                   20663112.6524
  -4825931.82447  -5879510.91046  19936241.5944                   19936239.8284
  -1043649.19147  -2028003.33245  21628015.9384                   21628014.1564
  -5317188.26647  -4140035.54344  21871515.9224                   21871515.4774
  -6120343.17646  -4764332.34444  22701709.5784                   22701709.8404
  -3895506.61747  -3598712.49645  21721144.2114                   21721141.5744
 11  8 12 19 43 30.0000000  0  7G17G07G08G11G24G26G28
  -9587869.72347  -7464427.90245  21872907.4224                   21872906.4964
   1017796.50447   1066028.54346  20675492.7114                   20675491.1724
  -4821427.74247  -5876001.24646  19937098.6334                   19937097.3244
   -994300.30947  -1989549.67245  21637407.0394                   21637404.9574
  -5316644.88747  -4139612.10945  21871619.2114                   21871618.9064
  -6122608.07447  -4766097.19144  22701279.1954                   22701278.4694
  -3901420.28147  -3603320.55545  21720018.1414                   21720016.0864
 11  8 12 19 44  0.0000000  0  7G17G07G08G11G24G26G28
  -9637975.51647  -7503471.33245  21863372.3984                   21863371.6994
   1083299.69547   1117069.94546  20687957.3594                   20687955.6524
  -4816435.97347  -5872111.57046  19938048.6174                   19938046.8874
   -944413.95747  -1950677.20745  21646899.8204                   21646898.2504
  -5315595.94147  -4138794.73845  21871818.4844                   21871818.2664
  -6124293.75046  -4767410.70744  22700957.9454                   22700958.1094
  -3907327.50047  -3607923.57445  21718894.2734                   21718891.9144
 11  8 12 19 44 30.0000000  0  7G17G07G08G11G24G26G28
  -9687760.08647  -7542264.44145  21853898.7114                   21853897.8634
   1149254.94547   1168463.59846  20700508.8914                   20700506.7274
  -4810955.16047  -5867840.81246  19939091.8444                   19939089.8634
   -893991.56247  -1911387.03945  21656495.2274                   21656493.0234
  -5314040.22347  -4137582.46944  21872114.4844                   21872114.0514
  -6125400.42647  -4768273.04344  22700747.5634                   22700747.6804
  -3913228.31647  -3612521.60545  21717771.2194                   21717768.9804
 11  8 12 19 45  0.0000000  0  7G17G07G08G11G24G26G28
  -9737227.05147  -7580810.06645  21844485.4064                   21844484.2854
   1215657.03547   1220205.44946  20713144.6094                   20713142.8554
  -4804987.86347  -5863190.98846  19940227.6484                   19940225.5514
   -843038.39147  -1871683.27345  21666191.0474                   21666188.7074
  -5311980.77347  -4135977.68744  21872506.4454                   21872506.2424
  -6125932.34047  -4768687.53544  22700646.4064                   22700646.0204
  -3919127.56647  -3617118.41045  21716649.0164                   21716646.4734
 11  8 12 19 45 30.0000000  0  7G17G07G08G11G24G26G28
  -9786377.27047  -7619108.87545  21835132.3284                   21835131.3094
   1282503.94947   1272293.91046  20725865.0944                   20725863.4534
  -4798534.48847  -5858162.40246  19941455.5084                   19941453.2424
   -791557.07447  -1831567.97345  21675987.8364                   21675985.8284
  -5309418.37947  -4133981.00844  21872993.8834                   21872993.8674
  -6125891.28147  -4768655.55944  22700653.3984                   22700654.5124
  -3925027.13347  -3621715.47345  21715526.5474                   21715523.7344
 11  8 12 19 46  0.0000000  0  7G17G07G08G11G24G26G28
  -9835215.78147  -7657164.79745  21825839.0004                   21825837.9224
   1349789.41447   1324724.10546  20738669.6094                   20738667.6804
  -4791598.64547  -5852757.86746  19942775.3984                   19942773.2274
   -739554.10247  -1791046.19145  21685883.5704                   21685881.3284
  -5306357.23047  -4131595.68444  21873576.7424                   21873576.5634
  -6125282.53947  -4768181.21944  22700770.2894                   22700769.3874
  -3930932.73847  -3626317.23045  21714402.5634                   21714400.0944
 11  8 12 19 46 30.0000000  0  7G17G07G08G11G24G26G28
  -9883742.78947  -7694977.99245  21816604.4144                   21816603.4534
   1417512.40247   1377495.22346  20751556.6024                   20751554.6294
  -4784180.11348  -5846977.21546  19944186.5474                   19944185.0664
   -687031.52747  -1750119.52745  21695878.2734                   21695876.3164
  -5302796.91447  -4128821.38744  21874254.0554                   21874254.2274
  -6124107.22347  -4767265.40644  22700994.3524                   22700993.3134
  -3936845.26647  -3630924.38745  21713277.3594                   21713275.1024
 11  8 12 19 47  0.0000000  0  7G17G07G08G11G24G26G28
  -9931966.16847  -7732554.59445  21807427.6644                   21807426.3244
   1485663.04347   1430599.57846  20764525.0314                   20764523.0314
  -4776285.37547  -5840825.48846  19945689.1724                   19945687.6764
   -633999.12947  -1708795.59045  21705970.0004                   21705968.0904
  -5298745.23847  -4125664.22344  21875024.9304                   21875024.9064
  -6122374.16047  -4765914.98444  22701323.5634                   22701323.5744
  -3942773.73847  -3635543.96145  21712149.0554                   21712146.8634
 11  8 12 19 47 30.0000000  0  7G17G07G08G11G24G26G28
  -9979882.54347  -7769891.96945  21798309.3754                   21798308.1804
   1554243.62147   1484038.94546  20777575.7814                   20777574.1134
  -4767910.37147  -5834299.52346  19947283.2424                   19947281.1954
   -580455.26647  -1667073.12145  21716158.9064                   21716156.5434
  -5294198.00047  -4122120.89144  21875890.5394                   21875889.9024
  -6120080.67647  -4764127.87544  22701759.4774                   22701760.0164
  -3948715.45747  -3640173.86345  21711018.6254                   21711015.7704
 11  8 12 19 48  0.0000000  0  7G17G07G08G11G24G26G28
 -10027489.88747  -7806988.53545  21789249.8054                   21789249.1804
   1623255.08647   1537814.07446  20790707.8134                   20790706.3204
  -4759052.21947  -5827397.08646  19948968.5234                   19948966.5274
   -526399.55547  -1624951.80145  21726445.3204                   21726443.5354
  -5289152.43447  -4118189.26244  21876850.3284                   21876850.0434
  -6117225.05947  -4761902.73444  22702303.3364                   22702303.7074
  -3954668.86747  -3644812.87945  21709885.6484                   21709883.5354
 11  8 12 19 48 30.0000000  0  7G17G07G08G11G24G26G28
 -10074787.77047  -7843843.97345  21780249.6174                   21780248.8324
   1692696.20347   1591923.99246  20803922.1884                   20803920.8794
  -4749709.97747  -5820117.43746  19950746.1334                   19950744.7034
   -471833.68447  -1582432.96545  21736828.7504                   21736827.2154
  -5283607.91447  -4113868.82845  21877905.7274                   21877904.7194
  -6113808.18047  -4759240.23844  22702954.1954                   22702953.3484
  -3960634.79347  -3649461.62945  21708750.3364                   21708748.1684
 11  8 12 19 49  0.0000000  0  7G17G07G08G11G24G26G28
 -10121780.66047  -7880461.76645  21771307.0944                   21771305.8714
   1762561.18047   1646364.18846  20817217.4694                   20817215.4064
  -4739886.88747  -5812463.09846  19952615.6884                   19952613.6604
   -416763.54747  -1539521.18044  21747308.4454                   21747306.3134
  -5277568.34847  -4109162.64544  21879054.6484                   21879054.8404
  -6109835.13746  -4756144.38744  22703710.1804                   22703709.1524
  -3966618.20747  -3654124.01245  21707611.6094                   21707609.5824
 11  8 12 19 49 30.0000000  0  7G17G07G08G11G24G26G28
 -10168469.04747  -7916842.26645  21762422.0784                   21762421.4454
   1832848.59847   1701133.56646  20830593.0394                   20830590.6764
  -4729582.62947  -5804433.82046  19954576.3594                   19954574.8014
   -361191.28947  -1496218.14144  21757883.6724                   21757881.2274
  -5271033.66847  -4104070.64844  21880298.7344                   21880297.9384
  -6105306.97746  -4752615.97344  22704571.3204                   22704570.9384
  -3972619.92247  -3658800.66045  21706469.7894                   21706467.1024
 11  8 12 19 50  0.0000000  0  7G17G07G08G11G24G26G28
 -10214846.45347  -7952980.45345  21753597.1414                   21753596.0274
   1903563.64547   1756236.15246  20844049.1804                   20844047.8444
  -4718789.73847  -5796023.79746  19956630.2734                   19956628.5904
   -305112.08647  -1452520.07045  21768555.4694                   21768553.0474
  -5263997.00447  -4098587.51644  21881637.4694                   21881637.3594
  -6100217.69547  -4748650.29744  22705539.6174                   22705539.6524
  -3978634.09847  -3663487.02045  21705325.0864                   21705322.3134
 11  8 12 19 50 30.0000000  0  7G17G07G08G11G24G26G28
 -10260914.05947  -7988877.23845  21744830.6414                   21744829.1954
   1974703.38347   1811669.66846  20857586.5474                   20857585.0434
  -4707508.87147  -5787233.52746  19958777.1024                   19958775.2584
   -248529.21147  -1408429.53545  21779322.7974                   21779320.7704
  -5256459.24647  -4092713.91444  21883071.1564                   21883071.3204
  -6094570.10547  -4744249.58644  22706614.8284                   22706614.4614
  -3984663.10547  -3668184.94145  21704178.0554                   21704175.1414
 11  8 12 19 51  0.0000000  0  7G17G07G08G11G24G26G28
 -10306667.45747  -8024529.18445  21736124.0084                   21736123.0594
   2046271.42647   1867436.92645  20871205.7584                   20871203.8364
  -4695734.62148  -5778058.79746  19961017.6804                   19961015.6684
   -191440.09047  -1363944.52045  21790186.8524                   21790183.9344
  -5248415.57847  -4086446.10244  21884602.4144                   21884602.1294
  -6088360.37947  -4739410.85544  22707795.6564                   22707795.7304
  -3990703.00847  -3672891.34445  21703028.5314                   21703025.8794
 11  8 12 19 51 30.0000000  0  7G17G07G08G11G24G26G28
 -10352104.26647  -8059934.44545  21727477.4694                   21727476.7304
   2118268.23447   1923538.28146  20884906.1484                   20884904.4494
  -4683463.65647  -5768497.02746  19963352.7894                   19963351.2114
   -133844.20747  -1319064.63345  21801146.6954                   21801143.7424
  -5239863.01647  -4079781.73444  21886229.8134                   21886229.6414
  -6081586.73847  -4734132.71144  22709084.7584                   22709085.5474
  -3996751.76647  -3677604.64845  21701877.3594                   21701875.0204
 11  8 12 19 52  0.0000000  0  7G17G07G08G11G24G26G28
 -10397219.61747  -8095089.19945  21718892.4454                   21718891.3134
   2190697.17247   1979976.35245  20898688.6254                   20898687.2274
  -4670690.60247  -5758544.00446  19965783.6564                   19965781.5354
    -75738.64147  -1273787.58644  21812203.9844                   21812201.2154
  -5230796.49647  -4072716.90244  21887955.0704                   21887954.8444
  -6074245.71547  -4728412.43744  22710481.9844                   22710481.9884
  -4002805.44147  -3682321.78945  21700725.2814                   21700722.9224
 11  8 12 19 52 30.0000000  0  7G17G07G08G11G24G26G28
 -10442015.75447  -8129995.23045  21710367.6174                   21710366.6914
   2263555.04747   2036748.67646  20912553.3754                   20912551.9454
  -4657416.79747  -5748200.79346  19968309.2424                   19968307.6214
    -17127.46947  -1228116.56245  21823357.0784                   21823355.2034
  -5221217.85947  -4065252.99244  21889778.2034                   21889777.2974
  -6066340.03947  -4722252.17644  22711986.6644                   22711986.4454
  -4008866.89547  -3687044.98845  21699571.8284                   21699569.5204
 11  8 12 19 53  0.0000000  0  7G17G07G08G11G24G26G28
 -10486499.25447  -8164657.64845  21701903.0084                   21701901.7624
   2336833.64847   2093848.82846  20926497.3524                   20926496.2894
  -4643648.06247  -5737471.93046  19970929.3754                   19970927.8954
     41980.61747  -1182058.33644  21834604.9144                   21834603.0274
  -5211133.50047  -4057395.02344  21891697.1174                   21891696.2774
  -6057877.75447  -4715658.18444  22713597.0004                   22713596.2774
  -4014943.23447  -3691779.78145  21698415.7424                   21698413.1644
 11  8 12 19 53 30.0000000  0  7G17G07G08G11G24G26G28
 -10530666.65247  -8199073.75045  21693498.0634                   21693496.9654
   2410535.69947   2151278.94546  20940522.8444                   20940521.3914
  -4629379.59047  -5726353.64846  19973644.5314                   19973643.1214
    101588.34447  -1135610.76644  21845947.9064                   21845945.4964
  -5200538.76247  -4049139.37144  21893712.9694                   21893712.6094
  -6048855.41846  -4708627.81244  22715313.9774                   22715313.2504
  -4021031.12147  -3696523.57445  21697257.2424                   21697254.3834
 11  8 12 19 54  0.0000000  0  7G17G07G08G11G24G26G28
 -10574515.95747  -8233241.99245  21685153.8444                   21685152.9064
   2484661.37147   2209039.15245  20954628.4384                   20954626.8484
  -4614608.90247  -5714844.02746  19976455.1254                   19976453.8054
    161695.14547  -1088774.30544  21857385.5164                   21857383.7854
  -5189431.60547  -4040484.41444  21895826.4534                   21895826.3244
  -6039272.37947  -4701160.53144  22717137.6254                   22717136.8054
  -4027129.18447  -3701275.29345  21696096.6564                   21696094.0204
 11  8 12 19 54 30.0000000  0  7G17G07G08G11G24G26G28
 -10618041.43747  -8267157.89545  21676871.1414                   21676869.9264
   2559215.05547   2267132.87546  20968815.8914                   20968814.2734
  -4599329.75847  -5702938.20746  19979362.7114                   19979360.8754
    222304.84447  -1041545.98444  21868919.0784                   21868917.3674
  -5177806.23847  -4031425.66445  21898038.7974                   21898037.9614
  -6029123.93046  -4693252.64544  22719068.6414                   22719068.2624
  -4033231.91847  -3706030.65645  21694935.5554                   21694932.9924
 11  8 12 19 55  0.0000000  0  7G17G07G08G11G24G26G28
 -10661242.87947  -8300821.30145  21668650.2114                   21668649.5084
   2634195.68047   2325559.27346  20983084.1644                   20983082.7034
  -4583540.71547  -5690635.06246  19982367.4844                   19982366.2814
    283415.70347   -993927.14844  21880548.4774                   21880546.7034
  -5165661.89547  -4021962.51644  21900349.3834                   21900349.5744
  -6018410.66846  -4684904.65644  22721107.0004                   22721106.9574
  -4039339.55147  -3710789.83645  21693773.1884                   21693770.4844
 11  8 12 19 55 30.0000000  0  7G17G07G08G11G24G26G28
 -10704116.57047  -8334229.32045  21660491.1804                   21660490.1174
   2709605.10547   2384319.80946  20997434.1174                   20997432.7464
  -4567238.00847  -5677931.67246  19985469.9064                   19985467.9924
    345029.55947   -945916.35544  21892273.0784                   21892271.2544
  -5152995.16447  -4012092.32045  21902760.7424                   21902759.7894
  -6007130.40247  -4676114.85244  22723253.8914                   22723253.3874
  -4045449.50047  -3715550.82845  21692610.8134                   21692608.3014
 11  8 12 19 56  0.0000000  0  7G17G07G08G11G24G26G28
 -10746662.75447  -8367382.15245  21652395.5474                   21652394.2154
   2785441.90247   2443413.37146  21011865.5944                   21011863.9884
  -4550420.60947  -5664827.21146  19988670.2584                   19988668.5984
    407144.34047   -897515.25844  21904093.1334                   21904091.1724
  -5139805.50047  -4001814.62944  21905269.4064                   21905269.6134
  -5995283.79747  -4666883.72744  22725508.6724                   22725508.3364
  -4051562.16847  -3720313.92645  21691447.0634                   21691444.7274
 11  8 12 19 56 30.0000000  0  7G17G07G08G11G24G26G28
 -10788876.06247  -8400275.58645  21644362.2114                   21644361.3244
   2861710.66847   2502843.52346  21026378.8834                   21026377.6564
  -4533081.89847  -5651316.53946  19991969.5944                   19991968.1054
    469763.72747   -848720.94144  21916009.1804                   21916007.3834
  -5126086.68447  -3991124.62144  21907880.7034                   21907880.3404
  -5982866.48046  -4657207.89144  22727870.9534                   22727870.8984
  -4057671.91447  -3725074.74645  21690284.3674                   21690281.8874
 11  8 12 19 57  0.0000000  0  7G17G07G08G11G24G26G28
 -10830749.71947  -8432904.34445  21636393.8754                   21636393.0634
   2938416.35247   2562614.14146  21040975.6484                   21040974.4414
  -4515215.02747  -5637394.31646  19995369.5084                   19995367.5904
    532892.46147   -799529.73044  21928022.3204                   21928020.0204
  -5111832.17247  -3980017.20345  21910593.2274                   21910592.8754
  -5969872.83247  -4647083.00444  22730343.2274                   22730343.1564
  -4063772.67647  -3729828.56645  21689123.6174                   21689121.1414
 11  8 12 19 57 30.0000000  0  7G17G07G08G11G24G26G28
 -10872282.91847  -8465267.83245  21628490.2504                   21628489.2304
   3015558.09047   2622724.53146  21055655.6804                   21055653.7624
  -4496818.51247  -5623059.37546  19998869.8674                   19998868.8594
    596529.30547   -749942.59044  21940131.8594                   21940129.4384
  -5097040.95347  -3968491.57044  21913407.6024                   21913407.4804
  -5956303.24146  -4636509.29744  22732926.3204                   22732926.0084
  -4069864.27347  -3734575.23445  21687964.4384                   21687962.0164
 11  8 12 19 58  0.0000000  0  7G17G07G08G11G24G26G28
 -10913474.57847  -8497365.17645  21620651.5864                   21620650.8134
   3093135.77047   2683174.62546  21070417.5004                   21070416.5434
  -4477890.07847  -5608309.95746  20002472.0314                   20002470.6094
    660673.43847   -699960.16444  21952338.2664                   21952336.1994
  -5081711.71947  -3956546.70344  21916324.7034                   21916324.5164
  -5942157.46546  -4625486.63344  22735617.6644                   22735617.7304
  -4075945.79747  -3739314.07845  21686807.1724                   21686804.4104
 11  8 12 19 58 30.0000000  0  7G17G07G08G11G24G26G28
 -10954318.67647  -8529191.69145  21612879.7974                   21612878.6484
   3171153.89547   2743967.91846  21085264.2114                   21085262.9144
  -4458423.01247  -5593140.82846  20006176.4924                   20006174.7344
    725328.95747   -649579.25444  21964641.9384                   21964639.6724
  -5065837.98447  -3944177.54744  21919345.8914                   21919344.9384
  -5927430.70346  -4614011.24644  22738420.5394                   22738419.9964
  -4082011.64147  -3744040.68045  21685652.4304                   21685650.1684
 11  8 12 19 59  0.0000000  0  7G17G07G08G11G24G26G28
 -10994811.74247  -8560744.67245  21605173.8364                   21605172.8204
   3249614.64847   2805106.11745  21100194.8364                   21100193.6484
  -4438413.39847  -5577548.92646  20009984.1954                   20009982.1994
    790497.56347   -598798.52344  21977042.9064                   21977040.7584
  -5049416.20747  -3931381.35245  21922470.3444                   21922469.9144
  -5912120.44146  -4602081.19544  22741333.6334                   22741333.5274
  -4088058.34047  -3748752.37945  21684502.0084                   21684499.3984
 11  8 12 19 59 30.0000000  0  7G17G07G08G11G24G26G28
 -11034950.52347  -8592021.58645  21597535.9224                   21597534.5314
   3328519.90247   2866590.68446  21115210.0554                   21115208.7544
  -4417857.14547  -5561531.07446  20013895.6884                   20013894.1374
    856180.59047   -547616.94544  21989542.0474                   21989539.8794
  -5032442.69547  -3918155.22744  21925700.8524                   21925700.1024
  -5896224.53946  -4589694.77744  22744358.6334                   22744358.7344
  -4094082.53947  -3753446.53945  21683355.3594                   21683353.2704
 11  8 12 20  0  0.0000000  0  7G17G07G08G11G24G26G28
 -11074740.27747  -8623026.53545  21589963.9844                   21589962.5984
   3407862.88747   2928416.33645  21130308.3754                   21130307.2584
  -4396758.85247  -5545090.85546  20017911.4224                   20017909.0864
    922370.78147   -496040.17644  22002137.7034                   22002135.6024
  -5014922.57447  -3904503.18744  21929034.7894                   21929034.1524
  -5879749.44946  -4576857.07044  22747493.2974                   22747493.4534
  -4100090.23847  -3758127.84845  21682212.7504                   21682210.1094
 11  8 12 20  0 30.0000000  0  7G17G07G08G11G24G26G28
 -11114177.60947  -8653756.87545  21582459.0864                   21582457.8594
   3487645.57047   2990584.60545  21145490.7504                   21145489.6454
  -4375114.68747  -5528225.28946  20022029.9534                   20022028.2774
    989069.50047   -444067.14545  22014830.3754                   22014828.0124
  -4996852.19147  -3890422.35544  21932473.5394                   21932472.9924
  -5862692.94146  -4563566.30944  22750740.4384                   22750739.3594
  -4106078.37147  -3762793.91445  21681072.8054                   21681070.0084
 11  8 12 20  1  0.0000000  0  7G17G07G08G11G24G26G28
 -11153261.57447  -8684211.85245  21575021.7814                   21575020.7034
   3567867.38747   3053095.06345  21160756.2734                   21160755.1524
  -4352922.68047  -5510932.82446  20026252.8914                   20026251.2664
   1056275.84447   -391698.57044  22027619.2734                   22027616.4884
  -4978230.30947  -3875911.79744  21936016.3834                   21936015.8244
  -5845054.87547  -4549822.37144  22754096.1254                   22754096.1294
  -4112045.49647  -3767443.59845  21679937.6644                   21679934.8324
 11  8 12 20  1 30.0000000  0  7G17G07G08G11G24G26G28
 -11191993.21547  -8714392.30545  21567651.6884                   21567650.0664
   3648525.72347   3115945.66045  21176105.0234                   21176103.6294
  -4330183.55147  -5493214.03146  20030580.0554                   20030577.7704
   1123986.29347   -338937.17244  22040503.9454                   22040501.8244
  -4959058.21147  -3860972.50444  21939664.5084                   21939664.6524
  -5826838.00847  -4535627.40644  22757562.7894                   22757562.6214
  -4117993.21147  -3772078.16845  21678805.8364                   21678802.8754
 11  8 12 20  2  0.0000000  0  7G17G07G08G11G24G26G28
 -11230370.75447  -8744296.83245  21560348.2424                   21560346.6374
   3729621.09447   3179136.80945  21191537.1804                   21191535.4654
  -4306894.42247  -5475066.67246  20035011.6724                   20035009.7114
   1192201.49647   -285782.47344  22053484.4454                   22053482.7664
  -4939333.55947  -3845602.64844  21943418.5084                   21943417.8364
  -5808041.06646  -4520980.44944  22761139.2114                   22761139.4384
  -4123919.82447  -3776696.30145  21677678.1334                   21677675.4104
 11  8 12 20  2 30.0000000  0  7G17G07G08G11G24G26G28
 -11268391.96547  -8773923.68745  21553113.3054                   21553111.4384
   3811154.39547   3242669.20345  21207052.1024                   21207051.5204
  -4283052.31647  -5456488.41846  20039549.0474                   20039547.2664
   1260921.45347   -232234.45744  22066561.6804                   22066559.6914
  -4919054.28947  -3829800.61344  21947278.0314                   21947277.0554
  -5788663.35946  -4505880.96144  22764826.7344                   22764827.1254
  -4129823.12547  -3781296.26245  21676554.4064                   21676552.1254
 11  8 12 20  3  0.0000000  0  7G17G07G08G11G24G26G28
 -11306055.71147  -8803272.03145  21545945.3594                   21545944.4924
   3893124.98447   3306542.33245  21222651.3594                   21222650.0904
  -4258656.37147  -5437478.60246  20044191.0554                   20044189.2194
   1330144.70347   -178294.25844  22079734.5234                   22079732.9064
  -4898219.34446  -3813565.59044  21951242.2814                   21951241.7384
  -5768705.28546  -4490329.22744  22768624.9224                   22768624.8014
  -4135702.72747  -3785877.76645  21675435.5634                   21675433.2384
 11  8 12 20  3 30.0000000  0  7G17G07G08G11G24G26G28
 -11343371.81247  -8832349.46545  21538844.6254                   21538843.1764
   3975521.75047   3370747.53945  21238330.7034                   21238329.4654
  -4233715.00447  -5418043.78146  20048937.2274                   20048935.6564
   1399860.02347   -123970.63744  22093001.0864                   22092998.7854
  -4876837.94947  -3796904.77345  21955311.5474                   21955310.2344
  -5748177.37146  -4474333.45744  22772530.6334                   22772531.4104
  -4141567.62947  -3790447.80545  21674319.5394                   21674316.8914
 11  8 12 20  4  0.0000000  0  7G17G07G08G11G24G26G28
 -11380335.24247  -8861152.10945  21531810.8444                   21531809.8714
   4058348.50847   3435287.81645  21254092.3444                   21254090.9574
  -4208222.09447  -5398179.19546  20053788.8524                   20053786.7274
   1470070.64147    -69261.06244  22106361.5704                   22106359.3284
  -4854904.74247  -3779813.96944  21959485.1254                   21959484.3674
  -5727075.63746  -4457890.55144  22776546.3444                   22776546.8014
  -4147412.77747  -3795002.44945  21673207.3284                   21673204.7114
 11  8 12 20  4 30.0000000  0  7G17G07G08G11G24G26G28
 -11416945.11347  -8889679.24645  21524844.1334                   21524842.8594
   4141604.47747   3500162.53546  21269934.9534                   21269933.8404
  -4182176.68447  -5377884.08246  20058744.4454                   20058742.8484
   1540775.09447    -14166.68044  22119816.0314                   22119814.1914
  -4832418.98847  -3762292.60545  21963763.4384                   21963762.7894
  -5705400.90246  -4441001.16844  22780670.8754                   22780671.1524
  -4153237.81647  -3799541.42245  21672098.8444                   21672096.2114
 11  8 12 20  5  0.0000000  0  7G17G07G08G11G24G26G28
 -11453197.68447  -8917927.96545  21517945.0704                   21517943.8444
   4225292.02047   3565373.55545  21285860.3054                   21285859.7934
  -4155574.40647  -5357155.05546  20063806.7894                   20063805.3164
   1611975.28547     41313.98444  22133365.0634                   22133363.5354
  -4809376.62547  -3744337.51244  21968148.6334                   21968148.0664
  -5683150.38646  -4423663.13144  22784904.9304                   22784905.1604
  -4159038.55547  -3804061.46145  21670995.1954                   21670992.2704
 11  8 12 20  5 30.0000000  0  7G17G07G08G11G24G26G28
 -11489099.00447  -8945902.97745  21511113.4774                   21511112.9344
   4309403.66047   3630915.03145  21301866.8364                   21301865.1294
  -4128420.95347  -5335996.53146  20068973.9384                   20068972.4614
   1683663.34047     97174.80144  22147006.6884                   22147005.0664
  -4785783.75447  -3725953.46944  21972638.2114                   21972637.4454
  -5660331.20346  -4405881.95744  22789247.7034                   22789247.6134
  -4164821.22347  -3808567.41845  21669894.7344                   21669891.3094
 11  8 12 20  6  0.0000000  0  7G17G07G08G11G24G26G28
 -11524650.70347  -8973605.56245  21504348.3134                   21504346.8954
   4393936.17247   3696784.46945  21317952.2664                   21317951.3094
  -4100717.18447  -5314409.19146  20074246.0634                   20074244.0474
   1755835.60947    153412.92244  22160741.1254                   22160738.6054
  -4761642.07847  -3707141.77044  21977231.8984                   21977231.5164
  -5636946.92646  -4387660.45744  22793697.9614                   22793697.6994
  -4170587.52347  -3813060.62145  21668797.0554                   21668794.5704
 11  8 12 20  6 30.0000000  0  7G17G07G08G11G24G26G28
 -11559848.80947  -9001032.61345  21497650.3594                   21497648.8984
   4478891.79747   3762983.60545  21334119.3284                   21334117.6484
  -4072458.79347  -5292389.68446  20079623.6484                   20079621.9304
   1828493.51247    210029.46144  22174566.9064                   22174564.8054
  -4736947.74247  -3687899.41844  21981931.9924                   21981930.8914
  -5612994.57846  -4368996.30544  22798255.2974                   22798255.5824
  -4176333.22347  -3817537.76245  21667703.4064                   21667701.2464
 11  8 12 20  7  0.0000000  0  7G17G07G08G11G24G26G28
 -11594690.39547  -9028181.85945  21491020.2114                   21491018.7664
   4564272.34847   3829513.85245  21350366.6724                   21350365.1024
  -4043641.82847  -5269934.91046  20085107.4694                   20085105.3054
   1901638.46547    267025.51644  22188485.5634                   22188483.7074
  -4711697.50847  -3668223.89844  21986735.9064                   21986735.4024
  -5588472.12146  -4349887.91044  22802922.4844                   22802921.5944
  -4182054.77347  -3821996.08645  21666614.8204                   21666612.3714
 11  8 12 20  7 30.0000000  0  7G17G07G08G11G24G26G28
 -11629164.81647  -9055045.00045  21484459.9304                   21484458.6564
   4650086.89847   3896382.28145  21366696.5234                   21366695.2344
  -4014255.21147  -5247036.25846  20090699.1884                   20090696.9774
   1975278.99247    324407.74244  22202499.3364                   22202497.2894
  -4685880.51247  -3648106.74244  21991648.6484                   21991648.5394
  -5563370.58246  -4330328.28944  22807698.3984                   22807698.4774
  -4187742.16047  -3826427.78545  21665532.7114                   21665530.3484
 11  8 12 20  8  0.0000000  0  7G17G07G08G11G24G26G28
 -11663280.03147  -9081628.23445  21477967.8834                   21477966.8594
   4736325.83247   3963581.39545  21383107.3134                   21383105.8674
  -3984306.64547  -5223699.72346  20096398.9614                   20096396.9804
   2049404.79347    382168.09444  22216605.2974                   22216602.9614
  -4659504.98047  -3627554.36744  21996668.0164                   21996667.8794
  -5537699.27046  -4310324.69944  22812583.9454                   22812584.1914
  -4193403.33247  -3830839.06645  21664455.3364                   21664452.3284
 11  8 12 20  8 30.0000000  0  7G17G07G08G11G24G26G28
 -11697029.25047  -9107926.27345  21471545.6644                   21471544.4804
   4822994.37147   4031115.27345  21399599.8054                   21399598.4344
  -3953788.53947  -5199919.39146  20102205.5394                   20102203.5434
   2124021.05147    440310.63344  22230804.4844                   22230801.8244
  -4632564.32047  -3606561.61345  22001794.5864                   22001794.2504
  -5511452.96946  -4289873.04344  22817578.1724                   22817578.4574
  -4199030.91047  -3835224.16845  21663384.2034                   21663381.6884
 11  8 12 20  9  0.0000000  0  7G17G07G08G11G24G26G28
 -11730409.89547  -9133937.11745  21465193.5234                   21465192.0984
   4910094.05947   4098985.10945  21416174.3284                   21416173.2624
  -3922697.73847  -5175692.80946  20108121.6414                   20108120.0704
   2199128.50047    498835.90244  22245096.6094                   22245094.3874
  -4605055.41447  -3585126.08244  22007029.7424                   22007029.0044
  -5484629.60546  -4268971.71944  22822682.7274                   22822682.6564
  -4204621.77047  -3839580.65245  21662320.5084                   21662317.8284
 11  8 12 20  9 30.0000000  0  7G17G07G08G11G24G26G28
 -11763420.51647  -9159659.62545  21458911.8754                   21458910.2464
   4997624.71147   4167190.77345  21432831.0394                   21432829.3204
  -3891032.86748  -5151018.89546  20114147.5704                   20114146.1214
   2274726.18847    557743.19144  22259482.6804                   22259479.9844
  -4576977.17647  -3563246.90644  22012372.4844                   22012372.1374
  -5457229.80546  -4247621.23844  22827896.8444                   22827896.8014
  -4210174.85247  -3843907.69945  21661264.0234                   21661261.0044
 11  8 12 20 10  0.0000000  0  7G17G07G08G11G24G26G28
 -11796056.28947  -9185090.04345  21452701.1484                   21452699.9654
   5085589.68447   4235734.87545  21449570.5234                   21449568.8014
  -3858788.09047  -5125893.10946  20120283.7734                   20120281.6374
   2350817.10247    617034.81644  22273961.9224                   22273959.6484
  -4548324.80947  -3540920.34844  22017824.9454                   22017824.4574
  -5429249.86347  -4225818.70744  22833221.0944                   22833220.9884
  -4215684.70347  -3848201.07045  21660215.1804                   21660212.7274
 11  8 12 20 10 30.0000000  0  7G17G07G08G11G24G26G28
 -11828313.71147  -9210225.64145  21446562.1414                   21446561.2114
   5173990.77347   4304618.82045  21466392.2344                   21466391.4964
  -3825959.30147  -5100312.25446  20126530.2114                   20126528.8634
   2427402.68447    676711.89144  22288535.6644                   22288533.4104
  -4519094.53946  -3518143.48044  22023387.0784                   22023386.8014
  -5400687.62946  -4203562.42244  22838656.4924                   22838656.0514
  -4221147.39847  -3852457.69545  21659176.0394                   21659172.9494
 11  8 12 20 11  0.0000000  0  7G17G07G08G11G24G26G28
 -11860196.77047  -9235069.53145  21440496.1414                   21440494.2034
   5262822.29347   4373838.14845  21483296.8204                   21483295.2274
  -3792550.24248  -5074279.22346  20132887.6954                   20132886.1484
   2504476.87147    736769.70344  22303202.7034                   22303200.2074
  -4489290.79347  -3494919.73844  22029058.9384                   22029057.8324
  -5371548.83646  -4180856.87544  22844201.1024                   22844200.9734
  -4226567.08647  -3856680.80145  21658144.6644                   21658141.6094
 11  8 12 20 11 30.0000000  0  7G17G07G08G11G24G26G28
 -11891714.00847  -9259628.37545  21434497.8674                   21434496.6214
   5352074.40247   4443385.21545  21500280.4384                   21500279.0784
  -3758569.10948  -5047800.43446  20139354.5164                   20139352.8794
   2582029.12547    797200.02344  22317960.4694                   22317957.7274
  -4458921.90647  -3471255.62944  22034837.0634                   22034837.1954
  -5341843.16446  -4157709.62144  22849853.1174                   22849853.0664
  -4231952.00447  -3860876.81245  21657120.1254                   21657116.7934
 11  8 12 20 12  0.0000000  0  7G17G07G08G11G24G26G28
 -11922863.48447  -9283900.64546  21428570.8674                   21428569.0274
   5441747.61747   4513260.39545  21517344.8204                   21517343.7424
  -3724013.14147  -5020873.71946  20145930.5394                   20145928.4844
   2660059.27047    858002.72744  22332809.0704                   22332806.7304
  -4427986.14847  -3447149.81244  22040724.6564                   22040723.6024
  -5311570.14546  -4134120.26644  22855614.6884                   22855614.7154
  -4237299.46547  -3865043.63745  21656102.0234                   21656099.8164
 11  8 12 20 12 30.0000000  0  7G17G07G08G11G24G26G28
 -11953644.14847  -9307885.52746  21422712.9774                   21422711.6024
   5531841.30147   4583463.22345  21534489.6954                   21534487.8244
  -3688881.31247  -4993498.27746  20152615.6024                   20152614.0274
   2738566.46547    919177.15244  22347748.2664                   22347746.1604
  -4396482.63347  -3422601.57444  22046719.4224                   22046718.5554
  -5280730.13746  -4110089.10244  22861483.6724                   22861483.4454
  -4242608.09847  -3869180.20345  21655092.3444                   21655088.9414
 11  8 12 20 13  0.0000000  0  7G17G07G08G11G24G26G28
 -11984059.43047  -9331585.70345  21416925.2974                   21416923.6454
   5622350.64547   4653989.93445  21551713.2114                   21551711.6604
  -3653176.47348  -4965676.33646  20159410.4844                   20159408.6414
   2817544.98447    980718.84444  22362777.4064                   22362775.2034
  -4364414.82847  -3397613.64844  22052821.8134                   22052821.1684
  -5249327.99246  -4085619.93444  22867459.6254                   22867459.1564
  -4247881.25047  -3873289.13345  21654088.5394                   21654086.1764
 11  8 12 20 13 30.0000000  0  7G17G07G08G11G24G26G28
 -12014097.58647  -9354992.02345  21411209.3134                   21411207.5274
   5713286.02747   4724848.63345  21569017.1024                   21569015.8914
  -3616886.10247  -4937398.14546  20166315.8754                   20166314.5164
   2897005.03147   1042635.74644  22377898.6954                   22377895.9264
  -4331770.84447  -3372176.74644  22059033.6254                   22059032.7854
  -5217353.30946  -4060704.61744  22873543.3444                   22873544.5274
  -4253106.67647  -3877360.86345  21653093.7504                   21653091.5904
 11  8 12 20 14  0.0000000  0  7G17G07G08G11G24G26G28
 -12043761.39847  -9378106.64145  21405564.2734                   21405562.8404
   5804642.91047   4796035.77045  21586401.6174                   21586400.6414
  -3580012.70747  -4908665.64146  20173332.4534                   20173331.0354
   2976941.42247   1104923.81644  22393109.5474                   22393107.3794
  -4298554.09847  -3346293.54344  22065354.2424                   22065353.9534
  -5184810.64846  -4035346.71944  22879736.0394                   22879736.0704
  -4258286.61347  -3881397.14845  21652108.4534                   21652105.9304
 11  8 12 20 14 30.0000000  0  7G17G07G08G11G24G26G28
 -12073054.57047  -9400932.45345  21399989.7114                   21399988.1914
   5896416.03147   4867547.23045  21603865.5084                   21603864.3554
  -3542560.09047  -4879481.80546  20180459.8674                   20180458.2074
   3057348.31647   1167578.53144  22408410.5164                   22408407.9804
  -4264768.40647  -3319967.01645  22071783.8444                   22071783.0704
  -5151705.02747  -4009550.16844  22886036.2584                   22886035.8554
  -4263424.31647  -3885400.52045  21651130.3524                   21651127.9064
 11  8 12 20 15  0.0000000  0  7G17G07G08G11G24G26G28
 -12101981.27347  -9423472.69546  21394485.6254                   21394483.9414
   5988600.03547   4939378.87945  21621407.7114                   21621406.0594
  -3504531.33248  -4849849.03146  20187696.4384                   20187694.8244
   3138219.71147   1230595.16044  22423800.0864                   22423797.2814
  -4230417.68747  -3293200.18444  22078320.6094                   22078319.6764
  -5118041.89146  -3983319.16444  22892442.6564                   22892442.4734
  -4268523.09047  -3889373.56645  21650160.1334                   21650157.4884
 11  8 12 20 15 30.0000000  0  7G17G07G08G11G24G26G28
 -12130538.32047  -9445724.89845  21389050.8914                   21389049.3834
   6081196.37947   5011531.81345  21639028.4144                   21639027.6484
  -3465923.48047  -4819765.01646  20195043.4534                   20195041.5944
   3219556.85247   1293974.74244  22439277.9774                   22439275.6484
  -4195499.07847  -3265990.84844  22084965.1414                   22084964.7814
  -5083819.83646  -3956652.66444  22898955.0084                   22898954.7814
  -4273579.70747  -3893313.76645  21649198.1024                   21649195.6024
 11  8 12 20 16  0.0000000  0  7G17G07G08G11G24G26G28
 -12158716.43447  -9467681.82846  21383688.6414                   21383687.4694
   6174212.65647   5084011.98045  21656728.4774                   21656727.5204
  -3426726.78947  -4789222.15246  20202501.9844                   20202500.6914
   3301366.89147   1357722.80144  22454845.9454                   22454843.6954
  -4160003.56247  -3238331.98044  22091719.8134                   22091719.0784
  -5049031.21946  -3929544.68444  22905575.0004                   22905575.3134
  -4278584.35947  -3897213.45345  21648245.3984                   21648242.8404
 11  8 12 20 16 30.0000000  0  7G17G07G08G11G24G26G28
 -12186516.96547  -9489344.55146  21378398.8134                   21378397.2074
   6267646.03547   5156817.15645  21674508.6024                   21674507.2194
  -3386941.94147  -4758221.00046  20210073.2424                   20210071.6094
   3383646.32447   1421836.62144  22470502.8674                   22470501.2814
  -4123932.76247  -3210224.84044  22098583.5234                   22098583.0864
  -5013678.69946  -3901997.29744  22912302.0314                   22912301.5864
  -4283537.94947  -3901073.37545  21647303.2814                   21647300.3714
 11  8 12 20 17  0.0000000  0  7G17G07G08G11G24G26G28
 -12213939.22347  -9510712.50845  21373180.4384                   21373178.9964
   6361495.66047   5229946.68045  21692367.8524                   21692366.5634
  -3346567.96947  -4726760.78146  20217756.0944                   20217754.1644
   3466393.90647   1486315.23844  22486249.3284                   22486246.8794
  -4087286.01247  -3181668.90644  22105557.1954                   22105556.6564
  -4977763.14547  -3874011.19144  22919136.0944                   22919136.8404
  -4288438.88747  -3904892.27745  21646370.3204                   21646367.4964
 11  8 12 20 17 30.0000000  0  7G17G07G08G11G24G26G28
 -12240984.24247  -9531786.52045  21368033.9224                   21368032.6294
   6455759.35947   5303398.85945  21710304.8914                   21710304.3284
  -3305605.79348  -4694842.22746  20225550.7274                   20225549.2034
   3549606.61747   1551156.28544  22502084.1954                   22502082.1454
  -4050064.44947  -3152665.07444  22112640.3284                   22112639.7664
  -4941287.18747  -3845588.41444  22926078.2034                   22926077.2624
  -4293287.69947  -3908670.54745  21645447.8834                   21645444.6884
 11  8 12 20 18  0.0000000  0  7G17G07G08G11G24G26G28
 -12267650.60547  -9552565.48046  21362959.4064                   21362957.7854
   6550436.85547   5377173.47345  21728322.0634                   21728320.8984
  -3264053.28948  -4662463.66046  20233458.0234                   20233456.2704
   3633283.85947   1616359.29744  22518007.5394                   22518005.4804
  -4012266.89547  -3123212.41044  22119833.1024                   22119832.7974
  -4904250.77746  -3816728.90644  22933124.6094                   22933125.8284
  -4298082.27347  -3912406.55545  21644535.0394                   21644532.3984
 11  8 12 20 18 30.0000000  0  7G17G07G08G11G24G26G28
 -12293936.75447  -9573048.16445  21357956.7814                   21357956.1214
   6645528.05547   5451270.46145  21746417.2344                   21746416.1684
  -3221909.21547  -4629624.14146  20241477.9224                   20241476.1024
   3717425.10547   1681923.89144  22534019.1484                   22534016.6024
  -3973892.07047  -3093309.93044  22127135.9304                   22127134.7194
  -4866653.98446  -3787432.73844  22940280.0314                   22940279.3364
  -4302820.68047  -3916098.80145  21643633.9224                   21643630.7854
 11  8 12 20 19  0.0000000  0  7G17G07G08G11G24G26G28
 -12319835.59847  -9593229.05146  21353028.8914                   21353027.2704
   6741038.49247   5525694.12945  21764591.7664                   21764591.5434
  -3179166.00447  -4596317.75846  20249611.3594                   20249609.8674
   3802035.23847   1747853.85544  22550120.1024                   22550117.1604
  -3934933.29347  -3062952.40245  22134549.0314                   22134548.5984
  -4828491.51647  -3757695.77044  22947542.2894                   22947542.1884
  -4307495.25447  -3919741.30545  21642744.0394                   21642741.5664
 11  8 12 20 19 30.0000000  0  7G17G07G08G11G24G26G28
 -12345349.39547  -9613109.89845  21348173.8284                   21348172.2814
   6836964.18847   5600441.35945  21782846.2194                   21782845.5124
  -3135825.66847  -4562546.08646  20257858.6884                   20257857.8674
   3887109.97347   1814145.84844  22566308.7974                   22566306.8914
  -3895393.15647  -3032141.89545  22142073.7344                   22142073.1724
  -4789767.28946  -3727521.09844  22954910.3284                   22954910.8484
  -4312107.18747  -3923334.99245  21641867.0944                   21641863.7274
 11  8 12 20 20  0.0000000  0  7G17G07G08G11G24G26G28
 -12370475.07847  -9632688.30145  21343392.2814                   21343390.5514
   6933306.91447   5675513.55945  21801180.0394                   21801178.8674
  -3091884.49247  -4528306.21946  20266220.8054                   20266218.7344
   3972650.70747   1880800.95744  22582586.5084                   22582584.7384
  -3855268.77747  -3000876.12144  22149708.5864                   22149708.2344
  -4750479.53946  -3696907.27344  22962387.3444                   22962387.5004
  -4316652.78947  -3926876.99645  21641001.2664                   21640998.3524
 11  8 12 20 20 30.0000000  0  7G17G07G08G11G24G26G28
 -12395203.72747  -9651957.33646  21338686.8834                   21338684.9384
   7030074.06347   5750916.47745  21819593.7734                   21819593.0594
  -3047333.76247  -4493591.37146  20274698.6884                   20274697.0554
   4058663.92647   1947824.21144  22598955.5004                   22598952.6914
  -3814551.46147  -2969148.33644  22157457.3054                   22157457.0434
  -4710621.05146  -3665848.73844  22969972.6024                   22969972.1604
  -4321122.58247  -3930359.91845  21640150.6414                   21640148.2734
 11  8 12 20 21  0.0000000  0  7G17G07G08G11G24G26G28
 -12419540.85547  -9670921.28545  21334055.3134                   21334053.4104
   7127258.40647   5826644.48045  21838087.3524                   21838086.5704
  -3002178.44547  -4458405.42646  20283291.4304                   20283289.4224
   4145141.94547   2015209.67244  22615411.7194                   22615408.1134
  -3773247.12547  -2936963.11344  22165316.9384                   22165316.3714
  -4670199.07047  -3634351.12544  22977664.6884                   22977663.9304
  -4325521.30147  -3933787.47745  21639313.5164                   21639310.8754
 11  8 12 20 21 30.0000000  0  7G17G07G08G11G24G26G28
 -12443483.48447  -9689577.82846  21329499.3674                   21329497.1684
   7224861.28947   5902698.61345  21856661.1094                   21856660.0004
  -2956415.68447  -4422746.14146  20291999.5084                   20291998.1644
   4232086.52047   2082958.68444  22631955.8594                   22631953.9384
  -3731352.90247  -2904318.25045  22173289.1644                   22173288.7734
  -4629212.23847  -3602413.37144  22985463.9534                   22985463.8554
  -4329845.13747  -3937156.68445  21638491.2114                   21638488.3324
 11  8 12 20 22  0.0000000  0  7G17G07G08G11G24G26G28
 -12467037.94947  -9707931.91046  21325016.9534                   21325014.8594
   7322875.77047   5979073.46145  21875312.5084                   21875311.6254
  -2910051.44947  -4386618.19146  20300822.3674                   20300820.9614
   4319488.78547   2151064.33644  22648588.6024                   22648585.2074
  -3688875.30547  -2871218.80945  22181372.3134                   22181371.6094
  -4587667.95347  -3570041.25444  22993369.5554                   22993369.3404
  -4334099.35247  -3940471.64145  21637681.1024                   21637678.4534
 11  8 12 20 22 30.0000000  0  8G17G07G08G11G04G24G26G28
 -12490192.91447  -9725974.68746  21320610.8444                   21320609.2974
   7421310.32447   6055775.66045  21894044.1024                   21894042.8714
  -2863074.16847  -4350012.52746  20309761.8054                   20309760.1724
   4407357.80147   2219533.69944  22665309.1334                   22665306.5864
  -3327609.56616                  24696239.898
  -3645803.69547  -2837656.50045  22189569.0554                   22189567.8364
  -4545557.39847  -3537227.87944  23001382.4304                   23001383.0474
  -4338272.00047  -3943723.03545  21636887.2274                   21636884.5434
 11  8 12 20 23  0.0000000  0  8G17G07G08G11G04G24G26G28
 -12512955.32447  -9743711.58645  21316278.9614                   21316277.2504
   7520157.15647   6132799.10245  21912853.7034                   21912852.6054
  -2815490.57047  -4312934.41846  20318817.4224                   20318815.3244
   4495684.69947   2288359.82444  22682116.8674                   22682114.1334
  -3424880.820 6                  24677729.375
  -3602145.34447  -2803636.98845  22197876.3524                   22197876.0824
  -4502888.62546  -3503979.52344  23009501.9924                   23009502.2114
  -4342369.45347  -3946915.84045  21636107.7664                   21636104.9844
 11  8 12 20 23 30.0000000  0  8G17G07G08G11G04G24G26G28
 -12535328.97347  -9761145.55546  21312021.4304                   21312020.1214
   7619410.61747   6210139.39845  21931741.0234                   21931740.0744
  -2767304.70747  -4275387.02046  20327986.7034                   20327984.8484
   4584463.69147   2357538.25444  22699011.6644                   22699008.7894
  -3522190.76246  -2735334.89853  24659212.8914                   24659218.3444
  -3557904.49247  -2769163.59445  22206294.8524                   22206294.5824
  -4459667.60246  -3470300.83244  23017726.9844                   23017727.5864
  -4346394.45747  -3950052.18445  21635342.0004                   21635338.6844
 11  8 12 20 24  0.0000000  0  8G17G07G08G11G04G24G26G28
 -12557316.57847  -9778278.71546  21307837.0474                   21307835.5084
   7719066.49647   6287793.27345  21950705.2344                   21950704.3404
  -2718518.97747  -4237372.18746  20337269.7194                   20337268.1134
   4673690.00847   2427065.25844  22715989.7584                   22715987.2664
  -3619539.17646  -2811190.52042  24640687.0864                   24640693.0354
  -3513084.22347  -2734238.69945  22214824.4224                   22214823.5664
  -4415898.46146  -3436195.07044  23026055.9144                   23026056.3634
  -4350348.79347  -3953133.46545  21634588.9774                   21634586.6454
 11  8 12 20 24 30.0000000  0  8G17G07G08G11G04G24G26G28
 -12578912.91847  -9795106.99646  21303727.4924                   21303725.6804
   7819128.73447   6365763.79345  21969746.5394                   21969745.5204
  -2669127.37947  -4198885.25046  20346668.5864                   20346667.4494
   4763367.25447   2496943.62544  22733055.0864                   22733053.1914
  -3716917.42646  -2887069.40243  24622156.9064                   24622162.2544
  -3467679.35947  -2698858.27344  22223463.8524                   22223463.3834
  -4371577.47746  -3401659.27344  23034490.0704                   23034491.0434
  -4354226.09847  -3956154.73445  21633851.4534                   21633848.8324
 11  8 12 20 25  0.0000000  0  8G17G07G08G11G04G24G26G28
 -12600114.89547  -9811627.98846  21299692.8754                   21299691.5434
   7919599.09047   6444052.31645  21988865.2274                   21988864.3714
  -2619126.95747  -4159923.91846  20356183.9454                   20356182.3794
   4853496.17647   2567173.93444  22750206.2894                   22750203.8404
  -3814320.17246  -2962967.35943  24603621.3834                   24603627.3054
  -3421687.40247  -2663020.37545  22232216.6094                   22232215.8594
  -4326703.32846  -3366692.44544  23043029.3834                   23043029.7624
  -4358022.66447  -3959113.07845  21633129.3284                   21633125.6094
 11  8 12 20 25 30.0000000  0  8G17G07G08G11G04G24G26G28
 -14196347.16847 -11055445.32046  20995940.1174                   20995937.9304
   6445055.07047   5295056.91445  21708268.9064                   21708267.8714
  -4143940.02748  -5348089.97346  20066021.3914                   20066020.2854
   3368653.87147   1410153.93044  22467650.7114                   22467648.3984
  -5487171.34846  -4266487.48043  24285288.1954                   24285294.7114
  -4950531.05547  -3854327.09045  21941287.1334                   21941286.2894
  -5856700.18446  -4558897.83244  22751881.0864                   22751881.1374
  -5937161.57447  -5189610.91845  21332628.6334                   21332626.0944
 11  8 12 20 26  0.0000000  0  8G17G07G08G11G04G24G26G28
 -14216764.26247 -11071354.71946  20992055.0784                   20992053.1914
   6546332.59047   5373974.39545  21727541.1804                   21727540.5864
  -4092726.31347  -5308183.21546  20075766.9224                   20075765.8714
   3459676.48447   1481080.62944  22484971.0164                   22484968.7344
  -5584617.57846  -4342419.38343  24266744.8674                   24266750.7704
  -4903369.77047  -3817578.02745  21950261.5084                   21950260.6564
  -5810728.75447  -4523075.98444  22760629.0084                   22760628.8404
  -5940797.26647  -5192443.91445  21331936.7194                   21331934.0204
 11  8 12 20 26 30.0000000  0  8G17G07G08G11G04G24G26G28
 -14236787.80147 -11086957.45346  20988244.2814                   20988242.6334
   6648012.44147   5453205.37945  21746890.8204                   21746889.5784
  -4040904.18447  -5267802.35946  20085628.7814                   20085626.8324
   3551143.63747   1552353.72343  22502376.7814                   22502374.6174
  -5682079.85246  -4418363.72343  24248197.6644                   24248203.9414
  -4855623.36347  -3780373.02745  21959347.5004                   21959346.4454
  -5764209.99246  -4486827.62144  22769481.0474                   22769481.5554
  -5944349.81347  -5195212.12545  21331260.6334                   21331258.5354
 11  8 12 20 27  0.0000000  0  8G17G07G08G11G04G24G26G28
 -14256423.01647 -11102257.59446  20984507.9534                   20984506.2384
   6750087.99247   5532744.69545  21766314.6484                   21766314.0984
  -3988478.90247  -5226951.52046  20095604.7424                   20095603.1134
   3643048.34447   1623967.75844  22519865.9774                   22519863.2734
  -5779560.71546  -4494322.59842  24229648.5554                   24229653.1604
  -4807297.65647  -3742716.62144  21968543.3594                   21968542.7544
  -5717151.15647  -4450158.44144  22778436.4224                   22778436.9924
  -5947823.89847  -5197919.19145  21330599.8444                   21330596.5634
 11  8 12 20 27 30.0000000  0  8G17G07G08G11G04G24G26G28
 -14275672.15647 -11117256.89146  20980845.3364                   20980843.2114
   6852555.12147   5612589.14145  21785813.9304                   21785813.0904
  -3935453.14848  -5185632.77346  20105695.2504                   20105693.8954
   3735386.41846   1695919.46943  22537437.4224                   22537435.3134
  -5877059.52045  -4570295.46142  24211093.5084                   24211099.9384
  -4758395.53947  -3704611.06644  21977848.9844                   21977848.6484
  -5669556.20346  -4413071.49644  22787493.1024                   22787493.3914
  -5951220.50047  -5200565.89145  21329953.2034                   21329950.8014
 11  8 12 20 28  0.0000000  0  8G17G07G08G11G04G24G26G28
 -14294536.71947 -11131956.53146  20977255.4384                   20977253.7114
   6955410.84047   5692736.37945  21805386.4064                   21805386.0124
  -3881828.10547  -5143847.05146  20115899.9774                   20115898.5124
   3828154.45347   1768206.21944  22555090.3054                   22555088.6374
  -5974574.42645  -4646280.81642  24192537.5864                   24192542.9454
  -4708918.60547  -3666057.60244  21987264.2424                   21987263.5124
  -5621428.26647  -4375569.24644  22796651.5474                   22796651.3164
  -5954539.74647  -5203152.30945  21329321.2894                   21329319.1294
 11  8 12 20 28 30.0000000  0  8G17G07G08G11G04G24G26G28
 -14313020.98447 -11146359.81646  20973737.8834                   20973735.7734
   7058649.41047   5773181.94545  21825032.7734                   21825031.7424
  -3827608.14547  -5101597.75046  20126217.7734                   20126215.9534
   3921346.07447   1840823.03144  22572824.0004                   22572822.0124
  -6072106.75045  -4722279.80142  24173976.1174                   24173982.1954
  -4658871.72747  -3627060.03144  21996788.2114                   21996787.3874
  -5572773.48046  -4337656.46944  22805910.4064                   22805910.4534
  -5957785.21947  -5205681.23445  21328704.1254                   21328701.0634
 11  8 12 20 29  0.0000000  0  8G17G07G08G11G04G24G26G28
 -14331127.04747 -11160468.40246  20970292.2114                   20970290.4774
   7162267.28547   5853923.06345  21844750.6884                   21844749.3874
  -3772794.87947  -5058886.13746  20136648.0784                   20136646.5394
   4014957.17246   1913766.72744  22590638.2894                   22590635.7854
  -6169655.59845  -4798291.54342  24155414.0474                   24155418.8484
  -4608257.23447  -3587620.17244  22006419.8134                   22006418.6994
  -5523595.66846  -4299336.12544  22815268.6414                   22815269.0784
  -5960957.73847  -5208153.31245  21328100.7344                   21328097.3094
 11  8 12 20 29 30.0000000  0  8G17G07G08G11G04G24G26G28
 -14348851.02347 -11174279.25446  20966919.6414                   20966917.5664
   7266266.79747   5934961.56345  21864540.6804                   21864540.0164
  -3717384.86347  -5015709.52046  20147192.4534                   20147190.5354
   4108989.53547   1987038.66844  22608531.9924                   22608529.6564
  -6267213.84446  -4874310.70342  24136849.6024                   24136853.7624
  -4557072.11347  -3547735.66444  22016160.0784                   22016158.9694
  -5473892.73446  -4260606.59444  22824726.7894                   22824727.2894
  -5964052.29747  -5210564.63745  21327511.2894                   21327508.6454
 11  8 12 20 30  0.0000000  0  8G17G07G08G11G04G24G26G28
 -14366203.31247 -11187800.48046  20963617.3284                   20963615.5744
   7370635.74647   6016287.94145  21884401.5704                   21884400.9884
  -3661388.62947  -4972076.11346  20157847.5084                   20157846.2384
   4203430.89147   2060629.31644  22626503.0944                   22626500.9534
  -6364788.99246  -4950343.00842  24118281.2344                   24118285.9534
  -4505327.32047  -3507415.03944  22026006.7194                   22026006.0864
  -5423676.78946  -4221477.33644  22834282.6564                   22834282.7934
  -5967078.34847  -5212922.58645  21326935.9924                   21326933.0234
 11  8 12 20 30 30.0000000  0  8G17G07G08G11G04G24G26G28
 -14383185.55947 -11201033.36346  20960385.9224                   20960383.8204
   7475371.02747   6097899.75845  21904332.0944                   21904331.4774
  -3604807.57447  -4927987.00046  20168615.3524                   20168613.5394
   4298277.54347   2134535.75444  22644551.6254                   22644549.8484
  -6462379.71146  -5026387.43043  24099710.0634                   24099715.2274
  -4453024.80947  -3466659.83244  22035958.9614                   22035958.3594
  -5372951.23846  -4181950.95744  22843935.2664                   22843936.0004
  -5970036.11747  -5215227.31645  21326372.6484                   21326369.6054
 11  8 12 20 31  0.0000000  0  8G17G07G08G11G04G24G26G28
 -14399804.70347 -11213983.29746  20957223.4694                   20957221.1294
   7580464.22747   6179790.47745  21924330.9144                   21924330.1604
  -3547648.68847  -4883447.62546  20179492.1884                   20179490.6414
   4393520.57447   2208751.09043  22662676.8364                   22662673.8094
  -6559989.60246  -5102446.80142  24081136.2034                   24081141.2584
  -4400172.25847  -3425476.01644  22046016.9454                   22046015.6724
  -5321725.04346  -4142034.48444  22853683.2894                   22853683.9414
  -5972931.38747  -5217483.35545  21325822.0864                   21325819.1414
 11  8 12 20 31 30.0000000  0  8G17G07G08G11G04G24G26G28
 -14416063.99247 -11226652.82446  20954129.4064                   20954127.4454
   7685910.76247   6261956.53145  21944396.9774                   21944395.7234
  -3489915.14147  -4838460.47346  20190478.3834                   20190477.2704
   4489154.71947   2283271.18043  22680874.6724                   22680872.4964
  -6657618.69546  -5178521.09043  24062556.4844                   24062562.8674
  -4346773.18447  -3383866.35244  22056178.0554                   22056177.8984
  -5270003.00847  -4101731.63744  22863525.8054                   22863526.3714
  -5975766.25847  -5219692.32045  21325282.2894                   21325278.9064
 11  8 12 20 32  0.0000000  0  8G17G07G08G11G04G24G26G28
 -14431961.62147 -11239040.54346  20951104.2114                   20951101.9844
   7791710.77347   6344398.02345  21964529.7734                   21964529.0394
  -3431605.72347  -4793024.58246  20201574.4534                   20201572.6844
   4585179.89547   2358095.97343  22699147.8054                   22699145.1914
  -6755261.98446  -5254606.42643  24043975.7814                   24043981.5474
  -4292826.42647  -3341829.91044  22066443.8754                   22066444.0354
  -5217785.39846  -4061042.62544  22873463.3444                   22873462.9454
  -5978537.52747  -5221851.72745  21324755.0864                   21324752.2304
 11  8 12 20 32 30.0000000  0  8G17G07G08G11G04G24G26G28
 -14447499.34047 -11251147.81246  20948146.8594                   20948145.1294
   7897860.91847   6427112.34045  21984729.4614                   21984728.9454
  -3372722.02047  -4747141.19946  20212779.4924                   20212778.1484
   4681592.32447   2433222.51244  22717494.4144                   22717491.9964
  -6852918.55946  -5330702.12943  24025392.5314                   24025397.3834
  -4238334.36747  -3299368.56644  22076813.3204                   22076812.8284
  -5165075.82047  -4019970.26244  22883493.0944                   22883493.4884
  -5981246.09847  -5223962.27745  21324239.3444                   21324236.3324
 11  8 12 20 33  0.0000000  0  8G17G07G08G11G04G24G26G28
 -14462687.16047 -11262982.44546  20945257.1954                   20945254.7774
   8004349.18747   6510090.11745  22004993.6094                   22004993.2034
  -3313274.38347  -4700818.39146  20224091.5634                   20224090.4884
   4778379.87546   2508641.37143  22735912.4844                   22735909.9224
  -6950595.07446  -5406813.39543  24006804.9224                   24006810.1684
  -4183307.93047  -3256490.80544  22087284.7504                   22087284.0234
  -5111886.05146  -3978523.73844  22893614.9064                   22893615.3484
  -5983900.90247  -5226030.93045  21323734.5164                   21323731.4344
 11  8 12 20 33 30.0000000  0  8G17G07G08G11G04G24G26G28
 -14477519.52047 -11274540.09446  20942434.2274                   20942432.3404
   8111180.30147   6593335.06645  22025323.0004                   22025322.5864
  -3253256.36747  -4654051.12946  20235512.9384                   20235511.6994
   4875546.55946   2584355.63343  22754402.4144                   22754400.6334
  -7048281.94946  -5482932.74643  23988215.6254                   23988220.2114
  -4127741.24247  -3213192.07444  22097858.7584                   22097858.1414
  -5058211.73847  -3936699.64144  22903828.2894                   22903828.7544
  -5986494.12547  -5228051.59445  21323240.8364                   21323237.9224
 11  8 12 20 34  0.0000000  0  8G17G07G08G11G04G24G26G28
 -14492005.57447 -11285827.90246  20939677.8984                   20939675.6724
   8218343.38347   6676838.68445  22045715.5474                   22045714.7774
  -3192678.22747  -4606847.41046  20247041.0554                   20247039.6764
   4973080.84846   2660356.34843  22772962.7424                   22772960.8484
  -7145985.78546  -5559065.25443  23969621.6484                   23969627.7074
  -4071644.78947  -3169480.54344  22108533.5704                   22108532.7194
  -5004064.61746  -3894507.14844  22914132.6484                   22914132.7384
  -5989034.19947  -5230030.85245  21322757.2034                   21322754.6884
 11  8 12 20 34 30.0000000  0  8G17G07G08G11G04G24G26G28
 -14506148.57047 -11296848.39146  20936986.0234                   20936984.3444
   8325833.43747   6760597.08245  22066170.5554                   22066169.8164
  -3131543.38347  -4559209.89546  20258674.1724                   20258672.8594
   5070977.75046   2736639.62543  22791591.9924                   22791588.9924
  -7243706.70346  -5635211.17242  23951026.4384                   23951030.7304
  -4015022.24647  -3125359.09044  22119308.1024                   22119307.5434
  -4949449.60946  -3851950.03944  22924525.0084                   22924525.6024
  -5991522.95747  -5231970.12145  21322283.7974                   21322280.7344
 11  8 12 20 35  0.0000000  0  8G17G07G08G11G04G24G26G28
 -14519950.81647 -11307603.37146  20934360.2034                   20934358.1254
   8433646.87147   6844607.46545  22086686.5394                   22086685.9534
  -3069853.67247  -4511140.02046  20270413.6094                   20270412.3634
   5169233.18746   2813202.27043  22810288.9384                   22810286.9024
  -7341443.29746  -5711369.27342  23932427.0864                   23932431.8444
  -3957876.31647  -3080829.79344  22130183.2034                   22130181.8874
  -4894370.73846  -3809031.48844  22935006.6884                   22935007.6094
  -5993961.30547  -5233870.10945  21321819.6884                   21321817.2034
 11  8 12 20 35 30.0000000  0  8G17G07G08G11G04G24G26G28
 -14533420.82447 -11318099.45746  20931796.7194                   20931794.9184
   8541773.14147   6928861.60245  22107262.5554                   22107262.1334
  -3007618.00848  -4462644.72346  20282256.3754                   20282255.6374
   5267836.27746   2890035.79743  22829053.2664                   22829050.2854
  -7439201.11746  -5787543.89842  23913824.6334                   23913829.1724
  -3900216.79747  -3035900.30544  22141155.1174                   22141154.2194
  -4838838.71546  -3765759.82844  22945574.5784                   22945574.5594
  -5996356.44147  -5235736.42645  21321363.7894                   21321360.8364
 11  8 12 20 36  0.0000000  0  8G17G07G08G11G04G24G26G28
 -14546561.22747 -11328338.70746  20929296.0314                   20929294.3094
   8650208.43447   7013356.54345  22127897.0474                   22127896.4534
  -2944839.32047  -4413726.29346  20294203.3524                   20294201.4614
   5366782.53946   2967136.73043  22847881.4144                   22847879.5984
  -7536979.55546  -5863734.69142  23895217.6724                   23895221.7894
  -3842046.42247  -2990572.74244  22152224.4144                   22152223.8674
  -4782857.79346  -3722138.39544  22956227.0704                   22956227.6954
  -5998709.47347  -5237569.93445  21320916.2504                   21320913.4494
 11  8 12 20 36 30.0000000  0  8G17G07G08G11G04G24G26G28
 -14559378.53947 -11338326.18746  20926857.2584                   20926855.0274
   8758944.98047   7098086.24245  22148588.7974                   22148588.1294
  -2881524.25848  -4364389.90646  20306251.4614                   20306249.8594
   5466063.94946   3044498.80543  22866774.6334                   22866771.7894
  -7634781.45346  -5939943.69143  23876606.7114                   23876611.3094
  -3783372.28947  -2944852.65244  22163389.6174                   22163388.5634
  -4726436.29346  -3678173.64544  22966963.3834                   22966963.9414
  -6001025.65247  -5239374.72745  21320475.3134                   21320472.7894
 11  8 12 20 37  0.0000000  0  8G17G07G08G11G04G24G26G28
 -14571872.84447 -11348061.97346  20924479.6024                   20924477.8244
   8867980.31647   7183048.75845  22169338.1564                   22169337.4494
  -2817673.47747  -4314636.09045  20318401.7194                   20318399.8054
   5565677.60246   3122119.80943  22885730.4224                   22885728.4304
  -7732604.03846  -6016168.85343  23857991.1334                   23857995.7854
  -3724195.64547  -2898740.99244  22174650.6024                   22174650.4264
  -4669576.55146  -3633867.41044  22977783.9454                   22977784.1684
  -6003304.18047  -5241150.18745  21320042.4224                   21320039.3164
 11  8 12 20 37 30.0000000  0  8G17G07G08G11G04G24G26G28
 -14584049.48047 -11357550.22746  20922162.1484                   20922159.9774
   8977308.10547   7268239.15245  22190142.1724                   22190141.9534
  -2753292.28947  -4264468.96146  20330653.4304                   20330652.1804
   5665617.12147   3199994.73443  22904748.7584                   22904746.3484
  -7830448.90246  -6092411.34843  23839371.9614                   23839376.5204
  -3664521.86747  -2852241.96144  22186006.2974                   22186005.2854
  -4612285.31647  -3589224.94944  22988686.3054                   22988686.4574
  -6005548.18047  -5242898.72745  21319614.8204                   21319612.1644
 11  8 12 20 38  0.0000000  0  8G17G07G08G11G04G24G26G28
 -14595908.44547 -11366790.94546  20919905.4454                   20919903.2424
   9086927.00847   7353656.39545  22211001.5394                   22211001.3874
  -2688380.56347  -4213888.42646  20343005.7114                   20343004.4654
   5765880.41047   3278121.93043  22923827.9454                   22923825.2814
  -7928312.46946  -6168668.44143  23820749.0314                   23820754.0664
  -3604352.02347  -2805356.37544  22197456.0394                   22197455.8094
  -4554564.45346  -3544247.70743  22999669.7814                   22999669.9384
  -6007756.19947  -5244619.25445  21319194.7034                   21319191.6524
 11  8 12 20 38 30.0000000  0  8G17G07G08G11G04G24G26G28
 -14607460.41047 -11375792.43446  20917707.1484                   20917705.1684
   9196824.11347   7439290.41844  22231915.1484                   22231914.6134
  -2622949.65647  -4162903.33646  20355456.4844                   20355455.1054
   5866454.17246   3356491.05543  22942966.6414                   22942964.6994
  -8026202.69946  -6244946.28943  23802121.3444                   23802125.9304
  -3543697.78147  -2758093.35544  22208998.3054                   22208997.7974
  -4496427.01246  -3498945.86344  23010732.7814                   23010733.4734
  -6009937.73447  -5246319.13745  21318779.5634                   21318776.3404
 11  8 12 20 39  0.0000000  0  8G17G07G08G11G04G24G26G28
 -14618702.50847 -11384552.46946  20915567.4694                   20915565.5594
   9307001.31647   7525142.66445  22252881.3594                   22252880.7774
  -2556996.99647  -4111511.69145  20368007.2894                   20368005.5944
   5967339.85546   3435103.24643  22962164.1884                   22962162.2304
  -8124112.97346  -6321239.75443  23783489.2974                   23783493.9534
  -3482556.84447  -2710451.07044  22220633.3674                   22220632.2274
  -4437871.93446  -3453318.59044  23021875.9064                   23021875.8324
  -6012088.44547  -5247994.99645  21318369.8834                   21318367.3244
 11  8 12 20 39 30.0000000  0  8G17G07G08G11G04G24G26G28
 -14629644.73047 -11393078.83246  20913485.4454                   20913483.5594
   9417446.82047   7611204.00045  22273898.2424                   22273897.9224
  -2490532.62947  -4059721.31346  20380655.0554                   20380653.3134
   6068525.93746   3513949.50043  22981419.6094                   22981417.3714
  -8222049.69146  -6397553.80943  23764852.1804                   23764856.7304
  -3420939.62947  -2662437.65644  22232358.9694                   22232357.8444
  -4378910.83246  -3407374.93044  23033095.2584                   23033096.4454
  -6014216.43047  -5249653.15645  21317965.7734                   21317962.6484
 11  8 12 20 40  0.0000000  0  8G17G07G08G11G04G24G26G28
 -14640287.57447 -11401371.93046  20911459.8914                   20911458.3364
   9528159.23447   7697473.31645  22294966.0704                   22294965.7464
  -2423557.23847  -4007532.73046  20393399.7734                   20393398.6214
   6170009.97346   3593027.91843  23000730.9144                   23000728.8404
  -8320009.72746  -6473886.03543  23746210.7274                   23746215.3364
  -3358847.03147  -2614053.80144  22244174.1334                   22244173.6684
  -4319546.06346  -3361116.72743  23044392.6804                   23044393.2154
  -6016320.57447  -5251292.74645  21317565.0314                   21317561.9264
 11  8 12 20 40 30.0000000  0  8G17G07G08G11G04G24G26G28
 -14650629.53147 -11409430.56246  20909492.4694                   20909490.4064
   9639138.04347   7783950.19545  22316085.0164                   22316084.5474
  -2356070.09447  -3954945.38346  20406242.3204                   20406240.9774
   6271791.12946   3672337.91443  23020099.6484                   23020096.9844
  -8417988.84846  -6550233.11743  23727565.1174                   23727570.2734
  -3296278.65647  -2565299.21944  22256080.4694                   22256079.9884
  -4259778.30546  -3314544.51244  23055765.9224                   23055766.6564
  -6018398.20747  -5252911.66045  21317169.4304                   21317166.6054
 11  8 12 20 41  0.0000000  0  8G17G07G08G11G04G24G26G28
 -14660678.11747 -11417260.60246  20907579.8594                   20907577.9574
   9750374.10947   7870627.54345  22337252.1724                   22337252.0084
  -2288078.53947  -3901965.00046  20419180.7114                   20419179.1174
   6373860.19546   3751872.19543  23039522.8134                   23039520.7894
  -8515990.46946  -6626597.70343  23708915.8834                   23708921.0044
  -3233242.82047  -2516180.38344  22268076.0164                   22268075.4534
  -4199616.88747  -3267665.55944  23067214.7504                   23067214.7424
  -6020455.02347  -5254514.37145  21316778.0784                   21316775.4184
 11  8 12 20 41 30.0000000  0  8G17G07G08G11G04G24G26G28
 -14670437.91847 -11424865.61746  20905722.4614                   20905720.7344
   9861861.05947   7957500.37944  22358467.8444                   22358467.1524
  -2219588.03148  -3848595.80946  20432213.6414                   20432212.4574
   6476210.38346   3831625.55143  23058999.3594                   23058996.7504
  -8614016.04346  -6702980.95743  23690262.4224                   23690266.6524
  -3169745.14147  -2466701.68444  22280158.9844                   22280158.1884
  -4139068.63746  -3220485.16444  23078736.7584                   23078736.7234
  -6022494.05147  -5256103.21145  21316390.0084                   21316387.3244
 11  8 12 20 42  0.0000000  0  8G17G07G08G11G04G24G26G28
 -14679905.37147 -11432242.82046  20903921.6094                   20903918.9454
   9973601.59847   8044570.81344  22379731.3204                   22379731.2034
  -2150595.07448  -3794835.09846  20445343.1564                   20445341.5204
   6578843.83246   3911599.65243  23078529.8754                   23078527.9344
  -8712058.43446  -6779377.30543  23671605.4454                   23671609.7344
  -3105782.37547  -2416860.57844  22292330.8444                   22292331.0084
  -4078131.45346  -3173001.68844  23090332.9064                   23090332.9184
  -6024510.07847  -5257674.13745  21316006.3364                   21316003.7274
 11  8 12 20 42 30.0000000  0  8G17G07G08G11G04G24G26G28
 -14689088.80947 -11439398.73446  20902174.0784                   20902171.2074
  10085585.56347   8131830.94144  22401041.4844                   22401040.8594
  -2081108.15647  -3740689.49246  20458565.8134                   20458564.2974
   6681750.35946   3991786.50043  23098112.1884                   23098109.1844
  -8810122.38746  -6855790.46143  23652944.1094                   23652947.6564
  -3041363.84047  -2366664.31644  22304589.7194                   22304588.7234
  -4016815.91846  -3125223.40644  23102000.5234                   23102001.4414
  -6026510.07047  -5259232.58245  21315626.0084                   21315623.0084
 11  8 12 20 43  0.0000000  0  8G17G07G08G11G04G24G26G28
 -14697985.32447 -11446331.07446  20900480.5474                   20900478.5904
  10197814.19147   8219281.71144  22422397.4144                   22422397.3404
  -2011124.94548  -3686157.15646  20471883.4304                   20471881.7194
   6784930.62146   4072186.66843  23117746.6564                   23117744.2154
  -8908201.35246  -6932215.33643  23634280.6644                   23634284.0594
  -2976487.32847  -2316111.17644  22316935.1094                   22316934.6134
  -3955121.14546  -3077149.63344  23113741.0394                   23113741.0864
  -6028489.21547  -5260774.76246  21315249.0634                   21315245.9614
 11  8 12 20 43 30.0000000  0  8G17G07G08G11G04G24G26G28
 -14706596.69147 -11453041.20746  20898841.9304                   20898839.6954
  10310284.15647   8306920.53544  22443800.6884                   22443800.2154
  -1940647.85247  -3631239.98046  20485295.0234                   20485293.5084
   6888381.28146   4152797.55543  23137433.2664                   23137430.2504
  -9006293.80946  -7008650.70743  23615613.5084                   23615617.1174
  -2911155.64547  -2265203.37944  22329367.2734                   22329366.8324
  -3893050.62146  -3028783.05144  23125551.7344                   23125552.4964
  -6030447.62547  -5262300.80145  21314876.4224                   21314873.4614
 11  8 12 20 44  0.0000000  0  8G17G07G08G11G04G24G26G28
 -14714924.34047 -11459530.25846  20897257.6484                   20897255.1054
  10422992.60947   8394745.19145  22465247.7344                   22465247.5744
  -1869678.72347  -3575939.41046  20498799.3914                   20498798.2704
   6992098.66046   4233616.23443  23157170.3204                   23157167.5044
  -9104397.60946  -7085094.90643  23596944.5944                   23596948.1254
  -2845370.75047  -2213942.44144  22341885.3674                   22341885.0824
  -3830607.80147  -2980126.36744  23137434.7814                   23137435.4344
  -6032385.07847  -5263810.51245  21314507.8204                   21314504.8984
 11  8 12 20 44 30.0000000  0  8G17G07G08G11G04G24G26G28
 -14722966.08247 -11465796.51646  20895726.8984                   20895724.7704
  10535939.92247   8482755.97344  22486741.0634                   22486740.7074
  -1798215.92647  -3520254.14546  20512398.3984                   20512397.2544
   7096083.11346   4314643.05143  23176957.5394                   23176955.3404
  -9202507.19846  -7161543.66543  23578275.1024                   23578277.9104
  -2779131.62547  -2162327.54344  22354490.5164                   22354489.7464
  -3767792.85546  -2931179.69944  23149388.3594                   23149389.0234
  -6034298.21547  -5265301.26245  21314144.0554                   21314140.3594
 11  8 12 20 45  0.0000000  0  8G17G07G08G11G04G24G26G28
 -14730730.93447 -11471847.01646  20894249.6334                   20894247.3014
  10649116.25447   8570945.21944  22508278.2584                   22508277.7854
  -1726268.13747  -3464190.96945  20526090.1334                   20526088.1524
   7200324.56246   4395870.10543  23196793.9774                   23196791.6994
  -9300627.46946  -7238000.75043  23559603.5084                   23559605.9384
  -2712447.59047  -2110365.98444  22367180.1724                   22367179.6684
  -3704616.05146  -2881951.07844  23161410.5314                   23161411.0204
  -6036193.14847  -5266777.83645  21313783.1804                   21313779.8134
 11  8 12 20 45 30.0000000  0  8G17G07G08G11G04G24G26G28
 -14738213.79347 -11477677.78546  20892825.3674                   20892823.2384
  10762524.83247   8659315.43044  22529859.4534                   22529858.8284
  -1653831.05947  -3407746.53945  20539874.2814                   20539872.7934
   7304825.82846   4477299.59043  23216680.1254                   23216677.9104
  -9398749.98046  -7314459.55943  23540931.0704                   23540933.9884
  -2645314.80947  -2058054.73044  22379954.2664                   22379954.5904
  -3641074.68847  -2832438.38343  23173501.7584                   23173502.6484
  -6038063.53147  -5268235.28145  21313427.5704                   21313424.0634
 11  8 12 20 46  0.0000000  0  8G17G07G08G11G04G24G26G28
 -14745414.36747 -11483288.59446  20891455.6334                   20891453.4024
  10876164.39147   8747865.62144  22551483.7734                   22551484.1174
  -1580904.91847  -3350921.00846  20553751.5704                   20553750.1254
   7409585.37946   4558930.35943  23236615.1954                   23236613.6484
  -9496870.75446  -7390917.02343  23522258.9694                   23522261.8404
  -2577733.75047  -2005394.17244  22392815.1254                   22392814.3524
  -3577170.30946  -2782642.80544  23185662.8594                   23185663.5514
  -6039907.40247  -5269672.05545  21313076.3754                   21313073.3094
 11  8 12 20 46 30.0000000  0  8G17G07G08G11G04G24G26G28
 -14752336.56247 -11488682.48446  20890138.0704                   20890135.4184
  10990029.23847   8836591.37144  22573151.6254                   22573151.9654
  -1507494.65647  -3293718.24645  20567721.0474                   20567720.1884
   7514596.89846   4640757.48844  23256599.2584                   23256596.1684
  -9594990.49246  -7467373.72343  23503587.1804                   23503589.3954
  -2509709.21147  -1952388.05944  22405760.2664                   22405760.0904
  -3512909.11746  -2732569.21944  23197890.5004                   23197891.5704
  -6041727.04747  -5271089.96145  21312729.7584                   21312727.2664
 11  8 12 20 47  0.0000000  0  8G17G07G08G11G04G24G26G28
 -14758978.89147 -11493858.30146  20888873.8524                   20888871.4454
  11104119.83647   8925493.01244  22594862.4534                   22594862.1724
  -1433598.23047  -3236136.65245  20581783.0474                   20581781.1994
   7619860.82846   4722781.27743  23276629.4614                   23276627.3834
  -9693103.44146  -7543825.09043  23484917.0554                   23484919.2854
  -2441240.30547  -1899035.68044  22418789.7504                   22418788.6374
  -3448291.18847  -2682217.64144  23210187.4224                   23210188.1684
  -6043518.61747  -5272485.98445  21312389.4924                   21312385.8554
 11  8 12 20 47 30.0000000  0  8G17G07G08G11G04G24G26G28
 -14765351.34047 -11498823.82846  20887661.2034                   20887658.8714
  11218424.34447   9014561.33644  22616614.3444                   22616614.1524
  -1359226.59047  -3178184.75845  20595936.1804                   20595934.4024
   7725365.11746   4804992.35243  23296706.7894                   23296704.7154
  -9791216.34046  -7620276.48843  23466245.8834                   23466248.8204
  -2372337.84047  -1845345.46944  22431901.3594                   22431900.6414
  -3383328.50447  -2631597.41844  23222549.5314                   23222550.1604
  -6045290.86747  -5273866.95745  21312051.8984                   21312049.0044
 11  8 12 20 48  0.0000000  0  8G17G07G08G11G04G24G26G28
 -14771449.73047 -11503575.80546  20886500.7664                   20886498.5004
  11332945.99647   9103798.85244  22638406.7664                   22638407.1094
  -1284376.07847  -3119859.73445  20610179.4614                   20610177.4224
   7831112.46146   4887392.83643  23316829.7034                   23316826.8834
  -9889320.98046  -7696721.41043  23447576.5554                   23447579.5664
  -2302998.43847  -1791314.78144  22445095.6804                   22445095.4304
  -3318019.05947  -2580707.00044  23234977.4694                   23234978.3754
  -6047037.35947  -5275227.85945  21311719.6644                   21311716.9534
 11  8 12 20 48 30.0000000  0  8G17G07G08G11G04G24G26G28
 -14777278.28147 -11508117.51246  20885392.0394                   20885389.3524
  11447678.32047   9193200.52744  22660239.8914                   22660240.2424
  -1209051.52047  -3061165.30945  20624512.7114                   20624511.9344
   7937096.34846   4969977.62943  23336997.9844                   23336994.3554
  -9987418.16046  -7773160.51643  23428910.1484                   23428912.8834
  -2233227.62947  -1736947.94144  22458372.4924                   22458372.1174
  -3252369.14147  -2529551.28943  23247470.5004                   23247471.1374
  -6048760.85547  -5276570.83646  21311391.5394                   21311388.7464
 11  8 12 20 49  0.0000000  0  8G17G07G08G11G04G24G26G28
 -14782839.41047 -11512450.84046  20884332.9924                   20884331.4224
  11562617.60947   9282763.49244  22682112.1954                   22682112.2544
  -1133255.89847  -3002103.82445  20638936.8914                   20638935.3794
   8043312.75446   5052743.60543  23357209.6024                   23357207.2734
 -10085506.69146  -7849592.90243  23410244.4064                   23410246.9264
  -2163028.73447  -1682247.52344  22471731.8054                   22471730.8164
  -3186383.22346  -2478133.75043  23260027.0704                   23260027.8714
  -6050461.73047  -5277896.19145  21311067.5474                   21311065.2034
 11  8 12 20 49 30.0000000  0  8G17G07G08G11G04G24G26G28
 -14788137.79347 -11516579.43046  20883325.1724                   20883322.8054
  11677757.65647   9372482.87944  22704022.9924                   22704022.7934
  -1056994.81647  -2942679.65245  20653449.1094                   20653447.6054
   8149755.21946   5135685.75443  23377464.3674                   23377462.3634
 -10183587.42246  -7926019.23843  23391579.4534                   23391582.7584
  -2092407.28147  -1627217.83244  22485169.3914                   22485169.5744
  -3120067.93446  -2426459.59443  23272646.0084                   23272647.3634
  -6052142.84447  -5279206.15245  21310748.4384                   21310745.1764
 11  8 12 20 50  0.0000000  0  8G17G07G08G11G04G24G26G28
 -14793173.45747 -11520503.29746  20882366.6024                   20882364.4494
  11793097.03547   9462357.59444  22725971.7424                   22725971.3404
   -980268.46147  -2882892.93045  20668049.7894                   20668048.4614
   8256422.02046   5218802.66443  23397763.2814                   23397760.6414
 -10281656.46546  -8002436.44543  23372917.8674                   23372920.5704
  -2021364.10547  -1571859.53544  22498688.7734                   22498688.5514
  -3053425.16046  -2374530.20743  23285328.0004                   23285328.6334
  -6053802.16047  -5280499.11345  21310432.4774                   21310429.0664
 11  8 12 20 50 30.0000000  0  8G17G07G08G11G04G24G26G28
 -14797944.66447 -11524221.09846  20881458.8754                   20881456.5904
  11908635.97347   9552387.79344  22747958.0944                   22747957.5784
   -903075.56647  -2822742.67245  20682738.6804                   20682737.5704
   8363313.03146   5302094.30943  23418103.9304                   23418101.6334
 -10379708.82046  -8078840.69143  23354259.0634                   23354261.0004
  -1949898.58247  -1516172.13744  22512288.6884                   22512288.1524
  -2986455.25446  -2322345.94943  23298072.2274                   23298073.1844
  -6055435.85547  -5281772.12145  21310121.4064                   21310118.4804
 11  8 12 20 51  0.0000000  0  8G17G07G08G11G04G24G26G28
 -14802457.30547 -11527737.41046  20880600.1564                   20880598.0664
  12024367.42247   9642568.01244  22769980.9454                   22769981.3524
   -825422.57847  -2762233.89145  20697515.4304                   20697514.3714
   8470421.05546   5385555.06343  23438485.3054                   23438483.4144
 -10477745.95346  -8155233.04743  23335602.7194                   23335604.9024
  -1878017.06647  -1460160.59044  22525967.1884                   22525966.7344
  -2919165.87946  -2269912.74244  23310876.3984                   23310877.4024
  -6057048.03947  -5283028.35545  21309814.6804                   21309811.6564
 11  8 12 20 51 30.0000000  0  8G17G07G08G11G04G24G26G28
 -14806707.29347 -11531049.07046  20879791.2034                   20879788.8754
  12140293.62146   9732899.97344  22792040.6804                   22792040.7934
   -747306.50847  -2701364.27345  20712380.6414                   20712379.4924
   8577747.84846   5469186.31343  23458909.4924                   23458907.0044
 -10575760.37946  -8231607.74243  23316951.2814                   23316953.5084
  -1805716.91047  -1403822.82444  22539725.8204                   22539724.8794
  -2851555.25047  -2217229.20343  23323743.7194                   23323743.3244
  -6058632.46947  -5284262.97345  21309513.3594                   21309510.3204
 11  8 12 20 52  0.0000000  0  8G17G07G08G11G04G24G26G28
 -14810694.69547 -11534156.10946  20879032.5864                   20879030.4574
  12256412.81346   9823382.32444  22814137.3984                   22814138.2424
   -668727.89547  -2640134.24245  20727333.8444                   20727332.6024
   8685291.48046   5552986.52743  23479374.6254                   23479371.4734
 -10673748.53146  -8307961.97743  23298304.5084                   23298306.5634
  -1732999.15247  -1347159.65244  22553563.2584                   22553562.0354
  -2783625.47346  -2164296.98443  23336669.4224                   23336670.1054
  -6060187.76647  -5285474.88345  21309217.1884                   21309213.8094
 11  8 12 20 52 30.0000000  0  8G17G07G08G11G04G24G26G28
 -14814421.69547 -11537060.23846  20878323.3134                   20878321.0314
  12372721.44546   9914012.28944  22836270.9064                   22836270.7504
   -589689.72747  -2578546.09845  20742373.8444                   20742372.7304
   8793048.31346   5636952.89843  23499879.8914                   23499877.0594
 -10771708.89146  -8384294.51243  23279663.3754                   23279664.7544
  -1659866.82447  -1290173.43444  22567480.3524                   22567478.9104
  -2715380.76646  -2111119.37543  23349655.6334                   23349657.3444
  -6061714.01647  -5286664.15645  21308926.2114                   21308923.5744
 11  8 12 20 53  0.0000000  0  8G17G07G08G11G04G24G26G28
 -14817885.69547 -11539759.43046  20877664.2504                   20877662.1024
  12489220.74646  10004790.82844  22858439.2894                   22858439.8284
   -510189.46547  -2516597.89845  20757502.5704                   20757501.6844
   8901019.28946   5721086.07843  23520427.2814                   23520423.1804
 -10869634.64846  -8460600.11343  23261028.3204                   23261030.1024
  -1586318.09047  -1232862.74644  22581476.2274                   22581474.9614
  -2646820.21546  -2057695.64143  23362702.6414                   23362704.1484
  -6063206.48047  -5287827.10245  21308642.3674                   21308639.4024
 11  8 12 20 53 30.0000000  0  8G17G07G08G11G04G24G26G28
 -14821091.93447 -11542257.77746  20877053.6174                   20877051.5164
  12605903.76246  10095712.52044  22880643.7034                   22880643.5744
   -430233.82047  -2454294.84045  20772717.8594                   20772716.9024
   9009197.35946   5805380.67243  23541012.1484                   23541009.2504
 -10967527.44546  -8536880.00043  23242399.2274                   23242401.6764
  -1512359.23047  -1175232.48444  22595549.5084                   22595548.5744
  -2577951.41446  -2004031.71943  23375808.4454                   23375808.9414
  -6064668.37947  -5288966.23045  21308364.3054                   21308361.0314
 11  8 12 20 54  0.0000000  0  8G17G07G08G11G04G24G26G28
 -14824036.46947 -11544552.20346  20876494.1174                   20876491.4264
  12722773.30146  10186779.55944  22902884.0004                   22902883.7774
   -349819.16447  -2391634.12145  20788020.1804                   20788018.6764
   9117584.85246   5889838.43043  23561637.0474                   23561634.2854
 -11065379.51646  -8613128.16843  23223779.8364                   23223780.7114
  -1437987.23846  -1117280.31644  22609702.3674                   22609701.7814
  -2508772.31646  -1950126.01243  23388972.7344                   23388973.4384
  -6066093.48447  -5290076.69945  21308093.2814                   21308090.2234
 11  8 12 20 54 30.0000000  0  8G17G07G08G11G04G24G26G28
 -14826717.56647 -11546641.34446  20875983.5234                   20875981.2034
  12839829.57046  10277992.08644  22925158.4844                   22925159.3324
   -268944.11347  -2328614.64845  20803409.9614                   20803409.2894
   9226181.85246   5974459.42243  23582302.6884                   23582300.3134
 -11163185.10946  -8689340.09043  23205166.3754                   23205168.7814
  -1363201.44147  -1059005.67644  22623933.2974                   22623932.6134
  -2439283.09846  -1895978.63743  23402195.9924                   23402197.4694
  -6067478.21147  -5291155.69545  21307829.3444                   21307826.6214
 11  8 12 20 55  0.0000000  0  8G17G07G08G11G04G24G26G28
 -14829135.19947 -11548525.19146  20875523.1024                   20875520.8984
  12957070.97346  10369348.88344  22947468.9454                   22947468.9844
   -187609.27347  -2265236.90245  20818887.8054                   20818886.5634
   9334986.51246   6059242.24243  23603006.7274                   23603004.5514
 -11260940.63746  -8765512.98443  23186563.7814                   23186566.2664
  -1288002.72747  -1000409.30144  22638243.2974                   22638242.0664
  -2369485.96946  -1841591.31343  23415478.0394                   23415479.2424
  -6068820.40647  -5292201.56245  21307574.1254                   21307571.1254
 11  8 12 20 55 30.0000000  0  8G17G07G08G11G04G24G26G28
 -14831291.21947 -11550205.18046  20875112.8204                   20875110.9614
  13074494.08246  10460847.26244  22969814.2034                   22969814.4184
   -105818.23447  -2201503.67245  20834451.7344                   20834450.7974
   9443995.30946   6144184.12943  23623750.6724                   23623748.3444
 -11358644.04746  -8841645.27343  23167971.8914                   23167973.6524
  -1212394.38747   -941493.72744  22652631.0004                   22652629.7504
  -2299384.89846  -1786967.19144  23428817.9924                   23428819.1844
  -6070120.04747  -5293214.25845  21307326.9534                   21307323.8874
 11  8 12 20 56  0.0000000  0  8G17G07G08G11G04G24G26G28
 -14833190.71147 -11551685.29746  20874751.5394                   20874749.4104
  13192092.13346  10552481.95344  22992192.2894                   22992192.7584
    -23576.36347  -2137419.15645  20850102.0474                   20850100.9964
   9553201.39846   6229279.73043  23644531.8984                   23644530.3834
 -11456296.65246  -8917737.98043  23149388.7424                   23149391.1294
  -1136382.26247   -882263.51644  22667095.1174                   22667095.2274
  -2228986.95346  -1732111.71543  23442214.5234                   23442215.1214
  -6071379.86347  -5294195.93445  21307087.2194                   21307083.9924
 11  8 12 20 56 30.0000000  0  8G17G07G08G11G04G24G26G28
 -14834826.25047 -11552959.71546  20874440.4774                   20874438.2464
  13309871.52346  10644257.94144  23014605.3914                   23014605.7034
     59122.91847  -2072978.21145  20865838.6724                   20865837.7194
   9662610.72746   6314533.68443  23665351.3284                   23665350.0664
 -11553887.04346  -8993782.19143  23130818.6094                   23130820.2424
  -1059960.05546   -822713.77344  22681638.5394                   22681637.8054
  -2158286.48446  -1677020.49643  23455668.6644                   23455668.8404
  -6072590.71947  -5295139.46145  21306856.5474                   21306853.6094
 11  8 12 20 57  0.0000000  0  8G17G07G08G11G04G24G26G28
 -14836197.71547 -11554028.36346  20874179.3524                   20874177.1524
  13427830.41446  10736173.80544  23037052.1174                   23037053.2504
    142279.00047  -2008181.31645  20881663.3364                   20881662.2274
   9772221.27746   6399944.44943  23686209.7584                   23686208.9454
 -11651411.36746  -9069774.93443  23112259.8204                   23112261.4694
   -983128.57047   -762845.10944  22696259.3364                   22696258.0824
  -2087285.78146  -1621695.36743  23469178.7814                   23469180.5164
  -6073750.26647  -5296043.00445  21306635.9064                   21306633.1214
 11  8 12 20 57 30.0000000  0  8G17G07G08G11G04G24G26G28
 -14837309.10947 -11554894.36346  20873968.0234                   20873965.3874
  13545964.15646  10828225.91044  23059532.8364                   23059533.3484
    225887.77747  -1943031.68045  20897573.4534                   20897572.9264
   9882028.08646   6485508.14543  23707107.1484                   23707103.3594
 -11748869.19546  -9145715.85544  23093713.8984                   23093716.3984
   -905892.34847   -702661.05944  22710956.7424                   22710956.1174
  -2015990.56346  -1566140.70343  23482746.0944                   23482747.8914
  -6074859.98047  -5296907.72745  21306424.8204                   21306422.1334
 11  8 12 20 58  0.0000000  0  8G17G07G08G11G04G24G26G28
 -14838155.19547 -11555553.63346  20873806.8134                   20873804.3714
  13664275.73046  10920416.57844  23082046.1024                   23082047.1884
    309953.34447  -1877526.10245  20913571.0164                   20913570.1214
   9992034.38946   6571227.29143  23728039.7664                   23728037.4414
 -11846251.94546  -9221598.28943  23075182.1724                   23075183.8244
   -828247.82847   -642158.85244  22725732.1094                   22725731.5514
  -1944397.76646  -1510354.16043  23496370.0634                   23496370.6764
  -6075912.61347  -5297727.95745  21306224.7034                   21306221.5904
 11  8 12 20 58 30.0000000  0  8G17G07G08G11G04G24G26G28
 -14838745.87147 -11556013.87546  20873694.1024                   20873691.7584
  13782754.17246  11012737.27044  23104592.3444                   23104593.2704
    394464.78547  -1811673.09045  20929652.9304                   20929652.2934
  10102228.62146   6657092.87143  23749009.1954                   23749006.1094
 -11943565.44946  -9297426.75044  23056663.8524                   23056665.5124
   -750205.80547   -581346.90244  22740583.0004                   22740581.9384
  -1872519.21546  -1454344.99244  23510047.8914                   23510048.3914
  -6076915.93447  -5298509.77345  21306033.7424                   21306030.6764
 11  8 12 20 59  0.0000000  0  8G17G07G08G11G04G24G26G28
 -14839076.46947 -11556271.46546  20873631.2974                   20873629.2274
  13901402.40246  11105190.28944  23127170.0704                   23127171.2304
    479425.73447  -1745469.80545  20945820.2894                   20945819.5984
  10212613.51246   6743107.03943  23770014.2734                   23770012.7274
 -12040801.30546  -9373194.73044  23038159.9224                   23038162.1094
   -671762.72347   -520222.45744  22755509.6644                   22755509.3444
  -1800352.56646  -1398111.31343  23523780.7894                   23523782.2734
  -6077863.46147  -5299248.11345  21305853.2664                   21305850.5824
 11  8 12 20 59 30.0000000  0  8G17G07G08G11G04G24G26G28
 -14839148.13347 -11556327.28146  20873617.4224                   20873615.5044
  14020218.05946  11197773.73444  23149779.7274                   23149781.4024
    564834.12547  -1678917.86745  20962073.8364                   20962072.1804
  10323186.93046   6829268.07843  23791056.4064                   23791054.0434
 -12137956.31646  -9448899.73844  23019672.3984                   23019674.1564
   -592920.62547   -458787.07044  22770512.8524                   22770512.4574
  -1727901.00846  -1341655.62543  23537567.7894                   23537569.6454
  -6078753.51247  -5299941.66045  21305683.9534                   21305681.2464
 11  8 12 21  0  0.0000000  0  8G17G07G08G11G04G24G26G28
 -14838963.37547 -11556183.28946  20873653.0474                   20873650.3754
  14139197.03546  11290484.45343  23172420.9694                   23172422.9614
    650687.16447  -1612019.45345  20978410.6724                   20978409.8364
  10433944.71546   6915572.77743  23812131.9144                   23812130.1684
 -12235029.14846  -9524540.69543  23001200.1024                   23001201.6604
   -513682.93446   -397043.44144  22785591.8134                   22785591.3404
  -1655168.61346  -1284981.10243  23551408.5704                   23551409.2894
  -6079586.63347  -5300590.84845  21305525.4614                   21305522.5944
 11  8 12 21  0 30.0000000  0  8G17G07G08G11G04G24G26G28
 -14838526.07447 -11555842.52046  20873736.3594                   20873734.0904
  14258334.22346  11383318.41443  23195093.7114                   23195093.4844
    736980.14147  -1544778.23445  20994831.3134                   20994830.5044
  10544881.18446   7002016.75043  23833243.5084                   23833240.6024
 -12332019.97746  -9600117.74643  22982742.2734                   22982744.4924
   -434054.95347   -334995.71144  22800744.5234                   22800744.0864
  -1582161.60946  -1228092.59043  23565301.8284                   23565302.3404
  -6080364.46547  -5301196.94945  21305377.8134                   21305374.6644
 11  8 12 21  1  0.0000000  0  8G17G07G08G11G04G24G26G28
 -14837839.80947 -11555307.74246  20873867.0084                   20873864.5164
  14377624.07046  11476271.37143  23217792.1254                   23217793.6334
    823707.92247  -1477198.20345  21011335.2034                   21011334.2664
  10655990.66846   7088595.52743  23854386.6954                   23854384.1414
 -12428928.70746  -9675630.83244  22964301.9384                   22964303.5824
   -354041.78547   -272647.81344  22815970.2504                   22815969.9614
  -1508886.03546  -1170994.81643  23579245.6804                   23579246.6334
  -6081088.69547  -5301761.29745  21305239.2034                   21305236.9184
 11  8 12 21  1 30.0000000  0  8G17G07G08G11G04G24G26G28
 -14836894.91047 -11554571.44546  20874046.4844                   20874044.0944
  14497075.16046  11569349.96144  23240523.3054                   23240524.8914
    910879.74647  -1409272.16445  21027923.9304                   21027922.7274
  10767281.75846   7175315.83643  23875564.3134                   23875561.3754
 -12525741.02747  -9751068.80943  22945879.0394                   22945879.9064
   -273634.33246   -209992.66444  22831271.7194                   22831271.0394
  -1435333.85546  -1113681.48843  23593241.7424                   23593243.1414
  -6081747.17647  -5302274.39845  21305114.5004                   21305111.5394
 11  8 12 21  2  0.0000000  0  8G17G07G08G11G04G24G26G28
 -14835698.57847 -11553639.21546  20874274.1884                   20874271.8714
  14616679.02746  11662547.57844  23263283.2344                   23263284.9184
    998487.82047  -1341006.17645  21044594.9144                   21044594.1094
  10878745.62546   7262170.77043  23896774.9534                   23896772.8484
 -12622460.43446  -9826434.38743  22927473.5084                   22927475.0944
   -192840.98047   -147036.84844  22846645.5314                   22846645.7504
  -1361514.23846  -1056159.79343  23607289.1254                   23607290.3914
  -6082344.47747  -5302739.82445  21305000.5314                   21304997.6054
 11  8 12 21  2 30.0000000  0  8G17G07G08G11G04G24G26G28
 -14834252.15248 -11552512.11746  20874549.6484                   20874546.6414
  14736432.80146  11755862.02044  23286072.8284                   23286073.1294
   1086529.21147  -1272402.55945  21061348.4224                   21061347.2734
  10990379.52046   7349158.17243  23918018.3284                   23918015.6094
 -12719084.31246  -9901725.52744  22909086.3524                   22909088.3284
   -111664.32447    -83782.34844  22862093.3524                   22862092.6454
  -1287430.74646   -998432.46143  23621386.8054                   23621388.5984
  -6082880.19947  -5303157.27045  21304898.9144                   21304895.5744
 11  8 12 21  3  0.0000000  0  8G17G07G08G11G04G24G26G28
 -14832552.27347 -11551187.50846  20874872.8914                   20874870.4884
  14856337.90646  11849294.37544  23308889.3204                   23308890.6884
   1175006.48847  -1203459.27045  21078185.4534                   21078184.4614
  11102184.92646   7436279.18843  23939294.8204                   23939291.7934
 -12815605.29746  -9976936.46544  22890719.1954                   22890720.9064
    -30101.82847    -20227.17644  22877613.7274                   22877613.9064
  -1213082.14146   -940498.58243  23635535.8984                   23635535.9884
  -6083348.67647  -5303522.31245  21304809.4384                   21304806.8954
 11  8 12 21  3 30.0000000  0  8G17G07G08G11G04G24G26G28
 -14830594.19947 -11549661.71546  20875245.4534                   20875243.0554
  14976398.36746  11942847.80144  23331736.4614                   23331737.6644
   1263923.94547  -1134172.99645  21095105.6954                   21095104.8094
  11214164.94146   7523536.32043  23960603.5554                   23960601.6564
 -12912014.67246 -10052060.44544  22872373.0314                   22872373.8954
     51850.28147     43631.57044  22893209.7664                   22893208.8244
  -1138465.34846   -882355.69943  23649734.8134                   23649735.7544
  -6083742.29747  -5303829.03545  21304735.0944                   21304731.6334
 11  8 12 21  4  0.0000000  0  8G17G07G08G11G04G24G26G28
 -14828377.45747 -11547934.35246  20875667.5704                   20875664.6644
  15096612.51646  12036520.96144  23354612.7974                   23354614.1764
   1353280.73447  -1064544.37945  21112110.2034                   21112108.7584
  11326318.75446   7610928.84443  23981945.9384                   23981944.0354
 -13008308.01646 -10127094.01643  22854048.2424                   22854050.0314
    134190.92647    107793.07844  22908877.9774                   22908877.6684
  -1063582.45746   -824005.46943  23663984.5084                   23663984.6884
  -6084058.71547  -5304075.59045  21304674.1484                   21304671.6954
 11  8 12 21  4 30.0000000  0  8G17G07G08G11G04G24G26G28
 -14825899.71547 -11546003.62146  20876138.9144                   20876136.2304
  15216981.38346  12130314.68444  23377518.9694                   23377519.8284
   1443077.71147   -994572.75445  21129197.2274                   21129196.1764
  11438646.93446   7698457.22742  24003321.3524                   24003318.9804
 -13104479.02746 -10202032.25444  22835747.3444                   22835749.0044
    216921.23447    172258.24644  22924621.4224                   22924620.9344
   -988433.03146   -765447.55143  23678284.7034                   23678286.3134
  -6084293.50847  -5304258.54345  21304629.8054                   21304626.6254
 11  8 12 21  5  0.0000000  0  8G17G07G08G11G04G24G26G28
 -14823158.52047 -11543867.60546  20876660.1094                   20876657.8204
  15337506.29346  12224230.00444  23400453.4614                   23400454.6254
   1533316.91447   -924256.54345  21146369.8984                   21146368.7384
  11551150.46546   7786122.26643  24024729.8834                   24024727.5044
 -13200521.10547 -10276870.05544  22817471.0554                   22817471.9884
    300043.00447    237028.44144  22940439.0474                   22940438.9614
   -913016.55546   -706681.53143  23692636.1254                   23692637.1994
  -6084441.58647  -5304373.92645  21304601.4844                   21304598.7774
 11  8 12 21  5 30.0000000  0  8G17G07G08G11G04G24G26G28
 -14820157.69947 -11541529.27346  20877231.2814                   20877229.1374
  15458181.92646  12318262.74644  23423417.6334                   23423418.8634
   1623993.54747   -853599.48045  21163624.7894                   21163624.4414
  11663824.28546   7873919.97343  24046171.3834                   24046169.2974
 -13296434.05947 -10351607.23444  22799219.0784                   22799220.2194
    383551.11347    302099.66843  22956330.5394                   22956328.9574
   -837339.05546   -647712.11743  23707037.3364                   23707038.3364
  -6084504.36347  -5304422.83645  21304589.9454                   21304586.6564
 11  8 12 21  6  0.0000000  0  8G17G07G08G11G04G24G26G28
 -14816898.62947 -11538989.72346  20877851.3524                   20877848.9454
  15579005.28146  12412410.60243  23446409.0164                   23446410.6054
   1715105.23447   -782603.40645  21180963.0394                   21180962.2424
  11776665.01246   7961847.77043  24067642.7424                   24067641.7114
 -13392215.32447 -10426241.80944  22780992.3754                   22780993.9024
    467442.87147    367469.85544  22972293.5234                   22972292.8404
   -761403.87146   -588541.89143  23721486.7274                   23721488.1914
  -6084480.98447  -5304404.61745  21304593.8054                   21304590.7154
 11  8 12 21  6 30.0000000  0  8G17G07G08G11G04G24G26G28
 -14813380.10547 -11536247.99646  20878521.0004                   20878518.7344
  15699976.49246  12506673.65243  23469430.0554                   23469430.8634
   1806652.37147   -711268.03545  21198384.0234                   21198382.9614
  11889672.64846   8049905.64142  24089149.7194                   24089146.1954
 -13487859.52046 -10500769.56644  22762792.0784                   22762793.5164
    551718.34447    433139.03943  22988330.6414                   22988329.8524
   -685211.86346   -529171.57443  23735986.7504                   23735986.9694
  -6084367.65247  -5304316.30145  21304615.6484                   21304612.5944
 11  8 12 21  7  0.0000000  0  8G17G07G08G11G04G24G26G28
 -14809609.68747 -11533309.98446  20879238.5634                   20879236.1564
  15821086.23046  12601044.67243  23492476.4064                   23492477.2704
   1898626.08647   -639600.26645  21215885.8524                   21215885.4144
  12002838.16846   8138086.50843  24110683.6724                   24110681.1334
 -13583370.27747 -10575193.37144  22744617.0164                   22744618.0664
    636368.73446    499100.36344  23004439.9844                   23004438.3794
   -608772.43046   -469608.46943  23750531.2194                   23750533.0204
  -6084169.84047  -5304162.16045  21304653.6174                   21304650.1414
 11  8 12 21  7 30.0000000  0  8G17G07G08G11G04G24G26G28
 -14805586.03147 -11530174.64846  20880003.9304                   20880001.7624
  15942334.39146  12695523.59043  23515549.3364                   23515550.2934
   1991026.39847   -567600.08645  21233468.8134                   21233468.6134
  12116161.35546   8226390.23443  24132248.6174                   24132245.7154
 -13678742.15247 -10649508.97344  22726468.4614                   22726469.3094
    721394.29346    565354.03543  23020618.7034                   23020618.1214
   -532086.66046   -409853.37943  23765125.4774                   23765126.8674
  -6083883.79747  -5303939.26645  21304708.1254                   21304704.9454
 11  8 12 21  8  0.0000000  0  8G17G07G08G11G04G24G26G28
 -14801314.16447 -11526845.90646  20880816.5634                   20880814.4964
  16063714.85946  12790105.57043  23538648.1484                   23538649.1134
   2083847.60247   -495271.93445  21251132.1884                   21251131.9844
  12229635.92246   8314811.95743  24153841.5164                   24153839.4534
 -13773976.01247 -10723717.00844  22708346.0554                   22708346.7304
    806788.88746    631895.26643  23036869.3364                   23036868.5204
   -455161.30146   -349911.59443  23779763.1484                   23779765.2664
  -6083512.11747  -5303649.64545  21304778.6414                   21304775.5354
 11  8 12 21  8 30.0000000  0  8G17G07G08G11G04G24G26G28
 -14796798.85947 -11523327.46146  20881676.1254                   20881674.2274
  16185220.78946  12884785.30943  23561769.5234                   23561771.2544
   2177083.52747   -422620.61345  21268874.4774                   21268874.0204
  12343254.81646   8403346.11742  24175462.4144                   24175459.9104
 -13869072.99247 -10797818.40644  22690249.0944                   22690250.4024
    892546.46546    698719.32843  23053187.8284                   23053187.9304
   -378003.58246   -289788.75843  23794446.9694                   23794447.1484
  -6083057.02747  -5303295.02345  21304864.8594                   21304862.5434
 11  8 12 21  9  0.0000000  0  8G17G07G08G11G04G24G26G28
 -14792040.39147 -11519619.55146  20882581.9304                   20882579.6094
  16306851.37546  12979562.20744  23584915.6724                   23584916.8054
   2270733.39547   -349646.75845  21286695.9384                   21286695.2934
  12457017.09446   8491992.03942  24197110.6254                   24197107.8524
 -13964028.88747 -10871809.85244  22672180.1724                   22672180.5084
    978665.69146    765825.20743  23069576.2974                   23069575.6174
   -300615.48046   -229486.42643  23809172.5864                   23809174.2854
  -6082516.13347  -5302873.55145  21304968.1804                   21304964.9344
 11  8 12 21  9 30.0000000  0  8G17G07G08G11G04G24G26G28
 -14787039.80547 -11515722.96946  20883533.1334                   20883530.8794
  16428603.52346  13074433.77344  23608084.7894                   23608085.2584
   2364794.70747   -276352.29745  21304594.8754                   21304594.3594
  12570919.96146   8580747.49642  24218785.7974                   24218783.6804
 -14058840.80147 -10945689.12544  22654137.1024                   22654138.1294
   1065143.91846    833210.81243  23086032.8914                   23086032.0784
   -223000.20746   -169007.08643  23823942.3364                   23823943.2774
  -6081888.59847  -5302384.56645  21305087.4454                   21305084.1564
 11  8 12 21 10  0.0000000  0  8G17G07G08G11G04G24G26G28
 -14781797.85947 -11511638.32046  20884530.6254                   20884528.3014
  16550475.33246  13169398.61744  23631275.8914                   23631277.6174
   2459265.42647   -202738.80945  21322572.4384                   21322571.8404
  12684961.32045   8669610.79742  24240487.8444                   24240484.6294
 -14153505.60247 -11019453.73444  22636123.2734                   22636124.0704
   1151979.60546    900874.94543  23102557.4304                   23102556.1884
   -145160.52046   -108352.85543  23838755.3524                   23838755.7304
  -6081172.77747  -5301826.78145  21305224.1174                   21305220.7894
 11  8 12 21 10 30.0000000  0  8G17G07G08G11G04G24G26G28
 -14776323.27347 -11507372.40246  20885572.7034                   20885570.1764
  16672456.46946  13264448.60944  23654487.5784                   23654490.4304
   2554136.12147   -128813.66445  21340625.6414                   21340624.8754
  12799131.00446   8758574.14142  24262213.9614                   24262210.5944
 -14248027.65247 -11093107.13744  22618136.1804                   22618136.7854
   1239162.71146    968809.84443  23119147.7814                   23119146.7344
    -67107.32046    -47532.25843  23853608.1024                   23853608.9494
  -6080374.27747  -5301204.58245  21305375.5704                   21305372.2274
 11  8 12 21 11  0.0000000  0  8G17G07G08G11G04G24G26G28
 -14770601.95347 -11502914.21946  20886661.1954                   20886658.9534
  16794559.94146  13359593.93443  23677723.2814                   23677725.1724
   2649419.23847    -54567.14145  21358757.6024                   21358756.5864
  12913441.42246   8847647.16442  24283965.3594                   24283963.2074
 -14342388.79747 -11166635.14544  22600179.6954                   22600180.1134
   1326706.17246   1037025.47343  23135805.6024                   23135805.9304
     11171.55946     13464.19143  23868504.5314                   23868505.1454
  -6079476.84047  -5300505.27745  21305546.8914                   21305543.2274
 11  8 12 21 11 30.0000000  0  8G17G07G08G11G04G24G26G28
 -14764633.67247 -11498263.60246  20887796.6644                   20887794.5984
  16916784.35246  13454833.48044  23700981.9614                   23700984.0354
   2745114.39547     20000.45345  21376967.6644                   21376966.7894
  13027891.41846   8936828.97342  24305744.4924                   24305742.3014
 -14436584.76647 -11240034.43744  22582254.7814                   22582254.9964
   1414608.73846   1105520.96143  23152533.5704                   23152533.2274
     89674.11746     74634.94143  23883442.8594                   23883443.6764
  -6078477.66447  -5299726.71145  21305736.7664                   21305733.5044
 11  8 12 21 12  0.0000000  0  8G17G07G08G11G04G24G26G28
 -14758414.64147 -11493417.59046  20888980.4454                   20888978.0234
  17039132.21146  13550169.24243  23724265.0004                   23724266.7274
   2841224.23447     94891.16045  21395256.9694                   21395256.1684
  13142483.39546   9026121.36342  24327551.5004                   24327548.5594
 -14530607.67647 -11313298.88744  22564362.8284                   22564362.8954
   1502873.10946   1174298.34444  23169329.9844                   23169329.9454
    168402.14546    135981.37543  23898423.6804                   23898425.4804
  -6077370.92247  -5298864.32045  21305947.2894                   21305943.5234
 11  8 12 21 12 30.0000000  0  8G17G07G08G11G04G24G26G28
 -14751938.87148 -11488371.52746  20890212.3134                   20890209.9884
  17161608.08646  13645604.73043  23747570.8984                   23747573.0204
   2937753.37147    170108.60245  21413626.0004                   21413624.8794
  13257222.21146   9115528.20743  24349385.3754                   24349383.4774
 -14624447.58647 -11386420.73844  22546504.9064                   22546505.7814
   1591504.30946   1243361.58644  23186196.2114                   23186195.3484
    247359.60946    197506.57043  23913449.0084                   23913450.4224
  -6076147.85947  -5297911.29345  21306179.8984                   21306176.9304
 11  8 12 21 13  0.0000000  0  8G17G07G08G11G04G24G26G28
 -14745204.00847 -11483123.57446  20891494.3834                   20891492.3554
  17284212.69146  13741140.53944  23770902.5004                   23770903.9494
   3034702.77747    245653.52345  21432075.3914                   21432074.0904
  13372108.44146   9205049.87943  24371247.2034                   24371245.9804
 -14718098.10247 -11459395.00044  22528684.2894                   22528684.3984
   1680503.22346   1312711.36744  23203131.9534                   23203131.0744
    326546.69146    259210.68743  23928518.0474                   23928519.2194
  -6074803.57447  -5296863.81245  21306435.8834                   21306432.5394
 11  8 12 21 13 30.0000000  0  8G17G07G08G11G04G24G26G28
 -14738197.80547 -11477664.18046  20892827.4144                   20892824.7034
  17406957.03146  13836785.26243  23794259.6884                   23794262.0354
   3132083.77747    321534.75445  21450605.8524                   21450604.8754
  13487153.16046   9294695.07043  24393139.9694                   24393137.8984
 -14811542.62547 -11532208.75044  22510901.9694                   22510902.7934
   1769880.80146   1382356.23044  23220139.8754                   23220139.5394
    405973.77346    321101.85943  23943632.8054                   23943634.7304
  -6073323.37147  -5295710.41445  21306717.5314                   21306714.5164
 11  8 12 21 14  0.0000000  0  8G17G07G08G11G04G24G26G28
 -14730924.15247 -11471996.38746  20894211.8594                   20894209.5314
  17529835.83246  13932534.75443  23817642.0554                   23817645.0354
   3229891.33247    397748.37545  21469217.5164                   21469217.1684
  13602350.97346   9384459.54343  24415061.4454                   24415060.7664
 -14904781.06647 -11604861.91844  22493159.2034                   22493159.6094
   1859631.84446   1452292.07844  23237218.3364                   23237218.7504
    485634.90246    383175.37143  23958791.5164                   23958793.4224
  -6071708.56347  -5294452.13745  21307024.6644                   21307021.7774
 11  8 12 21 14 30.0000000  0  8G17G07G08G11G04G24G26G28
 -14723369.81647 -11466109.87546  20895649.3364                   20895647.1414
  17652861.02746  14028398.30943  23841054.2344                   23841056.3954
   3328137.68047    474303.89545  21487913.4224                   21487913.4844
  13717714.15246   9474352.89143  24437014.1484                   24437012.0744
 -14997795.98447 -11677340.91044  22475458.7814                   22475459.7424
   1949768.85246   1522528.66843  23254371.4064                   23254371.2114
    565541.44146    445440.11343  23973997.0474                   23973999.3484
  -6069943.27747  -5293076.60245  21307360.6724                   21307357.6294
 11  8 12 21 15  0.0000000  0  8G17G07G08G11G04G24G26G28
 -14715535.56247 -11460005.24646  20897140.3364                   20897137.9224
  17776030.51246  14124374.30543  23864492.7034                   23864496.0044
   3426820.42647    551199.47345  21506692.4534                   21506692.5984
  13833240.18446   9564373.15242  24458997.6254                   24458996.6604
 -15090584.16047 -11749643.22744  22457802.1564                   22457802.3634
   2040289.49646   1593064.21143  23271597.0784                   23271596.0234
    645690.30546    507893.71543  23989248.4144                   23989251.1994
  -6068026.05547  -5291582.66845  21307725.3204                   21307722.3484
 11  8 12 21 15 30.0000000  0  8G17G07G08G11G04G24G26G28
 -14707414.41447 -11453677.06246  20898685.4614                   20898682.9344
  17899349.56346  14220466.82843  23887960.3524                   23887961.8954
   3525945.44147    628439.67645  21525555.3594                   21525554.9534
  13948934.49645   9654524.50842  24481013.9614                   24481012.4224
 -15183134.69547 -11821760.36344  22440189.8594                   22440190.0434
   2131199.41046   1663903.07843  23288896.9694                   23288896.3524
    726086.60546    570540.07843  24004548.2424                   24004550.4534
  -6065947.07047  -5289962.69545  21308121.2664                   21308117.7774
 11  8 12 21 16  0.0000000  0  8G17G07G08G11G04G24G26G28
 -14699017.98447 -11447134.37146  20900283.1334                   20900280.4774
  18022805.43046  14316665.99243  23911453.1564                   23911455.2154
   3625499.35247    706014.07045  21544499.7894                   21544499.4144
  14064784.31345   9744797.05942  24503059.9534                   24503056.8444
 -15275454.96147 -11893698.08244  22422622.1724                   22422622.1484
   2222485.75046   1735035.25043  23306267.8984                   23306267.7114
    806716.09446    633368.16043  24019892.0704                   24019893.4344
  -6063715.61347  -5288223.90245  21308545.9454                   21308542.7584
 11  8 12 21 16 30.0000000  0  8G17G07G08G11G04G24G26G28
 -14690340.44147 -11440372.63346  20901934.2424                   20901931.5634
  18146402.65646  14412975.23043  23934972.8674                   23934975.1804
   3725487.42647    783926.79345  21563527.3284                   21563526.3324
  14180794.06345   9835194.16442  24525134.7734                   24525131.6094
 -15367534.94947 -11965448.55544  22405099.2504                   22405099.6604
   2314153.17646   1806464.39143  23323711.7344                   23323710.8524
    887583.40246    696381.57443  24035280.2974                   24035281.7934
  -6061322.96147  -5286359.50845  21309001.0474                   21308997.8914
 11  8 12 21 17  0.0000000  0  8G17G07G08G11G04G24G26G28
 -14681386.61747 -11433395.60946  20903638.2504                   20903635.6254
  18270134.64146  14509389.50443  23958517.3754                   23958520.9774
   3825903.65247    862173.12945  21582635.3054                   21582634.9184
  14296957.898 5                  24547241.305
 -15459375.34047 -12037012.34844  22387622.8054                   22387623.2814
   2406195.42646   1878185.61743  23341226.0864                   23341225.5164
    968681.15646    759574.52343  24050713.4304                   24050714.4964
  -6058771.62547  -5284371.47745  21309486.6414                   21309483.5864
 11  8 12 21 17 30.0000000  0  8G17G07G08G11G04G24G26G28
 -14672154.41047 -11426201.66046  20905394.8674                   20905392.6564
  18394002.32846  14605909.48843  23982090.0634                   23982092.8244
   3926748.78547    940753.68745  21601825.8284                   21601825.6724
  14413276.387 5                  24569375.023
 -15550969.89547 -12108384.58244  22370192.9144                   22370193.1134
   2498613.47346   1950199.64843  23358813.2814                   23358812.1524
   1050009.68746    822947.30943  24066187.7424                   24066190.9694
  -6056056.98047  -5282256.18445  21310003.4144                   21310000.2274
 11  8 12 21 18  0.0000000  0  9G17G07G08G11G04G20G24G26G28
 -14662647.94547 -11418794.02346  20907204.1884                   20907201.7234
  18518000.22746  14702530.96143  24005686.5164                   24005688.8284
   4028017.08247   1019663.98045  21621096.9384                   21621096.3954
  14529744.012 6                  24591537.930
 -15642318.85947 -12179565.45344  22352809.4534                   22352809.7274
  -4786207.47315                  24742253.852
   2591401.71546   2022502.16043  23376469.8444                   23376469.7304
   1131562.68046    886494.96543  24081708.2974                   24081709.6134
  -6053180.76247  -5280014.98045  21310550.5554                   21310547.4264
 11  8 12 21 18 30.0000000  0  9G17G07G08G11G04G20G24G26G28
 -14652885.89847 -11411187.21546  20909061.9694                   20909059.5784
  18642108.71146  14799238.58243  24029303.2194                   24029306.0354
   4129688.86347   1098888.67645  21640444.5864                   21640443.2974
  14646341.035 6                  24613726.305
 -15733436.50847 -12250566.08244  22335470.1334                   22335470.3794
  -4819172.33245  -3751588.72352  24735980.2814                   24735981.4804
   2684540.48846   2095077.79343  23394194.0394                   23394194.0744
   1213319.41446    950201.44543  24097266.0004                   24097267.6214
  -6050158.52747  -5277660.00446  21311125.9384                   21311122.3634
 11  8 12 21 19  0.0000000  0  9G17G07G08G11G04G20G24G26G28
 -14642869.38347 -11403382.12546  20910967.6804                   20910965.5204
  18766324.51646  14896029.83643  24052941.5394                   24052943.5474
   4231761.31647   1178425.57845  21659868.1724                   21659867.6844
  14763064.629 6                  24635938.367
 -15824320.16447 -12321384.40644  22318175.5864                   22318175.7504
  -4851913.97745  -3777101.55543  24729750.4694                   24729750.8954
   2778027.06246   2167924.45343  23411983.9614                   23411983.3834
   1295276.41046   1014063.91043  24112861.3984                   24112863.9104
  -6046989.14547  -5275190.36745  21311729.0314                   21311725.6644
 11  8 12 21 19 30.0000000  0  9G17G07G08G11G04G20G24G26G28
 -14632603.68447 -11395382.85946  20912921.2424                   20912918.7274
  18890641.87146  14992900.20343  24076598.4454                   24076600.7734
   4334228.21547   1258269.84045  21679366.8984                   21679366.4104
  14879908.62146  10379958.53953  24658172.9454                   24658165.3914
 -15914970.68447 -12392021.03944  22300925.3524                   22300925.1374
  -4884433.37945  -3802441.24642  24723562.0164                   24723562.2034
   2871855.23846   2241037.28543  23429838.5394                   23429837.9224
   1377427.18746   1078077.39143  24128494.2114                   24128496.7704
  -6043674.89547  -5272607.83245  21312359.5944                   21312356.4694
 11  8 12 21 20  0.0000000  0  8G17G07G08G04G20G24G26G28
 -14622088.06647 -11387188.85946  20914922.5004                   20914920.0474
  19015059.66846  15089848.84843  24100274.8984                   24100277.2074
   4437089.14847   1338421.14545  21698941.0784                   21698940.3014
 -16005383.20347 -12462472.24244  22283720.3284                   22283720.1024
  -4916726.12145  -3827604.33242  24717416.1484                   24717417.0594
   2966024.23046   2314415.68443  23447758.5234                   23447757.6174
   1459769.87946   1142240.43043  24144164.1484                   24144165.6604
  -6040212.83647  -5269910.12945  21313018.4614                   21313015.2624
 11  8 12 21 20 30.0000000  0  8G17G07G08G04G20G24G26G28
 -14611322.40247 -11378800.01646  20916970.9694                   20916968.5164
  19139576.46146  15186874.67643  24123968.9694                   24123971.7194
   4540342.54747   1418878.25845  21718589.3444                   21718589.0044
 -16095553.77047 -12532734.91844  22266561.0314                   22266561.0664
  -4948788.21545  -3852587.64842  24711315.5004                   24711315.8284
   3060532.85546   2388058.75043  23465743.7734                   23465742.9534
   1542302.63346   1206551.55943  24159870.4064                   24159871.1374
  -6036600.10247  -5267095.00845  21313705.6024                   21313702.3754
 11  8 12 21 21  0.0000000  0  8G17G07G08G04G20G24G26G28
 -14600298.14547 -11370209.66446  20919068.7664                   20919066.1374
  19264199.57846  15283983.30143  24147684.3674                   24147687.0864
   4643995.52747   1499646.75445  21738313.7274                   21738313.5904
 -16185469.44947 -12602798.97744  22249450.8364                   22249451.1414
  -4980607.31645  -3877381.60942  24705259.7894                   24705260.1254
   3155388.23846   2461972.00843  23483793.5554                   23483793.1054
   1625032.05946   1271015.96543  24175613.0784                   24175614.7894
  -6032825.68847  -5264153.91045  21314424.3204                   21314420.8834
 11  8 12 21 21 30.0000000  0  8G17G07G08G04G20G24G26G28
 -14589013.28947 -11361416.25846  20921215.8984                   20921213.5864
  19388929.62146  15381175.26643  24171419.7504                   24171423.0354
   4748049.00447   1580727.29345  21758114.4224                   21758114.5984
 -16275124.51647 -12672659.97344  22232389.6954                   22232389.8914
  -5012177.48845  -3901981.60542  24699253.0554                   24699253.0314
   3250591.08646   2536156.01643  23501909.9454                   23501910.2624
   1707957.83646   1335633.39143  24191393.6484                   24191395.2074
  -6028884.80547  -5261083.09445  21315174.3054                   21315170.8754
 11  8 12 21 22  0.0000000  0  8G17G07G08G04G20G24G26G28
 -14577470.29347 -11352421.70746  20923412.5704                   20923410.1764
  19513763.05145  15478447.82043  24195174.8594                   24195178.3204
   4852499.13347   1662116.93045  21777990.7194                   21777990.8324
 -16364517.07047 -12742316.40244  22215379.2424                   22215379.0784
  -5043497.58245  -3926386.79342  24693292.0944                   24693292.6414
   3346137.66046   2610607.88343  23520092.2344                   23520092.2624
   1791075.74646   1400400.48043  24207209.7894                   24207211.3094
  -6024777.25847  -5257882.40645  21315955.2274                   21315952.2274
 11  8 12 21 22 30.0000000  0  8G17G07G08G04G20G24G26G28
 -14565678.36347 -11343233.17646  20925656.7194                   20925654.2344
  19638688.68045  15575792.17242  24218947.8674                   24218950.6454
   4957335.25847   1743807.33245  21797940.2974                   21797940.1484
 -16453652.19147 -12811772.22344  22198417.1484                   22198416.8324
  -5074571.75056  -3950600.08652  24687380.0784                   24687379.5514
   3442017.62146   2685319.52044  23538337.2664                   23538337.1484
   1874374.58646   1465308.57443  24223061.3914                   24223062.8524
  -6020509.73847  -5254557.05945  21316767.8134                   21316764.4384
 11  8 12 21 23  0.0000000  0  8G17G07G08G04G20G24G26G28
 -14553640.39147 -11333852.92246  20927947.2424                   20927945.0824
  19763703.02745  15673205.63743  24242737.2194                   24242740.2854
   5062553.09847   1825795.19145  21817962.2664                   21817962.5744
 -16542528.60247 -12881026.47344  22181504.5554                   22181504.2934
  -5105400.80146  -3974622.63743  24681512.1954                   24681512.0634
   3538226.71946   2760287.62144  23556645.4774                   23556644.8054
   1957849.34446   1530353.72343  24238945.6804                   24238947.4534
  -6016082.25447  -5251107.07445  21317610.1564                   21317606.9264
 11  8 12 21 23 30.0000000  0  8G17G07G08G04G20G24G26G28
 -16116780.70747 -12551884.32446  20630491.6884                   20630488.9184
  18313384.25846  14543086.84043  23966750.5084                   23966754.3874
   3592730.40647    680478.73045  21538264.6954                   21538264.9144
 -18206569.70347 -14177681.76244  21864847.5784                   21864847.9414
  -6711405.36356  -5226054.67652  24375900.0084                   24375899.6524
   2059342.34846   1607910.16444  23275222.9694                   23275222.6454
    466076.43846    367933.16843  23955070.6484                   23955073.1174
  -7586916.59447  -6475133.82045  21018690.5864                   21018687.3204
 11  8 12 21 24  0.0000000  0  8G17G07G08G04G20G24G26G28
 -16104267.91447 -12542134.08646  20632872.7194                   20632870.0944
  18438554.57046  14640621.84843  23990570.6884                   23990573.9734
   3698690.23047    763044.75045  21558428.6334                   21558428.5314
 -18294933.77347 -14246536.78144  21848032.8204                   21848032.6094
  -6741748.05946  -5249698.26242  24370124.8914                   24370125.4384
   2156188.35546   1683374.56343  23293651.8594                   23293651.7934
    549879.90246    433234.46543  23971018.4224                   23971020.6294
  -7582178.76247  -6471441.99645  21019591.7114                   21019589.0234
 11  8 12 21 24 30.0000000  0  8G17G07G08G04G20G24G26G28
 -16091527.02347 -12532206.10946  20635297.3834                   20635294.9534
  18563791.21146  14738208.54743  24014402.7194                   24014405.3794
   3805009.77347    845891.06644  21578660.3204                   21578660.1254
 -18383044.67247 -14315194.51244  21831265.8594                   21831265.9064
  -6771851.14846  -5273155.10542  24364398.6094                   24364396.9304
   2253341.69546   1759078.40643  23312139.9144                   23312139.7234
    633835.53146    498654.34443  23986994.6954                   23986996.1214
  -7577291.00047  -6467633.35245  21020522.1564                   21020518.9184
 11  8 12 21 25  0.0000000  0  8G17G07G08G04G20G24G26G28
 -16078554.70747 -12522097.79746  20637765.3594                   20637763.1994
  18689096.39846  14835848.63343  24038247.3834                   24038251.2154
   3911690.84847    929019.09445  21598961.0474                   21598961.0394
 -18470894.96147 -14383649.18444  21814548.5634                   21814548.5234
  -6801707.21546  -5296419.52343  24358715.2194                   24358715.5594
   2350804.53146   1835023.40643  23330686.6024                   23330686.5354
    717944.55146    564193.74243  24003000.5864                   24003001.1844
  -7572247.37547  -6463703.26645  21021482.0474                   21021478.7854
 11  8 12 21 25 30.0000000  0  8G17G07G08G04G20G24G26G28
 -16065363.28947 -12511818.76646  20640276.1414                   20640273.9384
  18814456.40246  14933531.48043  24062103.3134                   24062106.9534
   4018719.73047   1012418.13344  21619328.3594                   21619327.7424
 -18558493.22747 -14451907.46945  21797878.5314                   21797877.9454
  -6831324.87546  -5319498.09443  24353080.2584                   24353080.1294
   2448562.64546   1911198.53543  23349289.5314                   23349289.3524
    802192.44146    629841.32443  24019032.0164                   24019034.2074
  -7567057.64847  -6459659.32446  21022469.6564                   21022466.5004
 11  8 12 21 26  0.0000000  0  8G17G07G08G04G20G24G26G28
 -16051956.35247 -12501371.78946  20642827.6024                   20642825.0634
  18939866.13746  15031253.04743  24085968.4064                   24085972.1254
   4126091.10947   1096084.07044  21639760.4144                   21639760.0004
 -18645838.84847 -14519968.88344  21781257.4844                   21781256.6804
  -6860704.34046  -5342391.08643  24347488.2424                   24347488.2234
   2546611.21946   1987599.98043  23367946.7664                   23367946.7974
    886573.42646    695592.64143  24035089.4144                   24035091.2234
  -7561722.78947  -6455502.30145  21023484.6174                   21023481.4964
 11  8 12 21 26 30.0000000  0  8G17G07G08G04G20G24G26G28
 -16038346.38347 -12490766.60946  20645417.0554                   20645414.7894
  19065311.92646  15129002.70743  24109839.1724                   24109843.9224
   4233791.36347   1180006.24645  21660255.1954                   21660254.5594
 -18732940.09447 -14587839.89144  21764682.3444                   21764682.8324
  -6889853.99646  -5365105.03943  24341942.1174                   24341941.3554
   2644936.55146   2064217.08643  23386657.5314                   23386657.4654
    971073.48846    761436.74243  24051170.0394                   24051171.2194
  -7556252.25847  -6451239.56645  21024525.6024                   21024522.3874
 11  8 12 21 27  0.0000000  0  8G17G07G08G04G20G24G26G28
 -16024526.15247 -12479997.59446  20648047.3674                   20648044.2814
  19190799.74646  15226785.10543  24133719.9224                   24133723.9384
   4341826.34847   1264189.27044  21680813.3284                   21680813.3834
 -18819785.71947 -14655511.70344  21748156.1254                   21748155.7274
  -6918762.85546  -5387631.32843  24336440.1724                   24336440.1684
   2743544.36746   2141054.29743  23405422.2194                   23405421.8364
   1055697.48846    827377.38343  24067272.6564                   24067274.8094
  -7550636.42247  -6446863.59845  21025593.8674                   21025591.0394
 11  8 12 21 27 30.0000000  0  8G17G07G08G04G20G24G26G28
 -16010497.71547 -12469066.32446  20650716.6254                   20650714.4614
  19316326.28146  15324597.67243  24157606.1644                   24157610.8364
   4450192.23047   1348630.13344  21701435.2504                   21701434.8484
 -18906373.65647 -14722982.73445  21731679.1024                   21731678.4494
  -6947428.60946  -5409968.19542  24330985.8914                   24330985.8404
   2842431.48446   2218109.15643  23424239.9924                   23424239.2704
   1140441.81346    893411.78143  24083399.4454                   24083401.7194
  -7544874.19147  -6442373.55546  21026690.4224                   21026687.6644
 11  8 12 21 28  0.0000000  0  8G17G07G08G04G20G24G26G28
 -15996265.53547 -12457976.30546  20653425.2894                   20653422.7304
  19441885.59845  15422435.73443  24181501.0704                   24181504.2344
   4558883.10947   1433324.25445  21722117.6804                   21722117.9964
 -18992704.31247 -14790253.27745  21715250.7274                   21715250.3014
  -6975852.46146  -5432116.53542  24325577.0784                   24325576.5864
   2941592.08246   2295377.14543  23443109.4614                   23443108.8984
   1225299.76646    959534.75443  24099547.1094                   24099549.9494
  -7538967.72347  -6437771.12945  21027814.7974                   21027811.5554
 11  8 12 21 28 30.0000000  0  8G17G07G08G04G20G24G26G28
 -15981825.64847 -12446724.43746  20656172.7664                   20656170.1134
  19567480.63345  15520301.68442  24205400.5004                   24205403.6134
   4667901.51647   1518273.55945  21742863.9844                   21742863.6844
 -19078769.58247 -14857317.03944  21698872.8834                   21698872.0744
  -7004026.79346  -5454070.46143  24320215.6484                   24320214.6564
   3041028.71146   2372860.18043  23462031.8444                   23462031.7624
   1310273.19146   1025747.69943  24115717.2344                   24115720.0434
  -7532910.71547  -6433051.39145  21028967.3984                   21028964.1604
 11  8 12 21 29  0.0000000  0  8G17G07G08G04G20G24G26G28
 -15967173.27047 -12435306.98846  20658960.8594                   20658958.5704
  19693114.60945  15618197.95742  24229307.6414                   24229310.4654
   4777250.48847   1603480.48045  21763673.1024                   21763672.2304
 -19164560.82047 -14924167.26244  21682547.4844                   21682546.8984
  -7031943.01246  -5475823.24643  24314903.6094                   24314902.8874
   3140744.60546   2450560.84843  23481007.6094                   23481007.1094
   1395364.82046   1092052.72343  24131909.6644                   24131912.8634
  -7526695.42647  -6428208.31645  21030150.1254                   21030147.2424
 11  8 12 21 29 30.0000000  0  8G17G07G08G04G20G24G26G28
 -15952308.68047 -12423724.17646  20661789.3204                   20661787.1524
  19818785.70345  15716123.19542  24253222.5864                   24253225.1684
   4886928.76647   1688944.00044  21784543.3914                   21784543.7154
 -19250073.91847 -14990800.76645  21666274.7114                   21666274.1484
  -7059597.28546  -5497371.93743  24309640.5784                   24309640.3244
   3240738.16446   2528477.88743  23500035.5084                   23500034.7464
   1480572.75846   1158448.41043  24148124.2424                   24148126.9884
  -7520319.22747  -6423239.85945  21031363.0704                   21031360.4064
 11  8 12 21 30  0.0000000  0  8G17G07G08G04G20G24G26G28
 -15937220.32847 -12411967.00846  20664661.0784                   20664658.6024
  19944504.36746  15814085.56642  24277146.4454                   24277149.2234
   4996946.16847   1774671.76244  21805478.7034                   21805478.9694
 -19335293.47747 -15057205.52745  21650057.6484                   21650057.3794
  -7086974.34846  -5518704.61742  24304430.1414                   24304429.9884
   3341019.98046   2606619.53543  23519118.6804                   23519117.5164
   1565906.23446   1224941.87943  24164363.1484                   24164365.3244
  -7513767.85547  -6418134.89145  21032610.3444                   21032607.0004
 11  8 12 21 30 30.0000000  0  8G17G07G08G04G20G24G26G28
 -15921913.73047 -12400039.77746  20667574.0634                   20667571.3594
  20070263.77046  15912079.62543  24301076.9924                   24301080.4414
   5107295.38347   1860658.06644  21826478.0704                   21826477.8284
 -19420221.05147 -15123382.78544  21633896.4224                   21633896.3164
  -7114076.26646  -5539822.91442  24299272.7194                   24299273.0864
   3441582.77046   2684980.12543  23538255.5634                   23538254.8794
   1651357.76646   1291527.34443  24180623.7274                   24180625.5554
  -7507044.21547  -6412895.69145  21033889.4694                   21033886.7974
 11  8 12 21 31  0.0000000  0  8G17G07G08G04G20G24G26G28
 -15906373.82447 -12387930.75846  20670530.6414                   20670528.4774
  20196077.73846  16010116.16843  24325019.4694                   24325023.7234
   5217990.08647   1946913.60244  21847542.0864                   21847542.4964
 -19504837.53147 -15189317.63345  21617795.0864                   21617794.3914
  -7140884.10946  -5560712.06242  24294172.7194                   24294172.1764
   3542440.52346   2763570.56643  23557447.9534                   23557447.0274
   1736940.42246   1358214.97343  24196909.5704                   24196912.9344
  -7500130.62947  -6407508.47345  21035205.3984                   21035202.1884
 11  8 12 21 31 30.0000000  0  8G17G07G08G04G20G24G26G28
 -15890604.80547 -12375643.19946  20673531.8984                   20673528.9534
  20321940.46546  16108190.71943  24348970.8674                   24348975.4574
   5329024.62147   2033433.93444  21868671.3054                   21868671.7704
 -19589142.96547 -15255010.09445  21601751.6094                   21601751.5984
  -7167398.14146  -5581372.26642  24289126.2274                   24289125.3714
   3643587.51246   2842386.37943  23576695.3834                   23576695.1254
   1822648.18046   1425000.09043  24213219.6804                   24213222.2344
  -7493028.49247  -6401974.34446  21036556.4774                   21036553.5274
 11  8 12 21 32  0.0000000  0  8G17G07G08G04G20G24G26G28
 -15874605.05147 -12363175.85246  20676575.9064                   20676573.1294
  20447852.83646  16206303.93443  24372931.6174                   24372936.4414
   5440399.11747   2120219.15644  21889865.4224                   21889865.7664
 -19673131.66847 -15320455.77745  21585769.3444                   21585768.7274
  -7193613.19146  -5601799.52342  24284137.1564                   24284137.1054
   3745023.83646   2921427.64843  23595998.3914                   23595997.6254
   1908480.57446   1491882.35243  24229554.0634                   24229556.0124
  -7485733.57447  -6396289.98846  21037944.6564                   21037941.8484
 11  8 12 21 32 30.0000000  0  8G17G07G08G04G20G24G26G28
 -15858380.13347 -12350533.05146  20679663.5864                   20679661.1254
  20573807.19146  16304449.87143  24396899.1334                   24396905.0984
   5552106.41447   2207263.71544  21911122.9694                   21911122.7894
 -19756805.18047 -15385655.84045  21569846.1254                   21569846.3094
  -7219531.01646  -5621995.15642  24279205.0864                   24279204.7344
   3846742.80146   3000689.15643  23615353.4144                   23615353.8284
   1994430.20346   1558855.95743  24245909.2894                   24245911.9144
  -7478248.90247  -6390457.77745  21039369.0474                   21039365.9614
 11  8 12 21 33  0.0000000  0  8G17G07G08G04G20G24G26G28
 -15841920.80947 -12337707.60246  20682795.5164                   20682793.6254
  20699812.23846  16402635.30943  24420877.1334                   24420882.9454
   5664154.27047   2294573.63744  21932445.3134                   21932445.1994
 -19840150.25047 -15450599.99245  21553986.6024                   21553986.2424
  -7245138.67645  -5641949.08642  24274332.1024                   24274332.0634
   3948752.20746   3080176.93043  23634765.8054                   23634765.5864
   2080504.26646   1625926.54343  24262288.0784                   24262291.7814
  -7470562.21147  -6384468.14845  21040831.8054                   21040828.6214
 11  8 12 21 33 30.0000000  0  8G17G07G08G04G20G24G26G28
 -15825237.13747 -12324707.32846  20685970.5164                   20685967.9534
  20825856.49645  16500851.28943  24444863.3754                   24444868.8244
   5776531.23847   2382140.01244  21953829.7114                   21953829.6684
 -19923172.71147 -15515292.74245  21538187.9614                   21538187.4924
  -7270442.54346  -5661666.34842  24269517.5084                   24269517.2774
   4051040.80546   3159882.26643  23654230.7344                   23654231.3134
   2166690.85546   1693084.75843  24278688.7114                   24278692.5554
  -7462680.61347  -6378326.64145  21042331.1334                   21042328.4414
 11  8 12 21 34  0.0000000  0  8G17G07G08G04G20G24G26G28
 -15808338.85547 -12311539.82846  20689186.2194                   20689183.4494
  20951928.65645  16599089.01643  24468853.5704                   24468859.4574
   5889225.27047   2469953.43844  21975274.8674                   21975274.7664
 -20005878.59847 -15579738.81245  21522448.9614                   21522448.6684
  -7295448.78145  -5681151.63742  24264758.0634                   24264758.3914
   4153597.07446   3239796.21943  23673746.4614                   23673746.5784
   2252978.07046   1760321.39843  24295109.1564                   24295111.2304
  -7454611.44947  -6372038.99245  21043867.0394                   21043864.1374
 11  8 12 21 34 30.0000000  0  7G17G08G04G20G24G26G28
 -15791224.03947 -12298203.60246  20692442.6724                   20692440.4304
   6002237.07447   2558014.49644  21996780.1954                   21996780.3594
 -20088262.12147 -15643933.68045  21506771.8524                   21506771.3594
  -7320151.69145  -5700400.53542  24260057.2664                   24260057.6254
   4256421.49646   3319919.10543  23693313.8364                   23693313.9184
   2339365.77746   1827636.35543  24311548.8754                   24311550.6524
  -7446350.44947  -6365601.85245  21045439.2974                   21045436.2274
 11  8 12 21 35  0.0000000  0  7G17G08G04G20G24G26G28
 -15773892.96147 -12284698.85946  20695741.0164                   20695738.5704
   6115564.88747   2646321.78144  22018346.1484                   22018346.4884
 -20170319.29347 -15707874.25845  21491157.3674                   21491156.6484
  -7344548.07445  -5719410.69542  24255414.5864                   24255414.1054
   4359512.91446   3400249.99643  23712931.4774                   23712931.3674
   2425851.94546   1895028.04343  24328006.5314                   24328008.9264
  -7437894.54347  -6359012.84045  21047048.5944                   21047045.1724
 11  8 12 21 35 30.0000000  0  7G17G08G04G20G24G26G28
 -15756338.18747 -12271019.80146  20699081.6174                   20699079.1804
   6229214.51247   2734879.83644  22039973.0554                   22039973.2624
 -20252038.61747 -15771551.56245  21475606.7274                   21475606.1684
  -7368626.68745  -5738173.22342  24250833.7814                   24250831.7934
   4462876.80946   3480793.25843  23732602.0164                   23732600.4844
   2512441.89546   1962500.58243  24344483.8594                   24344486.6414
  -7429233.87147  -6352264.28945  21048696.2664                   21048693.1564
 11  8 12 21 36  0.0000000  0  7G17G08G04G20G24G26G28
 -15738552.29747 -12257160.66446  20702465.8204                   20702463.1254
   6343191.82047   2823693.21544  22061662.4454                   22061662.4144
 -20333408.59447 -15834956.66045  21460122.8524                   21460122.2074
  -7392376.10945  -5756679.14142  24246314.1254                   24246312.0744
   4566519.73846   3561553.92643  23752324.0634                   23752322.8204
   2599141.71146   2030058.74243  24360982.7894                   24360985.3524
  -7420358.15247  -6345348.15245  21050385.6254                   21050382.6094
 11  8 12 21 36 30.0000000  0  7G17G08G04G20G24G26G28
 -15720531.76647 -12243118.67246  20705894.8674                   20705892.7894
   6457498.38747   2912763.16444  22083414.4454                   22083414.6374
 -20414422.31247 -15898084.15645  21444705.9694                   21444704.9844
  -7415789.46545  -5774923.24642  24241857.8524                   24241856.6024
   4670443.29346   3642533.28943  23772099.2034                   23772099.0124
   2685951.97346   2097702.94943  24377502.4774                   24377505.1684
  -7411261.66047  -6338259.99245  21052116.2194                   21052113.4574
 11  8 12 21 37  0.0000000  0  7G17G08G04G20G24G26G28
 -15702282.20747 -12228898.22746  20709367.9384                   20709365.3054
   6572127.35947   3002084.32444  22105227.6174                   22105227.4104
 -20495081.07047 -15960935.05945  21429356.8444                   21429356.6684
  -7438869.02745  -5792907.25442  24237466.4774                   24237465.0164
   4774640.84846   3723726.15243  23791927.7274                   23791927.1994
   2772865.56346   2165427.66043  24394041.4064                   24394044.0354
  -7401946.94547  -6331001.77745  21053888.8284                   21053886.1374
 11  8 12 21 37 30.0000000  0  7G17G08G04G20G24G26G28
 -15683803.72747 -12214499.39846  20712884.5394                   20712882.1254
   6687077.07447   3091655.43044  22127101.3204                   22127101.9774
 -20575380.79347 -16023506.19145  21414076.1884                   21414075.7624
  -7461610.84445  -5810628.07842  24233137.8524                   24233137.3284
   4879110.90646   3805131.37943  23811808.0084                   23811807.5664
   2859880.54346   2233231.41043  24410599.9614                   24410602.7384
  -7392411.08647  -6323571.25045  21055703.6564                   21055700.8134
 11  8 12 21 38  0.0000000  0  7G17G08G04G20G24G26G28
 -15665091.05147 -12199918.09446  20716444.8444                   20716443.1954
   6802350.55947   3181478.80944  22149037.3914                   22149037.2384
 -20655312.55147 -16085790.60245  21398865.7344                   21398864.9184
  -7484006.18745  -5828078.96142  24228876.1484                   24228875.4344
   4983857.37546   3886751.96943  23831740.1024                   23831740.7504
   2947000.39546   2301116.85543  24427178.3134                   24427181.5394
  -7382646.21147  -6315962.27346  21057561.9924                   21057558.8954
 11  8 12 21 38 30.0000000  0  7G17G08G04G20G24G26G28
 -15646147.00447 -12185156.48046  20720050.3284                   20720047.6804
   6917943.73847   3271551.29744  22171034.4454                   22171034.2894
 -20734875.21947 -16147787.41045  21383725.8204                   21383724.8094
  -7506054.35545  -5845259.30142  24224681.5474                   24224680.7074
   5088875.73846   3968584.42243  23851724.5704                   23851724.3204
   3034219.87146   2369079.97742  24443775.4304                   24443778.3134
  -7372652.66047  -6308175.11346  21059463.6414                   21059460.7234
 11  8 12 21 39  0.0000000  0  7G17G08G04G20G24G26G28
 -15626968.50447 -12170212.19546  20723699.8054                   20723697.2424
   7033857.89547   3361873.90644  22193092.3594                   22193092.2774
 -20814062.01647 -16209491.32445  21368656.7114                   21368655.7384
  -7527749.06645  -5862164.20342  24220553.1414                   24220551.4654
   5194167.57446   4050630.00843  23871761.0474                   23871760.6724
   3121540.29346   2437121.69142  24460391.8914                   24460394.9654
  -7362424.94547  -6300205.48846  21061409.6564                   21061406.7624
 11  8 12 21 39 30.0000000  0  7G17G08G04G20G24G26G28
 -15607555.65647 -12155085.30146  20727393.5784                   20727391.4964
   7150091.36747   3452445.35244  22215210.3054                   22215211.0824
 -20892868.78547 -16270899.12945  21353660.0234                   21353659.4344
  -7549086.23446  -5878790.53542  24216492.9144                   24216492.1684
   5299731.74246   4132887.74643  23891848.7344                   23891848.8834
   3208960.03146   2505240.80142  24477027.5314                   24477030.7154
  -7351960.03547  -6292051.02745  21063401.3364                   21063398.4734
 11  8 12 21 40  0.0000000  0  7G17G08G04G20G24G26G28
 -15587921.33647 -12139785.82446  20731130.2814                   20731127.8834
   7266629.53547   3543254.17644  22237387.1564                   22237387.0044
 -20971304.74247 -16332017.96945  21338733.8834                   21338733.5004
  -7570075.33645  -5895145.64142  24212498.4844                   24212498.1524
   5405553.73446   4215346.41843  23911986.2974                   23911986.5044
   3296463.57045   2573425.23442  24493678.3834                   24493681.8634
  -7341268.07847  -6283719.64145  21065436.0394                   21065432.2274
 11  8 12 21 40 30.0000000  0  7G17G08G04G20G24G26G28
 -15568063.90247 -12124312.50446  20734908.4844                   20734906.3324
   7383473.02047   3634300.93844  22259622.3204                   22259622.1024
 -21049363.88747 -16392843.20345  21323880.4924                   21323879.0984
  -7590711.03545  -5911225.30942  24208571.7034                   24208571.0234
   5511634.25446   4298006.50443  23932172.2504                   23932172.5664
   3384051.37145   2641675.30942  24510347.2194                   24510349.9304
  -7330344.46547  -6275207.76245  21067514.9454                   21067511.4224
 11  8 12 21 41  0.0000000  0  7G17G08G04G20G24G26G28
 -15547985.60547 -12108667.06646  20738729.5234                   20738727.5314
   7500616.94147   3725581.78944  22281913.9774                   22281914.1644
 -21127045.11347 -16453373.95345  21309098.0394                   21309096.8954
  -7610992.83245  -5927029.26242  24204711.5164                   24204711.3954
   5617969.05146   4380864.76642  23952408.1174                   23952407.8444
   3471718.60946   2709987.20742  24527028.9534                   24527032.3634
  -7319189.14547  -6266515.32446  21069637.1644                   21069634.6094
 11  8 12 21 41 30.0000000  0  7G17G08G04G20G24G26G28
 -15527687.93747 -12092850.70746  20742592.0704                   20742589.6414
   7618058.12947   3817094.30144  22304262.4774                   22304262.5984
 -21204345.71547 -16513608.12145  21294387.9924                   21294387.2544
  -7630917.77046  -5942555.12142  24200920.0784                   24200919.9304
   5724555.53946   4463919.09442  23972690.3674                   23972690.6564
   3559462.29745   2778358.82442  24543726.7734                   24543730.2154
  -7307800.72347  -6257641.23846  21071804.4774                   21071801.2934
 11  8 12 21 42  0.0000000  0  8G17G09G08G04G20G24G26G28
 -15507177.69147 -12076868.70746  20746495.4454                   20746492.7074
  -6466959.47315                  24093017.422
   7735788.33247   3908832.00444  22326665.4534                   22326665.2544
 -21281268.93047 -16573548.20745  21279749.6724                   21279749.2624
  -7650489.64545  -5957805.90242  24197195.5784                   24197195.4804
   5831385.33246   4547163.00042  23993019.8914                   23993020.2114
   3647273.43446   2846782.88743  24560436.9454                   24560439.9104
  -7296183.62947  -6248588.97745  21074015.0634                   21074012.3324
 11  8 12 21 42 30.0000000  0  8G17G09G08G04G20G24G26G28
 -15486469.63347 -12060732.56646  20750435.9534                   20750433.2304
  -6557837.637 6                  24075724.727
   7853791.26247   4000782.21944  22349120.6954                   22349120.3754
 -21357825.47747 -16633202.59045  21265181.1334                   21265180.3594
  -7669719.75845  -5972790.34042  24193536.3984                   24193535.7584
   5938442.27746   4630583.95743  24013392.2584                   24013392.4494
   3735135.62145   2915246.76242  24577156.0164                   24577159.5744
  -7284349.69147  -6239367.75045  21076267.1804                   21076264.1334
 11  8 12 21 43  0.0000000  0  8G17G09G08G04G20G24G26G28
 -15465566.11747 -12044444.12546  20754413.7034                   20754410.7274
  -6648436.12546  -5174239.01053  24058484.8054                   24058479.9534
   7972062.81346   4092941.74644  22371627.1804                   22371627.7194
 -21434013.96947 -16692570.17645  21250683.3204                   21250682.4494
  -7688606.87945  -5987507.56243  24189942.3204                   24189941.4454
   6045722.68846   4714178.98443  24033807.2664                   24033806.5434
   3823044.39846   2983746.95743  24593884.8834                   24593888.0394
  -7272298.60547  -6229977.29745  21078560.4614                   21078557.2544
 11  8 12 21 43 30.0000000  0  8G17G09G08G04G20G24G26G28
 -15444471.98847 -12028007.14846  20758427.5474                   20758425.3164
  -6738755.59846  -5244617.70742  24041297.6804                   24041295.1804
   8090596.31646   4185305.41044  22394183.0704                   22394184.1454
 -21509835.16847 -16751651.55945  21236254.8204                   21236253.4844
  -7707152.23446  -6001958.43743  24186413.8444                   24186413.0554
   6153220.35546   4797943.37943  24054263.6174                   24054263.3754
   3910993.27746   3052278.36343  24610621.1884                   24610625.7114
  -7260032.31247  -6220419.15645  21080894.7424                   21080891.9264
 11  8 12 21 44  0.0000000  0  8G17G09G08G04G20G24G26G28
 -15423184.58247 -12011419.55546  20762478.2114                   20762475.8714
  -6828789.06646  -5314773.53142  24024163.3134                   24024162.4144
   8209392.66446   4277873.85244  22416788.9304                   22416790.4614
 -21585282.84047 -16810441.87545  21221897.3054                   21221896.1844
  -7725349.85245  -6016138.32443  24182948.3444                   24182949.8204
   6260936.48846   4881877.96943  24074761.6174                   24074760.9924
   3998982.58646   3120841.25042  24627365.1644                   24627368.9064
  -7247545.66047  -6210689.30145  21083270.9224                   21083267.5824
 11  8 12 21 44 30.0000000  0  8G17G09G08G04G20G24G26G28
 -15401700.74647 -11994678.90646  20766566.7274                   20766564.1454
  -6918529.14146  -5384700.77342  24007087.4534                   24007085.5124
   8328453.13346   4370648.12944  22439446.5314                   22439447.2774
 -21660350.08647 -16868935.76645  21207612.5234                   21207612.0234
  -7743193.20346  -6030042.16443  24179555.6724                   24179553.7464
   6368872.46946   4965983.88343  24095300.6024                   24095300.2974
   4087013.74646   3189436.78943  24644117.7974                   24644120.1374
  -7234832.59847  -6200783.03545  21085689.6414                   21085686.9104
 11  8 12 21 45  0.0000000  0  8G17G09G08G04G20G24G26G28
 -15380023.96547 -11977787.91446  20770691.5554                   20770689.4694
  -7007975.21146  -5454398.91043  23990065.9144                   23990064.8404
   8447772.54346   4463624.17244  22462151.5944                   22462152.9964
 -21735036.81647 -16927133.15645  21193399.8134                   21193399.3714
  -7760682.55145  -6043670.17643  24176226.3284                   24176226.4694
   6477023.50446   5050257.36743  24115880.5864                   24115881.3164
   4175081.22746   3258060.59843  24660875.6644                   24660879.6644
  -7221894.64547  -6190701.51245  21088151.8054                   21088148.7274
 11  8 12 21 45 30.0000000  0  8G17G09G08G04G20G24G26G28
 -15358143.09447 -11960737.88746  20774855.1644                   20774853.2034
  -7097111.55546  -5523855.69943  23973103.1804                   23973102.9304
   8567360.27246   4556809.30544  22484907.8134                   22484909.9224
 -21809327.98847 -16985022.32845  21179263.1334                   21179261.8014
  -7777803.44946  -6057011.09842  24172968.6024                   24172968.1764
   6585399.46146   5134706.07843  24136503.9384                   24136504.3984
   4263194.40646   3326720.03143  24677643.4924                   24677647.5204
  -7208717.47747  -6180433.58645  21090659.4304                   21090656.3634
 11  8 12 21 46  0.0000000  0  8G17G09G08G04G20G24G26G28
 -15336054.30147 -11943525.84046  20779059.2814                   20779056.7384
  -7185929.93046  -5593064.76643  23956202.4454                   23956202.3094
   8687219.02746   4650205.60244  22507717.2424                   22507718.2934
 -21883215.35247 -17042596.85245  21165202.6174                   21165201.8324
  -7794548.16045  -6070058.81243  24169782.2034                   24169782.3364
   6694003.32046   5219332.40243  24157170.8284                   24157170.5434
   4351355.54746   3395416.81643  24694419.6174                   24694424.3554
  -7195294.38347  -6169974.03545  21093213.8834                   21093210.6564
 11  8 12 21 46 30.0000000  0  8G17G09G08G04G20G24G26G28
 -15313753.32447 -11926148.44946  20783302.4774                   20783300.2544
  -7274421.96946  -5662019.52343  23939362.1414                   23939362.7344
   8807350.60546   4743814.49644  22530577.7344                   22530578.6094
 -21956691.54747 -17099850.96545  21151220.4224                   21151219.3484
  -7810909.42246  -6082807.80143  24166669.1484                   24166667.8634
   6802837.24646   5304138.00043  24177881.6254                   24177880.9184
   4439566.58646   3464152.50843  24711206.0864                   24711210.2504
  -7181618.57847  -6159317.56645  21095816.2424                   21095813.6024
 11  8 12 21 47  0.0000000  0  8G17G09G08G04G20G24G26G28
 -15291239.78947 -11908605.43446  20787587.1564                   20787584.4884
  -7362582.69946  -5730716.12543  23922586.4844                   23922586.5314
   8927753.58247   4837634.86344  22553490.4924                   22553491.3594
 -22029752.35247 -17156781.41845  21137317.8204                   21137316.5634
  -7826883.54346  -6095255.11743  24163629.3134                   24163628.2774
   6911900.35546   5389122.22343  24198636.2894                   24198635.4224
   4527826.29346   3532926.10943  24728001.6564                   24728005.3754
  -7167686.69147  -6148461.54745  21098467.6024                   21098463.9884
 11  8 12 21 47 30.0000000  0  8G17G09G08G04G20G24G26G28
 -15268517.91447 -11890900.07046  20791910.6564                   20791908.1174
  -7450412.31246  -5799154.73443  23905872.3754                   23905872.6764
   9048422.14146   4931662.19144  22576452.6564                   22576453.5864
 -22102398.31247 -17213388.60545  21123493.3444                   21123492.2154
  -7842471.51245  -6107401.50043  24160662.3914                   24160661.8014
   7021186.98046   5474280.57442  24219431.1564                   24219430.4574
   4616128.33646   3601732.66843  24744805.1804                   24744808.6134
  -7153500.93047  -6137407.71145  21101166.5864                   21101164.1094
 11  8 12 21 48  0.0000000  0  9G17G09G08G02G04G20G24G26G28
 -15245585.39847 -11873030.57046  20796274.5634                   20796271.8874
  -7537903.85946  -5867329.87543  23889222.9224                   23889223.5944
   9169356.91046   5025896.94544  22599465.1954                   22599467.0044
  -6468938.34416                  24669793.750
 -22174623.36347 -17269667.81245  21109749.3674                   21109748.8054
  -7857667.29746  -6119242.31643  24157770.5164                   24157769.7814
   7130697.93045   5559613.73442  24240270.8594                   24240271.0354
   4704473.16046   3670572.58243  24761616.6174                   24761619.8054
  -7139056.03947  -6126151.95745  21103915.3524                   21103912.3244
 11  8 12 21 48 30.0000000  0  9G17G09G08G02G04G20G24G26G28
 -15222452.72747 -11855005.10546  20800676.2504                   20800674.1054
  -7625063.78146  -5935246.67243  23872637.9384                   23872637.1334
   9290545.55146   5120329.51643  22622527.1254                   22622527.8134
  -6561194.09046  -5106250.71152  24652236.6414                   24652238.9964
 -22246434.15647 -17325624.21545  21096084.0704                   21096083.0984
  -7872478.15245  -6130783.17243  24154952.1724                   24154951.0984
   7240421.39545   5645112.50042  24261151.3914                   24261151.0164
   4792848.52346   3739436.33643  24778433.4454                   24778438.1454
  -7124359.79347  -6114700.34045  21106712.4454                   21106709.1294
 11  8 12 21 49  0.0000000  0  9G17G09G08G02G04G20G24G26G28
 -15199116.59447 -11836821.10946  20805116.8284                   20805114.5514
  -7711884.70346  -6002899.26643  23856115.6644                   23856115.8524
   9411989.57446   5214961.09443  22645638.0004                   22645638.0784
  -6653392.80546  -5178093.42643  24634691.2894                   24634694.2584
 -22317824.14847 -17381252.73845  21082499.3134                   21082498.1254
  -7886897.79746  -6142019.19143  24152207.9224                   24152207.6024
   7350359.25046   5730778.28942  24282071.7114                   24282071.8244
   4881255.80546   3808324.89843  24795258.2034                   24795262.2304
  -7109406.47347  -6103048.41045  21109557.7114                   21109554.9964
 11  8 12 21 49 30.0000000  0  9G17G09G08G02G04G20G24G26G28
 -15175581.97347 -11818482.42646  20809595.8674                   20809593.2234
  -7798367.59846  -6070288.47343  23839658.5004                   23839658.4964
   9533681.78546   5309786.08244  22668795.0164                   22668796.2344
  -6745536.30146  -5249893.06243  24617157.1724                   24617159.5274
 -22388794.74247 -17436554.42645  21068993.8914                   21068992.7664
  -7900928.14146  -6152951.87143  24149538.1334                   24149537.8594
   7460504.80145   5816605.97342  24303030.8914                   24303031.4304
   4969687.82046   3877232.76243  24812086.1644                   24812089.9304
  -7094198.63747  -6091198.14845  21112451.8204                   21112448.7034
 11  8 12 21 50  0.0000000  0  9G17G09G08G02G04G20G24G26G28
 -15151857.43047 -11799995.77046  20814110.4614                   20814107.7114
  -7884515.80946  -6137416.84442  23823265.1564                   23823264.9184
   9655612.68046   5404797.00844  22691997.6804                   22691998.1644
  -6837629.02346  -5321653.19943  24599631.8674                   24599634.4064
 -22459349.94147 -17491532.44945  21055567.9454                   21055566.7304
  -7914574.06246  -6163584.99243  24146941.9144                   24146940.5434
   7570848.74245   5902588.23842  24324029.9534                   24324028.8554
   5058135.04346   3946152.45743  24828916.3284                   24828920.8324
  -7078741.28947  -6079153.47745  21115393.1644                   21115390.3364
 11  8 12 21 50 30.0000000  0  9G17G09G08G02G04G20G24G26G28
 -15127947.78147 -11781364.87946  20818660.3054                   20818657.5944
  -7970330.38346  -6204285.27742  23806934.2974                   23806933.6374
   9777775.19546   5499988.44944  22715244.3284                   22715245.6454
  -6929673.49646  -5393375.75943  24582117.1024                   24582118.5864
 -22529491.52747 -17546188.18045  21042220.4304                   21042219.3984
  -7927837.09446  -6173919.70743  24144417.5864                   24144416.7974
   7681384.53946   5988719.98043  24345063.4924                   24345063.8834
   5146589.91446   4015078.10942  24845749.7424                   24845753.3014
  -7063037.05947  -6066916.42245  21118381.6804                   21118378.6804
 11  8 12 21 51  0.0000000  0  9G17G09G08G02G04G20G24G26G28
 -15103849.67647 -11762587.13346  20823245.8204                   20823243.0554
  -8055803.61746  -6270887.72742  23790669.9534                   23790668.2034
   9900170.74646   5595361.46143  22738535.1484                   22738536.5204
  -7021663.18446  -5465055.64543  24564611.1334                   24564614.0354
 -22599212.50847 -17600516.15645  21028952.5634                   21028951.9184
  -7940710.84846  -6183951.17243  24141968.1334                   24141967.1174
   7792113.90246   6075002.54743  24366135.1644                   24366134.9774
   5235054.65246   4084011.42243  24862583.8054                   24862588.2384
  -7047080.14147  -6054482.47745  21121417.5704                   21121415.0474
 11  8 12 21 51 30.0000000  0  9G17G09G08G02G04G20G24G26G28
 -15079569.21947 -11743667.30146  20827866.3674                   20827863.6214
  -8140937.60945  -6337225.81642  23774469.3594                   23774468.1604
  10022791.59446   5690910.03144  22761869.8204                   22761870.3444
  -7113600.60546  -5536694.80543  24547115.5634                   24547118.5084
 -22668515.46547 -17654518.40245  21015764.6884                   21015763.7504
  -7953198.48846  -6193681.74643  24139592.3204                   24139591.4184
   7903029.04946   6161429.89743  24387241.6884                   24387242.3594
   5323520.71545   4152945.75442  24879418.8674                   24879423.2624
  -7030873.99247  -6041854.32845  21124501.9454                   21124499.1484
 11  8 12 21 52  0.0000000  0  9G17G09G08G02G04G20G24G26G28
 -15055106.54748 -11724605.48446  20832521.0314                   20832518.8054
  -8225728.06646  -6403296.23842  23758332.8284                   23758333.9264
  10145635.84446   5786632.64144  22785246.1094                   22785246.9344
  -7205482.49646  -5608290.70343  24529630.6024                   24529633.3714
 -22737396.87147 -17708192.18045  21002656.7734                   21002655.6524
  -7965296.82046  -6203108.95343  24137289.9694                   24137288.5594
   8014129.05146   6248001.27343  24408382.3284                   24408382.9924
   5411986.35946   4221879.78542  24896253.3754                   24896257.0944
  -7014415.71147  -6029029.69545  21127634.1254                   21127630.7074
 11  8 12 21 52 30.0000000  0  9G17G09G08G02G04G20G24G26G28
 -15030465.28947 -11705404.50846  20837210.5554                   20837207.7344
  -8310174.77046  -6469098.77743  23742264.4304                   23742264.2814
  10268697.48046   5882524.68843  22808663.7424                   22808665.3634
  -7297309.25046  -5679843.64143  24512156.3524                   24512158.0124
 -22805856.96547 -17761537.64845  20989629.4384                   20989628.8674
  -7977006.76246  -6212233.55943  24135060.4774                   24135059.6884
   8125408.07446   6334712.13743  24429558.5474                   24429558.7194
   5500445.85945   4290809.05942  24913086.1484                   24913091.4774
  -6997706.86747  -6016009.82445  21130814.0474                   21130810.4884
 11  8 12 21 53  0.0000000  0  9G17G09G08G02G04G20G24G26G28
 -15005641.27347 -11686061.12546  20841934.5004                   20841931.6134
  -8394269.05546  -6534626.73042  23726261.8754                   23726261.0784
  10391979.29746   5978588.29744  22832123.9304                   22832125.7194
  -7389073.61946  -5751347.98843  24494693.3914                   24494695.5864
 -22873887.83247 -17814548.66045  20976683.7664                   20976682.5274
  -7988320.62146  -6221049.49243  24132907.2584                   24132906.8324
   8236869.37146   6421565.05943  24450769.0314                   24450769.5744
   5588901.87946   4359735.60242  24929919.3594                   24929923.6454
  -6980740.62147  -6002789.38345  21134041.9924                   21134039.2664
 11  8 12 21 53 30.0000000  0  9G17G09G08G02G04G20G24G26G28
 -14980630.41447 -11666572.14546  20846693.9064                   20846691.0234
  -8478002.74246  -6599873.70742  23710327.0864                   23710326.8014
  10515483.19146   6074824.93444  22855626.3054                   22855627.2074
  -7480768.48846  -5822798.19943  24477244.4924                   24477247.1804
 -22941482.23047 -17867219.56645  20963820.3204                   20963819.8014
  -7999231.06246  -6229551.06643  24130831.6564                   24130830.1214
   8348515.14845   6508561.71942  24472015.5554                   24472015.3754
   5677355.96145   4428660.60542  24946751.8754                   24946756.5864
  -6963510.40647  -5989363.24645  21137321.0944                   21137318.0634
 11  8 12 21 54  0.0000000  0  9G17G09G08G02G04G20G24G26G28
 -14955427.47747 -11646933.48046  20851489.9064                   20851487.5354
  -8561366.01646  -6664832.01243  23694464.7584                   23694463.8244
  10639212.74246   6171237.40243  22879171.1254                   22879172.6644
  -7572384.85546  -5894187.20343  24459810.7034                   24459812.8014
 -23008630.77047 -17919543.04745  20951042.5784                   20951041.5704
  -8009729.48046  -6237731.57442  24128833.8674                   24128832.6334
   8460350.12546   6595705.80943  24493296.2734                   24493295.8484
   5765812.35545   4497587.37142  24963584.7584                   24963589.4064
  -6946007.81647  -5975724.87145  21140651.7584                   21140648.5744
 11  8 12 21 54 30.0000000  0  9G17G09G08G02G04G20G24G26G28
 -14930032.97347 -11627145.56246  20856322.1174                   20856319.6024
  -8644355.38346  -6729498.97743  23678672.2734                   23678671.4064
  10763165.80546   6267824.04744  22902758.8204                   22902760.2074
  -7663920.22746  -5965513.10943  24442391.2894                   24442393.5594
 -23075330.75047 -17971517.00445  20938349.8834                   20938348.8284
  -8019813.64146  -6245589.32443  24126915.6644                   24126914.2074
   8572371.80545   6682995.41042  24514613.6564                   24514612.9964
   5854268.57045   4566514.03542  24980417.9304                   24980422.4144
  -6928230.83647  -5961872.68745  21144034.1334                   21144031.5434
 11  8 12 21 55  0.0000000  0  9G17G09G08G02G04G20G24G26G28
 -14904442.51647 -11607204.94546  20861191.9304                   20861189.4104
  -8726962.18446  -6793867.84043  23662951.7814                   23662952.0944
  10887344.66446   6364586.64144  22926389.2584                   22926390.6994
  -7755367.03946  -6036770.02343  24424989.0944                   24424991.5824
 -23141574.57847 -18023135.52045  20925744.4144                   20925742.8794
  -8029476.48446  -6253118.73443  24125075.5084                   24125075.4694
   8684582.98045   6770432.64542  24535965.9924                   24535967.0664
   5942726.87945   4635442.37142  24997250.3914                   24997255.9574
  -6910173.04347  -5947801.69145  21147470.3284                   21147468.1484
 11  8 12 21 55 30.0000000  0  9G17G09G08G02G04G20G24G26G28
 -14878656.62147 -11587112.03546  20866098.5944                   20866096.5354
  -8809182.40646  -6857935.45343  23647306.0554                   23647306.2704
  11011747.09446   6461523.42943  22950061.8444                   22950063.9384
  -7846722.03946  -6107955.37143  24407604.5164                   24407607.1174
 -23207358.59847 -18074395.75845  20913225.6174                   20913224.5204
  -8038714.80146  -6260317.34043  24123318.2114                   24123316.7154
   8796981.86745   6858016.15642  24557355.0164                   24557355.6094
   6031185.19545   4704370.62542  25014083.9694                   25014089.9144
  -6891832.03947  -5933510.01245  21150960.9614                   21150958.2814
 11  8 12 21 56  0.0000000  0  9G17G09G08G02G04G20G24G26G28
 -14852661.89147 -11566856.40646  20871045.2344                   20871042.6134
  -8890999.55146  -6921689.00843  23631736.5864                   23631736.9344
  11136384.43446   6558643.26643  22973779.7114                   22973781.7894
  -7937969.69946  -6179057.08243  24390239.9304                   24390242.6524
 -23272666.93747 -18125285.31645  20900798.2344                   20900797.2034
  -8047512.92646  -6267172.94543  24121643.9304                   24121642.1564
   8909580.28945   6945755.16042  24578781.4924                   24578781.6094
   6119654.53546   4773307.56342  25030919.8524                   25030924.4804
  -6873192.32447  -5918985.55945  21154508.1884                   21154505.0164
 11  8 12 21 56 30.0000000  0  9G17G09G08G02G04G20G24G26G28
 -14826465.59047 -11546443.69546  20876030.1334                   20876027.8714
  -8972416.41446  -6985130.63743  23616243.5944                   23616243.4614
  11261247.21146   6655938.77743  22997541.1414                   22997542.5204
  -8029113.38346  -6250077.73443  24372895.9144                   24372898.8984
 -23337503.14547 -18175806.98845  20888460.3754                   20888458.9224
  -8055874.90246  -6273688.72343  24120052.7664                   24120051.4064
   9022369.72345   7033642.97742  24600245.0784                   24600244.4384
   6208126.17245   4842246.26642  25047756.2114                   25047759.7934
  -6854258.28147  -5904231.77345  21158110.9224                   21158108.0554
